[[{"header":{"parameterUnit":"m.s-1","parameterCategory":1,"la1":31.0,"la2":29.5877,"lo1":-88.7671,"lo2":-86.6584,"dy":0.0162,"dx":0.0185,"nx":115,"ny":88,"refTime":"2026-03-29T12:00:00:Z","depth":0,"parameterNumber":2,"parameterNumberName":"U-component_of_WINDS"},"data":[0.0,0.0,0.0,0.0,0.0,0.0,0.0,0.0,0.0,0.0,0.0,0.0,0.0,0.0,0.0,0.0,0.0,0.0,0.0,0.0,0.0,0.0,0.0,0.0,0.0,0.0,0.0,0.0,0.0,0.0,0.0,0.0,0.0,0.0,0.0,0.0,0.0,0.0,0.0,0.0,0.0,0.0,0.0,0.0,0.0,0.0,0.0,0.0,0.0,0.0,0.0,0.0,0.0,0.0,0.0,0.0,0.0,0.0,0.0,0.0,0.0,0.0,0.0,0.0,0.0,0.0,0.0,0.0,0.0,0.0,0.0,0.0,0.0,0.0,0.0,0.0,0.0,0.0,0.0,0.0,0.0,0.0,0.0,0.0,0.0,0.0,0.0,0.0,0.0,0.0,0.0,0.0,0.0,0.0,0.0,0.0,0.0,0.0,0.0,0.0,0.0,0.0,0.0,0.0,0.0,0.0,0.0,0.0,0.0,0.0,0.0,0.0,0.0,0.0,0.0,0.0,0.0,0.0,0.0,0.0,0.0,0.0,0.0,0.0,0.0,0.0,0.0,0.0,0.0,0.0,0.0,0.0,0.0,0.0,0.0,0.0,0.0,0.0,0.0,0.0,0.0,0.0,0.0,0.0,0.0,0.0,0.0,0.0,0.0,0.0,0.0,0.0,0.0,0.0,0.0,0.0,0.0,0.0,0.0,0.0,0.0,0.0,0.0,0.0,0.0,0.0,0.0,0.0,0.0,0.0,0.0,0.0,0.0,0.0,0.0,0.0,0.0,0.0,0.0,0.0,0.0,0.0,0.0,0.0,0.0,0.0,0.0,0.0,0.0,0.0,0.0,0.0,0.0,0.0,0.0,0.0,0.0,0.0,0.0,0.0,0.0,0.0,0.0,0.0,0.0,0.0,0.0,0.0,0.0,0.0,0.0,0.0,0.0,0.0,0.0,0.0,0.0,0.0,0.0,0.0,0.0,0.0,0.0,0.0,0.0,0.0,0.0,0.0,0.0,0.0,0.0,0.0,0.0,0.0,0.0,0.0,0.0,0.0,0.0,0.0,0.0,0.0,0.0,0.0,0.0,0.0,0.0,0.0,0.0,0.0,0.0,0.0,0.0,0.0,0.0,0.0,0.0,0.0,0.0,0.0,0.0,0.0,0.0,0.0,0.0,0.0,0.0,0.0,0.0,0.0,0.0,0.0,0.0,0.0,0.0,0.0,0.0,0.0,0.0,0.0,0.0,0.0,0.0,0.0,0.0,0.0,0.0,0.0,0.0,0.0,0.0,0.0,0.0,0.0,0.0,0.0,0.0,0.0,0.0,0.0,0.0,0.0,0.0,0.0,0.0,0.0,0.0,0.0,0.0,0.0,0.0,0.0,0.0,0.0,0.0,0.0,0.0,0.0,0.0,0.0,0.0,0.0,0.0,0.0,0.0,0.0,0.0,0.0,0.0,0.0,0.0,0.0,0.0,0.0,0.0,0.0,0.0,0.0,0.0,0.0,0.0,0.0,0.0,0.0,0.0,0.0,0.0,0.0,0.0,0.0,0.0,0.0,0.0,0.0,0.0,0.0,0.0,0.0,0.0,0.0,0.0,0.0,0.0,0.0,0.0,0.0,0.0,0.0,0.0,0.0,0.0,0.0,0.0,0.0,0.0,0.0,0.0,0.0,0.0,0.0,0.0,0.0,0.0,0.0,0.0,0.0,0.0,0.0,0.0,0.0,0.0,0.0,0.0,0.0,0.0,0.0,0.0,0.0,0.0,0.0,0.0,0.0,0.0,0.0,0.0,0.0,0.0,0.0,0.0,0.0,0.0,0.0,0.0,0.0,0.0,0.0,0.0,0.0,0.0,0.0,0.0,0.0,0.0,0.0,0.0,0.0,0.0,0.0,0.0,0.0,0.0,0.0,0.0,0.0,0.0,0.0,0.0,0.0,0.0,0.0,0.0,0.0,0.0,0.0,0.0,0.0,0.0,0.0,0.0,0.0,0.0,0.0,0.0,0.0,0.0,0.0,0.0,0.0,0.0,0.0,0.0,0.0,0.0,0.0,0.0,0.0,0.0,0.0,0.0,0.0,0.0,0.0,0.0,0.0,0.0,0.0,0.0,0.0,0.0,0.0,0.0,0.0,0.0,0.0,0.0,0.0,0.0,0.0,0.0,0.0,0.0,0.0,0.0,0.0,0.0,0.0,0.0,0.0,0.0,0.0,0.0,0.0,0.0,0.0,0.0,0.0,0.0,0.0,0.0,0.0,0.0,0.0,0.0,0.0,0.0,0.0,0.0,0.0,0.0,0.0,0.0,0.0,0.0,0.0,0.0,0.0,0.0,0.0,0.0,0.0,0.0,0.0,0.0,0.0,0.0,0.0,0.0,0.0,0.0,0.0,0.0,0.0,0.0,0.0,0.0,0.0,0.0,0.0,0.0,0.0,0.0,0.0,0.0,0.0,0.0,0.0,0.0,0.0,0.0,0.0,0.0,0.0,0.0,0.0,0.0,0.0,0.0,0.0,0.0,0.0,0.0,0.0,0.0,0.0,0.0,0.0,0.0,0.0,0.0,0.0,0.0,0.0,0.0,0.0,0.0,0.0,0.0,0.0,0.0,0.0,0.0,0.0,0.0,0.0,0.0,0.0,0.0,0.0,0.0,0.0,0.0,0.0,0.0,0.0,0.0,0.0,0.0,0.0,0.0,0.0,0.0,0.0,0.0,0.0,0.0,0.0,0.0,0.0,0.0,0.0,0.0,0.0,0.0,0.0,0.0,0.0,0.0,0.0,0.0,0.0,0.0,0.0,0.0,0.0,0.0,0.0,0.0,0.0,0.0,0.0,0.0,0.0,0.0,0.0,0.0,0.0,0.0,0.0,0.0,0.0,0.0,0.0,0.0,0.0,0.0,0.0,0.0,0.0,0.0,0.0,0.0,0.0,0.0,0.0,0.0,0.0,0.0,0.0,0.0,0.0,0.0,0.0,0.0,0.0,0.0,0.0,0.0,0.0,0.0,0.0,0.0,0.0,0.0,0.0,0.0,0.0,0.0,0.0,0.0,0.0,0.0,0.0,0.0,0.0,0.0,0.0,0.0,0.0,0.0,0.0,0.0,0.0,0.0,0.0,0.0,0.0,0.0,0.0,0.0,0.0,0.0,0.0,0.0,0.0,0.0,0.0,0.0,0.0,0.0,0.0,0.0,0.0,0.0,0.0,0.0,0.0,0.0,0.0,0.0,0.0,0.0,0.0,0.0,0.0,0.0,0.0,0.0,0.0,0.0,0.0,0.0,0.0,0.0,0.0,0.0,0.0,0.0,0.0,0.0,0.0,0.0,0.0,0.0,0.0,0.0,0.0,0.0,0.0,0.0,0.0,0.0,0.0,0.0,0.0,0.0,0.0,0.0,0.0,0.0,0.0,0.0,0.0,0.0,0.0,0.0,0.0,0.0,0.0,0.0,0.0,0.0,0.0,0.0,0.0,0.0,0.0,0.0,0.0,0.0,0.0,0.0,0.0,0.0,0.0,0.0,0.0,0.0,0.0,0.0,0.0,0.0,0.0,0.0,0.0,0.0,0.0,0.0,0.0,0.0,0.0,0.0,0.0,0.0,0.0,0.0,0.0,0.0,0.0,0.0,0.0,0.0,0.0,0.0,0.0,0.0,0.0,0.0,0.0,0.0,0.0,0.0,0.0,0.0,0.0,0.0,0.0,0.0,0.0,0.0,0.0,0.0,0.0,0.0,0.0,0.0,0.0,0.0,0.0,0.0,0.0,0.0,0.0,0.0,0.0,0.0,0.0,0.0,0.0,0.0,0.0,0.0,0.0,0.0,0.0,0.0,0.0,0.0,0.0,0.0,0.0,0.0,0.0,0.0,0.0,0.0,0.0,0.0,0.0,0.0,0.0,0.0,0.0,0.0,0.0,0.0,0.0,0.0,0.0,0.0,0.0,0.0,0.0,0.0,0.0,0.0,0.0,0.0,0.0,0.0,0.0,0.0,0.0,0.0,0.0,0.0,0.0,0.0,0.0,0.0,0.0,0.0,0.0,0.0,0.0,0.0,0.0,0.0,0.0,0.0,0.0,0.0,0.0,0.0,0.0,0.0,0.0,0.0,0.0,0.0,0.0,0.0,0.0,0.0,0.0,0.0,0.0,0.0,0.0,0.0,0.0,0.0,0.0,0.0,0.0,0.0,0.0,0.0,0.0,0.0,0.0,0.0,0.0,0.0,0.0,0.0,0.0,0.0,0.0,0.0,0.0,0.0,0.0,0.0,0.0,0.0,0.0,-2.3877,0.0,0.0,0.0,0.0,0.0,0.0,0.0,0.0,0.0,0.0,0.0,0.0,0.0,0.0,0.0,0.0,0.0,0.0,0.0,0.0,0.0,0.0,0.0,0.0,0.0,0.0,0.0,0.0,0.0,0.0,0.0,0.0,0.0,0.0,0.0,0.0,0.0,0.0,0.0,0.0,0.0,0.0,0.0,0.0,0.0,0.0,0.0,0.0,0.0,0.0,0.0,0.0,0.0,0.0,0.0,0.0,0.0,0.0,0.0,0.0,0.0,0.0,0.0,0.0,0.0,0.0,0.0,0.0,0.0,0.0,0.0,0.0,0.0,0.0,0.0,0.0,0.0,0.0,0.0,0.0,0.0,0.0,0.0,0.0,0.0,0.0,0.0,0.0,0.0,0.0,0.0,0.0,0.0,0.0,0.0,0.0,0.0,0.0,0.0,0.0,0.0,0.0,0.0,0.0,0.0,0.0,0.0,0.0,0.0,0.0,-2.5572,-2.5465,-2.4216,-2.3462,-2.3327,0.0,0.0,0.0,0.0,0.0,0.0,0.0,0.0,0.0,0.0,0.0,0.0,0.0,0.0,0.0,0.0,0.0,0.0,0.0,0.0,0.0,0.0,0.0,0.0,0.0,0.0,0.0,0.0,0.0,0.0,0.0,0.0,0.0,0.0,0.0,0.0,0.0,0.0,0.0,0.0,0.0,0.0,0.0,0.0,0.0,0.0,0.0,0.0,0.0,0.0,0.0,0.0,0.0,0.0,0.0,0.0,0.0,0.0,0.0,0.0,0.0,0.0,0.0,0.0,0.0,0.0,0.0,0.0,0.0,0.0,0.0,0.0,0.0,0.0,0.0,0.0,0.0,0.0,0.0,0.0,0.0,0.0,0.0,0.0,0.0,0.0,0.0,0.0,0.0,0.0,0.0,0.0,0.0,0.0,0.0,0.0,0.0,0.0,0.0,0.0,0.0,0.0,0.0,0.0,0.0,0.0,0.0,0.0,0.0,0.0,0.0,0.0,-2.414,-2.3489,-2.3304,0.0,0.0,0.0,0.0,0.0,0.0,0.0,0.0,0.0,0.0,0.0,0.0,0.0,0.0,0.0,0.0,0.0,0.0,0.0,0.0,0.0,0.0,0.0,0.0,0.0,0.0,0.0,0.0,0.0,0.0,0.0,0.0,0.0,0.0,0.0,0.0,0.0,0.0,0.0,0.0,0.0,0.0,0.0,0.0,0.0,0.0,0.0,0.0,0.0,0.0,0.0,0.0,0.0,0.0,0.0,0.0,0.0,0.0,0.0,0.0,0.0,0.0,0.0,0.0,0.0,0.0,0.0,0.0,0.0,0.0,0.0,0.0,0.0,0.0,0.0,0.0,0.0,0.0,0.0,0.0,0.0,0.0,0.0,0.0,0.0,0.0,0.0,0.0,0.0,0.0,0.0,0.0,0.0,0.0,0.0,0.0,0.0,0.0,0.0,0.0,0.0,0.0,0.0,0.0,0.0,0.0,0.0,0.0,0.0,0.0,-2.5427,-2.7146,-2.6109,0.0,-2.4321,0.0,0.0,0.0,0.0,0.0,0.0,0.0,0.0,0.0,0.0,0.0,0.0,0.0,0.0,0.0,0.0,0.0,0.0,0.0,0.0,0.0,0.0,0.0,0.0,0.0,0.0,0.0,0.0,0.0,0.0,0.0,0.0,0.0,0.0,0.0,0.0,0.0,0.0,0.0,0.0,0.0,0.0,0.0,0.0,0.0,0.0,0.0,0.0,0.0,0.0,0.0,0.0,0.0,0.0,0.0,0.0,0.0,0.0,0.0,0.0,0.0,0.0,0.0,0.0,0.0,0.0,0.0,0.0,0.0,0.0,0.0,0.0,0.0,0.0,0.0,0.0,0.0,0.0,0.0,0.0,0.0,0.0,0.0,0.0,0.0,0.0,0.0,0.0,0.0,0.0,0.0,0.0,0.0,0.0,0.0,0.0,0.0,0.0,0.0,0.0,0.0,0.0,0.0,0.0,0.0,0.0,0.0,0.0,0.0,0.0,-2.6672,-2.7362,-2.5679,-2.4422,0.0,0.0,0.0,0.0,0.0,0.0,0.0,0.0,0.0,0.0,0.0,0.0,0.0,0.0,0.0,0.0,0.0,0.0,0.0,0.0,0.0,0.0,0.0,0.0,0.0,0.0,0.0,0.0,0.0,0.0,0.0,0.0,0.0,0.0,0.0,0.0,0.0,0.0,0.0,0.0,0.0,0.0,0.0,0.0,0.0,0.0,0.0,0.0,0.0,0.0,0.0,0.0,0.0,0.0,0.0,0.0,0.0,0.0,0.0,0.0,0.0,0.0,0.0,0.0,0.0,0.0,0.0,0.0,0.0,0.0,0.0,0.0,0.0,0.0,0.0,0.0,0.0,0.0,0.0,0.0,0.0,0.0,0.0,0.0,0.0,0.0,0.0,0.0,0.0,0.0,0.0,0.0,0.0,0.0,0.0,0.0,0.0,0.0,0.0,0.0,0.0,0.0,0.0,0.0,0.0,0.0,0.0,0.0,0.0,0.0,-2.7708,0.0,-2.7281,-2.5914,-2.4498,-2.3061,0.0,0.0,0.0,0.0,0.0,0.0,0.0,0.0,0.0,0.0,0.0,0.0,0.0,0.0,0.0,0.0,0.0,0.0,0.0,0.0,0.0,0.0,0.0,0.0,0.0,0.0,0.0,0.0,0.0,0.0,0.0,0.0,0.0,0.0,0.0,0.0,0.0,0.0,0.0,0.0,0.0,0.0,0.0,0.0,0.0,0.0,0.0,0.0,0.0,0.0,0.0,0.0,0.0,0.0,0.0,0.0,0.0,0.0,0.0,0.0,0.0,0.0,0.0,0.0,0.0,0.0,0.0,0.0,0.0,0.0,0.0,0.0,0.0,0.0,0.0,0.0,0.0,0.0,0.0,0.0,0.0,0.0,0.0,0.0,0.0,0.0,0.0,0.0,0.0,0.0,0.0,0.0,0.0,0.0,0.0,0.0,0.0,0.0,0.0,0.0,0.0,0.0,0.0,0.0,0.0,0.0,0.0,0.0,0.0,-2.8249,-2.7119,-2.7538,-2.763,-2.6179,0.0,0.0,0.0,0.0,0.0,0.0,0.0,0.0,0.0,0.0,0.0,0.0,0.0,0.0,0.0,0.0,0.0,0.0,0.0,0.0,0.0,0.0,0.0,0.0,0.0,0.0,0.0,0.0,0.0,0.0,0.0,0.0,0.0,0.0,0.0,0.0,0.0,0.0,0.0,0.0,0.0,0.0,0.0,0.0,0.0,0.0,0.0,0.0,0.0,0.0,0.0,0.0,0.0,0.0,0.0,0.0,0.0,0.0,0.0,0.0,0.0,0.0,0.0,0.0,0.0,0.0,0.0,0.0,0.0,0.0,0.0,0.0,0.0,0.0,0.0,0.0,0.0,0.0,0.0,0.0,0.0,0.0,0.0,0.0,0.0,0.0,0.0,0.0,0.0,0.0,0.0,0.0,0.0,0.0,0.0,0.0,0.0,0.0,0.0,0.0,0.0,0.0,0.0,0.0,0.0,0.0,0.0,0.0,0.0,-2.8055,-2.7094,-2.7569,-2.9445,-2.6352,-2.456,0.0,0.0,0.0,0.0,0.0,0.0,0.0,0.0,0.0,0.0,0.0,0.0,0.0,0.0,0.0,0.0,0.0,0.0,0.0,0.0,0.0,0.0,0.0,0.0,0.0,0.0,0.0,0.0,0.0,0.0,0.0,0.0,0.0,0.0,0.0,0.0,0.0,0.0,0.0,0.0,0.0,0.0,0.0,0.0,0.0,0.0,0.0,0.0,0.0,0.0,0.0,0.0,0.0,0.0,0.0,0.0,0.0,0.0,0.0,0.0,0.0,0.0,0.0,0.0,0.0,0.0,0.0,0.0,0.0,0.0,0.0,0.0,0.0,0.0,0.0,0.0,0.0,0.0,0.0,0.0,0.0,0.0,0.0,0.0,0.0,0.0,0.0,0.0,0.0,0.0,0.0,0.0,0.0,0.0,0.0,0.0,0.0,0.0,0.0,0.0,0.0,0.0,0.0,0.0,0.0,0.0,0.0,0.0,0.0,-2.7486,0.0,-2.8357,0.0,-2.6162,-2.414,0.0,0.0,0.0,0.0,0.0,0.0,0.0,0.0,0.0,0.0,0.0,0.0,0.0,0.0,0.0,0.0,0.0,0.0,0.0,0.0,0.0,0.0,0.0,0.0,0.0,0.0,0.0,0.0,0.0,0.0,0.0,0.0,0.0,0.0,0.0,0.0,0.0,0.0,0.0,0.0,0.0,0.0,0.0,0.0,0.0,0.0,0.0,0.0,0.0,0.0,0.0,0.0,0.0,0.0,0.0,0.0,0.0,0.0,0.0,0.0,0.0,0.0,0.0,0.0,0.0,0.0,0.0,0.0,0.0,0.0,0.0,0.0,0.0,0.0,0.0,0.0,0.0,0.0,0.0,0.0,0.0,0.0,0.0,0.0,0.0,0.0,0.0,0.0,0.0,0.0,0.0,0.0,0.0,0.0,0.0,0.0,0.0,0.0,0.0,0.0,0.0,0.0,0.0,0.0,0.0,0.0,0.0,0.0,-2.7661,-2.9422,-2.9977,-2.9204,-2.7181,-2.7305,-2.5156,0.0,0.0,0.0,0.0,0.0,0.0,0.0,0.0,0.0,0.0,0.0,0.0,0.0,0.0,0.0,0.0,0.0,0.0,0.0,0.0,0.0,0.0,0.0,0.0,0.0,0.0,0.0,0.0,0.0,0.0,0.0,0.0,0.0,0.0,0.0,0.0,0.0,0.0,0.0,0.0,0.0,0.0,0.0,0.0,0.0,0.0,0.0,0.0,0.0,0.0,0.0,0.0,0.0,0.0,0.0,0.0,0.0,0.0,0.0,0.0,0.0,0.0,0.0,0.0,0.0,0.0,0.0,0.0,0.0,0.0,0.0,0.0,0.0,0.0,0.0,0.0,0.0,0.0,0.0,0.0,0.0,0.0,0.0,0.0,0.0,0.0,0.0,0.0,0.0,0.0,0.0,0.0,0.0,0.0,0.0,0.0,0.0,0.0,0.0,0.0,0.0,0.0,0.0,0.0,0.0,0.0,0.0,0.0,0.0,-2.7629,-2.7936,-2.8518,-2.9176,-2.5665,-2.3694,0.0,0.0,0.0,0.0,0.0,0.0,0.0,0.0,0.0,0.0,0.0,0.0,0.0,0.0,0.0,0.0,0.0,0.0,0.0,0.0,0.0,0.0,0.0,0.0,0.0,0.0,0.0,0.0,0.0,0.0,0.0,0.0,0.0,0.0,0.0,0.0,0.0,0.0,0.0,0.0,0.0,0.0,0.0,0.0,0.0,0.0,0.0,0.0,0.0,0.0,0.0,0.0,0.0,0.0,0.0,0.0,0.0,0.0,0.0,0.0,0.0,0.0,0.0,0.0,0.0,0.0,0.0,0.0,0.0,0.0,0.0,0.0,0.0,0.0,0.0,0.0,0.0,0.0,0.0,0.0,0.0,0.0,0.0,0.0,0.0,0.0,0.0,0.0,0.0,0.0,0.0,0.0,0.0,0.0,0.0,0.0,0.0,0.0,0.0,0.0,0.0,0.0,0.0,0.0,0.0,0.0,0.0,0.0,0.0,-2.8408,-2.8859,-2.9365,-2.9863,-2.6009,-2.4075,-2.4287,0.0,0.0,0.0,0.0,0.0,0.0,0.0,0.0,0.0,0.0,0.0,0.0,0.0,0.0,0.0,0.0,0.0,0.0,0.0,0.0,0.0,0.0,0.0,0.0,0.0,0.0,0.0,0.0,0.0,0.0,0.0,0.0,0.0,0.0,0.0,0.0,0.0,0.0,0.0,0.0,0.0,0.0,0.0,0.0,0.0,0.0,0.0,0.0,0.0,0.0,0.0,0.0,0.0,0.0,0.0,0.0,0.0,0.0,0.0,0.0,0.0,0.0,0.0,0.0,0.0,0.0,0.0,0.0,0.0,0.0,0.0,0.0,0.0,0.0,0.0,0.0,0.0,0.0,0.0,0.0,0.0,0.0,0.0,0.0,0.0,0.0,0.0,0.0,0.0,0.0,0.0,0.0,0.0,0.0,0.0,0.0,0.0,0.0,0.0,0.0,0.0,0.0,0.0,0.0,0.0,0.0,0.0,0.0,-3.11,-3.203,-3.1427,-2.925,-2.7969,-2.5977,0.0,0.0,0.0,0.0,0.0,0.0,0.0,0.0,0.0,0.0,0.0,0.0,0.0,0.0,0.0,0.0,0.0,0.0,0.0,0.0,0.0,0.0,0.0,0.0,0.0,0.0,0.0,0.0,0.0,0.0,0.0,0.0,0.0,0.0,0.0,0.0,0.0,0.0,0.0,0.0,0.0,0.0,0.0,0.0,0.0,0.0,0.0,0.0,0.0,0.0,0.0,0.0,0.0,0.0,0.0,0.0,0.0,0.0,0.0,0.0,0.0,0.0,0.0,0.0,0.0,0.0,0.0,0.0,0.0,0.0,0.0,0.0,0.0,0.0,0.0,0.0,0.0,0.0,0.0,0.0,0.0,0.0,0.0,0.0,0.0,0.0,0.0,0.0,0.0,0.0,0.0,0.0,0.0,0.0,0.0,0.0,0.0,0.0,0.0,0.0,0.0,0.0,0.0,0.0,0.0,0.0,0.0,0.0,0.0,-3.1377,-3.2172,-3.2093,-3.1146,-2.853,-2.6352,0.0,0.0,0.0,0.0,0.0,0.0,0.0,0.0,0.0,0.0,0.0,0.0,0.0,0.0,0.0,0.0,0.0,0.0,0.0,0.0,0.0,0.0,0.0,0.0,0.0,0.0,0.0,0.0,0.0,0.0,0.0,0.0,0.0,0.0,0.0,0.0,0.0,0.0,0.0,0.0,0.0,0.0,0.0,0.0,0.0,0.0,0.0,0.0,0.0,0.0,0.0,0.0,0.0,0.0,0.0,0.0,0.0,0.0,0.0,0.0,0.0,0.0,0.0,0.0,0.0,0.0,0.0,0.0,0.0,0.0,0.0,0.0,0.0,0.0,0.0,0.0,0.0,0.0,0.0,0.0,0.0,0.0,0.0,0.0,0.0,0.0,0.0,0.0,0.0,0.0,0.0,0.0,0.0,0.0,0.0,0.0,0.0,0.0,0.0,0.0,0.0,0.0,0.0,0.0,0.0,0.0,0.0,0.0,-3.0656,-3.1292,-3.1989,-3.2051,-3.128,-2.9083,-2.7159,0.0,0.0,0.0,0.0,0.0,0.0,0.0,0.0,0.0,0.0,0.0,0.0,0.0,0.0,0.0,0.0,0.0,0.0,0.0,0.0,0.0,0.0,0.0,0.0,0.0,0.0,0.0,0.0,0.0,0.0,0.0,0.0,0.0,0.0,0.0,0.0,0.0,0.0,0.0,0.0,0.0,0.0,0.0,0.0,0.0,0.0,0.0,0.0,0.0,0.0,0.0,0.0,0.0,0.0,0.0,0.0,0.0,0.0,0.0,0.0,0.0,0.0,0.0,0.0,0.0,0.0,0.0,0.0,0.0,0.0,0.0,0.0,0.0,0.0,0.0,0.0,0.0,0.0,0.0,0.0,0.0,0.0,0.0,0.0,0.0,0.0,0.0,0.0,0.0,0.0,0.0,0.0,0.0,0.0,0.0,0.0,0.0,0.0,0.0,0.0,0.0,0.0,0.0,0.0,0.0,0.0,0.0,0.0,-3.0573,-3.0991,-3.1635,-3.1461,-3.0399,-2.9506,-2.8021,0.0,0.0,0.0,0.0,0.0,0.0,0.0,0.0,0.0,0.0,0.0,0.0,0.0,0.0,0.0,0.0,0.0,0.0,0.0,0.0,0.0,0.0,0.0,0.0,0.0,0.0,0.0,0.0,0.0,0.0,0.0,0.0,0.0,0.0,0.0,0.0,0.0,0.0,0.0,0.0,0.0,0.0,0.0,0.0,0.0,0.0,0.0,0.0,0.0,0.0,0.0,0.0,0.0,0.0,0.0,0.0,0.0,0.0,0.0,0.0,0.0,0.0,0.0,0.0,0.0,0.0,0.0,0.0,0.0,0.0,0.0,0.0,0.0,0.0,0.0,0.0,0.0,0.0,0.0,0.0,0.0,0.0,0.0,0.0,0.0,0.0,0.0,0.0,0.0,0.0,0.0,0.0,0.0,0.0,0.0,0.0,0.0,0.0,0.0,0.0,0.0,0.0,0.0,0.0,0.0,0.0,0.0,0.0,-3.0356,-3.0978,-3.1144,-3.0959,-3.0399,-2.9299,-2.7762,0.0,0.0,0.0,0.0,0.0,0.0,0.0,0.0,0.0,0.0,0.0,0.0,0.0,0.0,0.0,0.0,0.0,0.0,0.0,0.0,0.0,0.0,0.0,0.0,0.0,0.0,0.0,0.0,0.0,0.0,0.0,0.0,0.0,0.0,0.0,0.0,0.0,0.0,0.0,0.0,0.0,0.0,0.0,0.0,0.0,0.0,0.0,0.0,-1.9376,0.0,0.0,0.0,0.0,0.0,0.0,0.0,0.0,0.0,0.0,0.0,0.0,0.0,0.0,0.0,0.0,0.0,0.0,0.0,0.0,0.0,0.0,0.0,0.0,0.0,0.0,0.0,0.0,0.0,0.0,0.0,0.0,0.0,0.0,0.0,0.0,0.0,0.0,0.0,0.0,0.0,0.0,0.0,0.0,0.0,0.0,0.0,0.0,0.0,0.0,0.0,0.0,0.0,0.0,0.0,0.0,0.0,0.0,0.0,-3.041,-3.0508,-3.0649,-3.0451,-2.9902,-2.8749,-2.7412,0.0,0.0,0.0,0.0,0.0,0.0,0.0,0.0,0.0,0.0,0.0,0.0,0.0,0.0,0.0,0.0,0.0,0.0,0.0,0.0,0.0,0.0,0.0,0.0,0.0,0.0,0.0,0.0,0.0,0.0,0.0,0.0,0.0,0.0,0.0,0.0,0.0,0.0,0.0,0.0,0.0,0.0,0.0,0.0,0.0,0.0,0.0,0.0,0.0,0.0,0.0,0.0,0.0,0.0,0.0,0.0,0.0,0.0,0.0,0.0,0.0,0.0,0.0,0.0,0.0,0.0,0.0,0.0,0.0,0.0,0.0,0.0,0.0,0.0,0.0,0.0,0.0,0.0,0.0,0.0,0.0,0.0,0.0,0.0,0.0,0.0,0.0,0.0,0.0,0.0,0.0,0.0,0.0,0.0,0.0,0.0,0.0,0.0,0.0,0.0,0.0,0.0,0.0,0.0,0.0,0.0,0.0,-2.9969,-3.0373,-3.0025,-3.0147,-2.9946,-2.932,-2.8213,-2.7159,-2.6175,0.0,0.0,0.0,0.0,0.0,0.0,0.0,0.0,0.0,0.0,0.0,0.0,0.0,0.0,0.0,0.0,0.0,0.0,0.0,0.0,0.0,0.0,0.0,0.0,0.0,0.0,0.0,0.0,0.0,0.0,0.0,0.0,0.0,0.0,0.0,0.0,0.0,0.0,-2.4058,-2.3913,0.0,0.0,0.0,0.0,0.0,0.0,0.0,0.0,-1.9579,0.0,0.0,0.0,0.0,0.0,0.0,0.0,0.0,0.0,0.0,0.0,0.0,0.0,0.0,0.0,0.0,0.0,0.0,0.0,0.0,0.0,0.0,0.0,0.0,0.0,0.0,0.0,0.0,0.0,0.0,0.0,0.0,0.0,0.0,0.0,0.0,0.0,0.0,0.0,0.0,0.0,0.0,0.0,0.0,0.0,0.0,0.0,0.0,0.0,0.0,0.0,0.0,0.0,0.0,0.0,0.0,-3.0359,-2.9473,-2.9403,-3.0293,-2.9776,-2.9438,-2.9278,-2.8191,-2.7086,-2.5983,0.0,0.0,0.0,0.0,0.0,0.0,0.0,0.0,0.0,0.0,0.0,0.0,0.0,0.0,0.0,0.0,0.0,0.0,0.0,0.0,0.0,0.0,0.0,0.0,0.0,0.0,0.0,0.0,0.0,0.0,0.0,0.0,0.0,0.0,0.0,0.0,0.0,0.0,0.0,-2.5871,-2.5423,0.0,0.0,0.0,0.0,0.0,0.0,0.0,0.0,-1.8804,0.0,0.0,0.0,0.0,0.0,0.0,0.0,0.0,0.0,0.0,0.0,0.0,0.0,0.0,0.0,0.0,0.0,0.0,0.0,0.0,0.0,0.0,0.0,0.0,0.0,0.0,0.0,0.0,0.0,0.0,0.0,0.0,0.0,0.0,0.0,0.0,0.0,0.0,0.0,0.0,0.0,0.0,0.0,0.0,0.0,0.0,0.0,0.0,0.0,0.0,0.0,0.0,0.0,0.0,0.0,-2.9771,-2.9816,-3.0007,-3.0361,-2.99,-2.9394,-2.8976,-2.7591,-2.6473,0.0,0.0,0.0,0.0,0.0,0.0,0.0,0.0,0.0,0.0,0.0,0.0,0.0,0.0,0.0,0.0,0.0,0.0,0.0,0.0,0.0,0.0,0.0,0.0,0.0,0.0,0.0,0.0,0.0,0.0,0.0,0.0,0.0,0.0,0.0,0.0,0.0,0.0,0.0,0.0,-2.6091,-2.5534,-2.5783,0.0,0.0,0.0,0.0,0.0,0.0,-2.0239,-1.9141,0.0,0.0,0.0,0.0,0.0,0.0,0.0,0.0,0.0,0.0,0.0,0.0,0.0,0.0,0.0,0.0,0.0,0.0,0.0,0.0,0.0,0.0,0.0,0.0,0.0,0.0,0.0,0.0,0.0,0.0,0.0,0.0,0.0,0.0,0.0,0.0,0.0,0.0,0.0,0.0,0.0,0.0,0.0,0.0,0.0,0.0,0.0,0.0,0.0,0.0,0.0,0.0,0.0,0.0,0.0,-2.9028,-3.0088,-3.0606,-3.0475,-3.0071,-2.953,-2.8804,-2.7164,-2.5965,0.0,0.0,0.0,0.0,0.0,0.0,0.0,0.0,0.0,0.0,0.0,0.0,0.0,0.0,0.0,0.0,0.0,0.0,0.0,0.0,0.0,0.0,0.0,0.0,0.0,0.0,0.0,0.0,0.0,0.0,0.0,0.0,0.0,0.0,0.0,0.0,0.0,0.0,0.0,0.0,0.0,-2.5383,-2.5549,-2.4116,0.0,0.0,0.0,0.0,-2.2103,-2.0927,0.0,0.0,0.0,0.0,0.0,0.0,0.0,0.0,0.0,0.0,0.0,0.0,0.0,0.0,0.0,0.0,0.0,0.0,0.0,0.0,0.0,0.0,0.0,0.0,0.0,0.0,0.0,0.0,0.0,0.0,0.0,0.0,0.0,0.0,0.0,0.0,0.0,0.0,0.0,0.0,0.0,0.0,0.0,0.0,0.0,0.0,0.0,0.0,0.0,0.0,0.0,0.0,0.0,0.0,0.0,0.0,-2.8952,-2.956,-3.0153,-3.0775,-3.0191,-2.9622,-2.9238,-2.7652,-2.627,0.0,0.0,0.0,0.0,0.0,0.0,0.0,0.0,0.0,0.0,0.0,0.0,0.0,0.0,0.0,0.0,0.0,0.0,0.0,0.0,0.0,0.0,0.0,0.0,0.0,0.0,0.0,0.0,0.0,0.0,0.0,0.0,0.0,0.0,0.0,0.0,0.0,0.0,0.0,0.0,0.0,-2.5748,-2.5101,-2.4235,-2.3556,0.0,0.0,-2.267,-2.2423,-2.1759,0.0,0.0,0.0,0.0,0.0,0.0,0.0,0.0,0.0,0.0,0.0,0.0,0.0,0.0,0.0,0.0,0.0,0.0,0.0,0.0,0.0,0.0,0.0,0.0,0.0,0.0,0.0,0.0,0.0,0.0,0.0,0.0,0.0,0.0,0.0,0.0,0.0,0.0,0.0,0.0,0.0,0.0,0.0,0.0,0.0,0.0,0.0,0.0,0.0,0.0,0.0,0.0,0.0,0.0,0.0,-2.77,-2.8781,-2.9426,-3.0127,-3.0841,-3.0009,-2.931,-2.8887,-2.7227,-2.576,0.0,0.0,0.0,0.0,0.0,0.0,0.0,0.0,0.0,0.0,0.0,0.0,0.0,0.0,0.0,0.0,0.0,0.0,0.0,0.0,0.0,0.0,0.0,0.0,0.0,0.0,0.0,0.0,0.0,0.0,0.0,0.0,0.0,0.0,0.0,0.0,0.0,0.0,0.0,0.0,0.0,0.0,-2.4599,-2.3989,0.0,0.0,0.0,-2.2664,-2.2097,0.0,0.0,0.0,0.0,0.0,0.0,0.0,0.0,0.0,0.0,0.0,0.0,0.0,0.0,0.0,0.0,0.0,0.0,0.0,0.0,0.0,0.0,0.0,0.0,0.0,0.0,0.0,0.0,0.0,0.0,0.0,0.0,0.0,0.0,0.0,0.0,0.0,0.0,0.0,0.0,0.0,0.0,0.0,0.0,0.0,0.0,0.0,0.0,0.0,0.0,0.0,0.0,0.0,0.0,0.0,0.0,0.0,-2.8734,-2.9716,-3.0489,-3.0986,-3.0072,-2.9312,-2.8756,-2.7014,0.0,0.0,0.0,0.0,0.0,0.0,0.0,0.0,0.0,0.0,0.0,0.0,0.0,0.0,0.0,0.0,0.0,0.0,0.0,0.0,0.0,0.0,0.0,0.0,0.0,0.0,0.0,-2.2005,0.0,0.0,0.0,0.0,0.0,0.0,0.0,0.0,0.0,0.0,0.0,0.0,0.0,0.0,-2.419,-2.4085,-2.3732,-2.337,0.0,0.0,-2.252,-2.1768,-2.1333,-2.0354,0.0,0.0,0.0,0.0,0.0,0.0,0.0,0.0,0.0,0.0,0.0,0.0,0.0,0.0,0.0,0.0,0.0,0.0,0.0,0.0,0.0,0.0,0.0,0.0,0.0,0.0,0.0,0.0,0.0,0.0,0.0,0.0,0.0,0.0,0.0,0.0,0.0,0.0,0.0,0.0,0.0,0.0,0.0,0.0,0.0,0.0,0.0,0.0,0.0,0.0,0.0,0.0,0.0,0.0,0.0,-2.9075,-3.0596,-3.1393,-3.1444,-3.0705,-2.9996,-2.9258,-2.7561,-2.5607,0.0,0.0,0.0,0.0,0.0,0.0,0.0,0.0,0.0,0.0,0.0,0.0,0.0,0.0,0.0,0.0,0.0,0.0,0.0,0.0,0.0,0.0,0.0,0.0,0.0,0.0,0.0,0.0,0.0,0.0,0.0,0.0,0.0,0.0,0.0,0.0,0.0,0.0,0.0,0.0,0.0,-2.3621,-2.3481,-2.3582,-2.3666,0.0,0.0,-2.2506,-2.1649,-2.158,-2.0778,-1.821,0.0,0.0,0.0,0.0,0.0,0.0,0.0,0.0,0.0,0.0,0.0,0.0,0.0,0.0,0.0,0.0,0.0,0.0,0.0,0.0,0.0,0.0,0.0,0.0,0.0,0.0,0.0,0.0,0.0,0.0,0.0,0.0,0.0,0.0,0.0,0.0,0.0,0.0,0.0,0.0,0.0,0.0,0.0,0.0,0.0,0.0,0.0,0.0,0.0,0.0,0.0,0.0,0.0,-2.8009,-2.9529,-3.0632,-3.1421,-3.1825,-3.0924,-3.0043,-2.925,-2.7895,-2.6133,0.0,0.0,0.0,0.0,0.0,0.0,0.0,0.0,0.0,0.0,0.0,0.0,0.0,0.0,0.0,0.0,0.0,0.0,0.0,0.0,0.0,0.0,0.0,0.0,0.0,0.0,0.0,0.0,-2.3748,-2.3883,-2.3967,0.0,0.0,0.0,0.0,0.0,0.0,0.0,0.0,0.0,0.0,-2.3726,-2.377,-2.3705,0.0,0.0,-2.3052,-2.2756,-2.1861,-2.1273,-2.0263,-1.8349,-1.714,0.0,0.0,0.0,0.0,0.0,0.0,0.0,0.0,0.0,0.0,0.0,0.0,0.0,0.0,0.0,0.0,0.0,0.0,0.0,0.0,0.0,0.0,0.0,0.0,0.0,0.0,0.0,0.0,0.0,0.0,0.0,0.0,0.0,0.0,0.0,0.0,0.0,0.0,0.0,0.0,0.0,0.0,0.0,0.0,0.0,0.0,0.0,0.0,0.0,0.0,0.0,0.0,-2.8273,-2.9799,-3.0922,-3.1687,-3.2085,-3.0994,-3.0088,-2.9395,-2.8179,-2.6593,0.0,0.0,0.0,0.0,0.0,0.0,0.0,0.0,0.0,0.0,0.0,0.0,0.0,0.0,0.0,0.0,0.0,0.0,0.0,0.0,0.0,0.0,0.0,0.0,0.0,0.0,0.0,0.0,-2.4412,-2.437,-2.4105,0.0,0.0,0.0,0.0,0.0,0.0,0.0,0.0,0.0,0.0,-2.4094,-2.4356,-2.4037,-2.3592,-2.2987,-2.292,-2.2648,-2.1769,-2.1162,-2.0255,-1.8489,0.0,0.0,0.0,0.0,0.0,0.0,0.0,0.0,0.0,0.0,0.0,0.0,0.0,0.0,0.0,0.0,0.0,0.0,0.0,0.0,0.0,0.0,0.0,0.0,0.0,0.0,0.0,-1.8503,0.0,0.0,-1.978,0.0,0.0,0.0,0.0,0.0,0.0,0.0,0.0,0.0,0.0,0.0,0.0,0.0,0.0,0.0,0.0,0.0,0.0,0.0,0.0,0.0,0.0,-2.8618,-2.9915,-3.1722,-3.2484,-3.2124,-3.0984,-3.0253,-2.985,-2.8356,-2.6851,-2.5402,0.0,0.0,0.0,0.0,0.0,0.0,0.0,0.0,0.0,0.0,0.0,0.0,0.0,0.0,0.0,0.0,0.0,0.0,0.0,0.0,0.0,0.0,0.0,0.0,0.0,0.0,-2.4591,-2.4536,-2.4167,0.0,0.0,0.0,0.0,0.0,0.0,0.0,0.0,0.0,0.0,-2.4414,-2.4665,-2.5186,-2.467,-2.4001,-2.3414,-2.2842,-2.2105,-2.1174,-2.1447,-2.1026,0.0,0.0,0.0,0.0,0.0,0.0,0.0,0.0,0.0,0.0,0.0,0.0,0.0,0.0,0.0,0.0,0.0,0.0,0.0,0.0,0.0,0.0,0.0,0.0,0.0,0.0,0.0,-2.2912,-2.2537,0.0,0.0,0.0,0.0,0.0,0.0,0.0,0.0,0.0,0.0,0.0,-3.0146,-3.0707,0.0,0.0,0.0,0.0,0.0,0.0,0.0,0.0,0.0,0.0,0.0,0.0,-2.9149,-3.0924,-3.2365,-3.3039,-3.2897,-3.2272,-3.1424,-3.0325,-2.9575,-2.7982,-2.5498,0.0,0.0,0.0,0.0,0.0,0.0,0.0,0.0,0.0,0.0,0.0,0.0,0.0,0.0,0.0,0.0,0.0,0.0,0.0,0.0,0.0,0.0,0.0,0.0,0.0,-2.5235,0.0,0.0,0.0,0.0,0.0,0.0,0.0,0.0,0.0,0.0,0.0,-2.464,-2.5374,-2.5505,-2.5482,-2.539,-2.5273,-2.5063,0.0,0.0,0.0,0.0,0.0,0.0,0.0,0.0,0.0,0.0,0.0,0.0,0.0,0.0,-1.5517,-1.4027,-1.3034,-1.2114,-1.1085,0.0,0.0,0.0,0.0,0.0,0.0,0.0,0.0,0.0,0.0,0.0,0.0,0.0,0.0,-2.6274,0.0,-2.6162,0.0,0.0,0.0,0.0,0.0,0.0,0.0,0.0,-3.1224,-3.1907,-3.1951,-3.2311,-3.1818,0.0,-3.0621,-2.9144,0.0,0.0,0.0,0.0,0.0,0.0,0.0,0.0,-2.9526,-3.1096,-3.2547,-3.3143,-3.2828,-3.2473,-3.1831,-3.0877,-3.0378,-2.8899,-2.6296,-2.5475,-2.4614,0.0,0.0,0.0,0.0,0.0,0.0,0.0,0.0,0.0,0.0,0.0,0.0,0.0,0.0,0.0,0.0,0.0,0.0,0.0,0.0,0.0,0.0,0.0,-2.5732,0.0,0.0,0.0,0.0,0.0,0.0,0.0,0.0,0.0,-2.6523,-2.6229,-2.6146,-2.6338,-2.6345,-2.6159,-2.594,0.0,0.0,0.0,0.0,0.0,0.0,0.0,-2.1541,-2.1484,-2.0193,-1.9134,-1.9035,-1.8563,-1.8035,-1.7545,0.0,0.0,-1.5017,-1.3912,-1.2919,-1.2087,-1.168,-1.1092,-0.9951,-0.9772,-0.9588,0.0,0.0,0.0,0.0,0.0,0.0,0.0,0.0,-2.9359,-2.9365,0.0,-2.8997,0.0,0.0,0.0,0.0,0.0,-3.0981,0.0,0.0,-3.3122,-3.356,-3.3018,-3.2817,-3.2577,-3.2395,-3.2777,-3.1868,-2.9659,-2.7387,0.0,0.0,0.0,0.0,0.0,0.0,-2.976,-3.0513,-3.2321,-3.2879,-3.2093,-3.1746,-3.1548,-3.1478,-3.0818,-2.9593,-2.7886,-2.7652,-2.6659,-2.4617,-2.3764,0.0,0.0,0.0,0.0,0.0,0.0,0.0,0.0,0.0,0.0,0.0,0.0,0.0,0.0,0.0,0.0,0.0,0.0,0.0,0.0,-2.6525,0.0,0.0,0.0,0.0,0.0,0.0,0.0,0.0,0.0,0.0,-2.6466,-2.6944,-2.7393,-2.7003,0.0,0.0,0.0,0.0,-2.5477,-2.464,-2.4205,-2.3763,-2.31,-2.3324,-2.3098,-2.1839,0.0,0.0,-1.9661,-1.9106,-1.8709,-1.82,-1.7588,-1.7117,-1.6742,-1.527,-1.4075,-1.3762,-1.3012,-1.2307,-1.1576,-1.1393,-1.1204,-3.5699,0.0,0.0,0.0,0.0,-3.3818,-3.4698,-3.645,-3.4925,-3.3975,-3.3379,-3.2534,0.0,0.0,0.0,0.0,0.0,0.0,-3.2074,-3.2339,-3.3085,-3.3561,-3.3861,-3.3994,-3.3822,-3.338,-3.3613,-3.3138,-3.1967,-3.0307,-2.8043,-2.53,0.0,0.0,0.0,0.0,-2.9806,-3.1115,-3.1989,-3.2418,-3.2439,-3.2605,-3.2459,-3.1965,-3.1207,-3.0413,-2.9584,-2.881,-2.7979,-2.7083,-2.5203,0.0,0.0,0.0,0.0,0.0,0.0,0.0,0.0,0.0,0.0,0.0,0.0,0.0,0.0,0.0,0.0,0.0,0.0,0.0,-2.688,-2.7136,-2.7227,0.0,0.0,0.0,0.0,0.0,0.0,0.0,0.0,0.0,-2.827,-2.8411,-2.8486,0.0,0.0,-2.7416,-2.7018,-2.7051,-2.6912,-2.6327,0.0,0.0,0.0,-2.4004,-2.3572,-2.3828,-2.3261,-2.2149,-2.0107,-1.9635,-1.9208,-1.8321,-1.7622,-1.7141,-1.7032,-1.5883,-1.4673,-1.3854,-1.3463,-1.3108,-1.2594,-1.2219,-1.1908,-3.8626,-3.6303,-3.5899,-3.6373,-3.7348,-3.6496,-3.7071,-3.8545,-3.7081,-3.6279,-3.5956,-3.518,-3.3802,-3.2083,-3.1653,0.0,0.0,0.0,-3.2868,-3.3114,-3.3147,-3.3472,-3.3881,-3.379,-3.3703,-3.3576,-3.3531,-3.3233,-3.2714,-3.1738,-2.9942,-2.7489,0.0,0.0,-2.778,-2.875,-2.9945,-3.1214,-3.1435,-3.1725,-3.2108,-3.2664,-3.2754,-3.2291,-3.1851,-3.128,-3.0574,-2.9874,-2.9148,-2.8357,-2.6494,-2.4577,0.0,0.0,0.0,0.0,0.0,0.0,0.0,0.0,0.0,0.0,0.0,-2.3855,0.0,0.0,0.0,0.0,-2.5856,-2.6565,-2.7279,-2.7805,0.0,0.0,0.0,0.0,0.0,0.0,0.0,-2.9628,-3.0485,-3.0789,-2.9962,-2.9849,-2.9517,-2.8665,-2.8303,-2.7971,-2.7554,0.0,-2.7397,-2.6818,-2.6405,-2.5909,-2.5326,-2.4519,-2.4023,-2.4182,-2.3088,-2.1923,-2.085,-1.9938,-1.9256,-1.8773,-1.7947,-1.725,-1.7234,-1.6362,-1.5528,-1.474,-1.438,-1.41,-1.3553,-1.3097,-1.2674,-4.0166,-3.9734,-3.8731,-3.8592,-3.891,-3.8306,-3.7709,-3.7114,-3.68,-3.687,-3.7148,-3.6902,-3.6267,-3.5376,-3.4357,0.0,-3.3651,-3.3858,-3.3903,-3.3814,-3.3381,-3.3294,-3.3411,-3.2857,-3.2785,-3.3151,-3.2958,-3.2628,-3.228,-3.2039,-3.1408,-3.0396,-2.9446,-2.9039,-2.9193,-2.9488,-3.0048,-3.0811,-3.0745,-3.0917,-3.1379,-3.2113,-3.2479,-3.2424,-3.2408,-3.1902,-3.0849,-3.0637,-2.9988,-2.8816,-2.7615,-2.6058,-2.4135,0.0,0.0,0.0,0.0,0.0,0.0,0.0,0.0,0.0,0.0,0.0,0.0,0.0,0.0,0.0,-2.6553,0.0,-2.777,-2.8567,0.0,0.0,0.0,-2.9734,-3.024,-3.0679,-3.0839,-3.0649,0.0,0.0,-3.1447,-3.1135,-3.0425,-2.8934,-2.865,-2.8499,-2.8318,-2.7831,-2.7225,-2.6591,-2.6172,-2.5703,-2.4995,-2.4709,-2.4309,-2.3517,-2.2087,-2.1355,-2.1235,-2.0149,-1.9325,-1.9418,-1.8458,-1.7484,-1.7358,-1.7034,-1.6589,-1.628,-1.5733,-1.5168,-1.4596,-1.4042,-1.356,-4.0733,-4.0857,-3.9952,-3.9883,-4.0243,-3.9764,-3.9414,-3.9178,-3.7914,-3.7486,-3.7635,-3.6256,-3.5375,-3.4864,-3.4617,-3.4348,-3.4046,-3.4102,-3.3851,-3.3351,-3.3246,-3.313,-3.2984,-3.3174,-3.3048,-3.2697,-3.2956,-3.2784,-3.2258,-3.2233,-3.1935,-3.1457,-3.1242,-3.0495,-2.9178,-2.9159,-2.9518,-3.0277,-2.9982,-3.0338,-3.1379,-3.1353,-3.1323,-3.1285,-3.105,-3.0626,-3.0021,-2.9602,-2.942,-2.9334,-2.7601,-2.6522,-2.6317,-2.33,0.0,0.0,0.0,0.0,0.0,0.0,0.0,0.0,0.0,-2.5534,-2.4369,0.0,-2.6705,0.0,-2.7966,-2.8851,-2.9083,-2.969,0.0,0.0,-3.0835,-3.0952,-3.1985,-3.1805,-3.1669,-3.1645,-3.197,-3.2084,-3.1738,-3.1277,-3.0752,-3.0218,-2.9579,-2.9152,-2.9115,-2.8638,-2.8066,-2.7336,-2.6767,-2.6102,-2.4943,-2.4428,-2.3924,-2.3314,-2.279,-2.2096,-2.0991,-2.0341,-1.9725,-1.9115,-1.8694,-1.8383,-1.8335,-1.8248,-1.8113,-1.785,-1.6911,-1.5941,-1.5761,-1.5084,-1.4495,-4.0321,-4.0299,-3.981,-3.9862,-4.029,-3.9532,-3.9293,-3.9266,-3.7563,-3.6923,-3.7101,-3.5952,-3.5264,-3.5037,-3.5023,-3.4706,-3.4212,-3.4066,-3.3684,-3.3187,-3.2909,-3.2793,-3.2793,-3.263,-3.2391,-3.2212,-3.2354,-3.2199,-3.1684,-3.1959,-3.19,-3.1557,-3.1606,-3.104,-2.9905,-2.977,-3.0096,-3.0862,-3.043,-3.055,-3.1253,-3.1153,-3.1022,-3.091,-3.0585,-3.0193,-2.9764,-2.9434,-2.9238,-2.916,-2.7894,-2.7039,-2.6696,-2.4417,-2.3081,0.0,0.0,0.0,0.0,0.0,0.0,0.0,0.0,0.0,0.0,0.0,-2.7699,-2.784,-2.8847,-2.9615,-2.9936,-3.0496,-3.1169,-3.1986,-3.16,-3.1665,-3.268,-3.232,-3.2123,-3.2412,-3.2527,-3.2448,-3.2171,-3.1718,-3.1214,-3.0813,-2.9952,-2.9322,-2.9057,-2.8774,-2.827,-2.7392,-2.6726,-2.5885,-2.4577,-2.3766,-2.317,-2.2867,-2.2266,-2.1514,-2.0681,-2.0193,-1.968,-1.9152,-1.8864,-1.8728,-1.8728,-1.8728,-1.8688,-1.8479,-1.7915,-1.7219,-1.6712,-1.5838,-1.5104,-3.9453,-3.9114,-3.9023,-3.9318,-3.9719,-3.8552,-3.8295,-3.8531,-3.663,-3.587,-3.5999,-3.5613,-3.5427,-3.5288,-3.5275,-3.4879,-3.4197,-3.3786,-3.3464,-3.3172,-3.2573,-3.2441,-3.2705,-3.1798,-3.1505,-3.1738,-3.1574,-3.1294,-3.1007,-3.1588,-3.1664,-3.1338,-3.1394,-3.1277,-3.1012,-3.0761,-3.0935,-3.1631,-3.1192,-3.0984,-3.1026,-3.1128,-3.0978,-3.0624,-3.0361,-3.0018,-2.9605,-2.9504,-2.9268,-2.8805,-2.8305,-2.7561,-2.6575,-2.5512,-2.4924,0.0,-2.4255,0.0,0.0,0.0,0.0,0.0,0.0,0.0,0.0,-2.8153,-2.8772,-2.9142,-2.9599,-3.008,-3.0596,-3.102,-3.1524,-3.2191,-3.1988,-3.2015,-3.2688,-3.246,-3.2412,-3.2982,-3.3013,-3.2984,-3.2723,-3.2159,-3.1617,-3.1151,-3.0115,-2.9252,-2.8737,-2.8556,-2.8085,-2.7037,-2.6041,-2.4841,-2.3904,-2.2877,-2.2191,-2.2084,-2.1387,-2.0588,-2.0588,-2.0021,-1.9564,-1.9524,-1.9155,-1.8809,-1.8793,-1.8753,-1.8705,-1.8753,-1.8616,-1.8224,-1.7514,-1.6604,-1.5829,-3.8689,-3.9018,-3.855,-3.8835,-3.9672,-3.809,-3.773,-3.8196,-3.6528,-3.5316,-3.4548,-3.4578,-3.47,-3.4821,-3.4556,-3.4363,-3.4183,-3.3552,-3.326,-3.3172,-3.2573,-3.2324,-3.2339,-3.1915,-3.1593,-3.1402,-3.1355,-3.1177,-3.0854,-3.1718,-3.193,-3.1538,-3.1982,-3.2166,-3.2063,0.0,0.0,0.0,-3.0349,-3.0146,-3.0229,-3.0273,-2.9908,-2.9076,-2.9276,0.0,-2.8404,-2.8705,-2.9042,-2.9149,-2.8633,0.0,0.0,0.0,0.0,0.0,0.0,0.0,0.0,0.0,0.0,0.0,-2.7891,-2.8221,-2.7904,-2.9329,-3.0425,-3.0609,-3.1034,-3.135,-3.147,-3.1571,-3.1657,-3.1806,-3.1925,-3.2086,-3.2262,-3.2567,-3.2866,-3.2959,-3.3173,-3.3297,-3.32,-3.241,-3.1769,-3.1517,-3.0341,-2.9252,-2.8652,-2.8212,-2.756,-2.6532,-2.4601,-2.3101,-2.2739,-2.1799,-2.1161,-2.1063,-2.0947,-2.0715,-2.0608,-2.0247,-1.9928,-1.987,-1.9503,-1.9151,-1.9151,-1.8856,-1.8684,-1.9101,-1.8695,-1.8286,-1.8247,-1.775,-1.7162,-3.7782,0.0,-3.7486,-3.7794,0.0,-3.7573,-3.7235,-3.7199,-3.5641,-3.454,-3.3863,-3.3934,-3.4192,-3.4461,-3.43,-3.4036,-3.3684,-3.3348,-3.3114,-3.2983,-3.2339,-3.2134,-3.2266,-3.1622,-3.1315,-3.13,-3.1154,-3.0905,-3.0639,-3.1257,-3.1558,-3.1411,-3.1869,-3.2134,-3.2134,-3.1289,-3.07,-3.048,-3.0179,-3.0106,-3.0148,-2.9768,-2.9301,-2.8669,0.0,0.0,0.0,0.0,0.0,0.0,0.0,0.0,0.0,0.0,0.0,-2.6893,-2.6465,-2.6312,-2.6478,-2.6851,-2.753,-2.8544,-2.9385,-2.9726,-2.9367,-3.0362,-3.1102,-3.1334,-3.1551,-3.1724,-3.1724,-3.1724,-3.1778,-3.1912,-3.2011,-3.2211,-3.2505,-3.2799,-3.304,-3.3173,-3.332,-3.3414,-3.3414,-3.2461,-3.1718,-3.1365,-2.9999,-2.8728,-2.7911,-2.7542,-2.6807,-2.504,-2.3759,-2.2475,-2.1698,-2.0973,-2.0382,-2.0382,-2.0235,-2.0095,-2.0046,-1.9849,-1.9651,-1.9651,-1.9454,-1.9314,-1.9256,-1.8861,-1.8605,-1.8746,-1.8395,-1.7961,-1.7998,-1.7873,-1.7667,-3.6875,-3.6597,-3.648,-3.6713,-3.7165,-3.695,-3.6448,-3.5691,0.0,0.0,0.0,-3.337,-3.3568,-3.3935,-3.3819,-3.347,-3.2977,-3.2846,-3.2717,-3.2573,-3.1887,-3.177,-3.2061,-3.1185,-3.0964,-3.1198,-3.0907,-3.0685,-3.0478,-3.0844,-3.1072,-3.1178,-3.152,-3.1684,-3.1559,-3.113,-3.0675,-3.0229,-3.0199,-3.0159,-3.0098,-2.9487,-2.8996,-2.8569,-2.8398,-2.8283,-2.8289,-2.8569,-2.861,-2.8426,-2.8647,-2.866,-2.8534,-2.849,-2.8353,-2.8086,-2.8213,-2.8206,-2.8072,-2.7877,-2.8366,-2.9665,-3.0488,-3.0897,-3.0936,-3.1209,-3.1476,-3.173,-3.1791,-3.1744,-3.1744,-3.1791,-3.1837,-3.2078,-3.2198,-3.2465,-3.2906,-3.3026,-3.316,-3.336,-3.34,-3.3364,-3.3213,-3.241,-3.1567,-3.0809,-2.9593,-2.8065,-2.6918,-2.6312,-2.5451,-2.3709,-2.2819,-2.2127,-2.1077,-2.0354,-1.999,-1.9974,-1.9668,-1.9453,-1.9494,-1.942,-1.9354,-1.9569,-1.9388,-1.9314,-1.9256,-1.8861,-1.8507,-1.8507,-1.8061,-1.7635,-1.7535,-1.77,-1.7746,-3.632,-3.6553,-3.5997,-3.6297,-3.7119,-3.583,-3.4626,-3.3528,-3.369,-3.3475,-3.2976,-3.2453,-3.2473,-3.2905,-3.2383,-3.2101,-3.1989,-3.1453,-3.1419,-3.1713,-3.1081,-3.1021,-3.1432,-3.1022,-3.0846,-3.0834,-3.0805,-3.0803,-3.0771,-3.0918,-3.0999,-3.1057,-3.1278,-3.1066,-3.0383,-3.0242,-2.9948,-2.9569,-2.9982,-2.9934,-2.9346,-2.9465,-2.9062,-2.8199,-2.8726,-2.8871,-2.8561,-2.8959,-2.9314,-2.9551,-2.9653,-2.9582,-2.9333,-2.9168,-2.8871,-2.8398,-2.7985,-2.7826,-2.7854,-2.7834,-2.844,-2.9858,-3.0544,-3.1054,-3.157,-3.181,-3.1998,-3.2038,-3.2024,-3.2038,-3.2038,-3.2038,-3.2051,-3.2144,-3.2559,-3.2893,-3.2986,-3.32,-3.3347,-3.34,-3.3414,-3.3213,-3.2812,-3.2159,-3.1365,-3.0392,-2.9084,-2.782,-2.5984,-2.4509,-2.3779,-2.3123,-2.1917,-2.0992,-2.0595,-2.0166,-1.988,-1.9812,-1.9796,-1.9822,-2.0175,-1.9816,-1.9634,-2.0033,-1.9618,-1.933,-1.9314,-1.8861,-1.8556,-1.8457,-1.8012,-1.765,-1.7514,-1.7632,-1.7636,-3.5375,-3.5221,-3.4907,-3.5216,-3.5752,-3.4647,-3.3746,-3.2997,-3.2655,-3.2653,-3.275,-3.2334,-3.2278,-3.2421,-3.1987,-3.1693,-3.1511,-3.1121,-3.0999,-3.1175,-3.0809,-3.0595,-3.0609,-3.0727,-3.0707,-3.0499,-3.0707,-3.0776,-3.0788,-3.0701,-3.0784,-3.0984,-3.0968,-3.0597,-2.9841,-2.9931,-2.9779,-2.9437,-2.9766,-2.9654,-2.911,-2.9117,-2.8814,-2.8126,-2.8235,-2.8194,-2.8002,-2.8539,-2.8856,-2.9047,-2.9614,-2.986,-2.9726,-2.9386,-2.8957,-2.8474,-2.7965,-2.7701,-2.7775,-2.8372,-2.8973,-2.9638,-3.0188,-3.057,-3.0795,-3.1596,-3.2038,-3.1891,-3.1998,-3.2104,-3.2104,-3.2104,-3.2225,-3.2545,-3.2826,-3.304,-3.3187,-3.332,-3.34,-3.3364,-3.3113,-3.2862,-3.2662,-3.187,-3.0961,-2.9834,-2.8167,-2.6426,-2.5398,-2.4023,-2.289,-2.2431,-2.1718,-2.0969,-2.0316,-1.9987,-1.9843,-1.9792,-1.9792,-1.9894,-2.0139,-1.9804,-1.9781,-1.9833,-1.9593,-1.9411,-1.9289,-1.8861,-1.8457,-1.8061,-1.7665,-1.7218,-1.6977,-1.7027,-1.7239,-3.4296,-3.3921,-3.3996,-3.4183,-3.4429,-3.3828,-3.3326,-3.2904,-3.2081,-3.2006,-3.2403,-3.207,-3.1881,-3.1853,-3.1502,-3.1197,-3.0906,-3.0602,-3.0509,-3.0514,-3.0311,-3.0057,-2.9944,-3.0432,-3.0499,-3.0263,-3.0624,-3.0746,-3.0685,-3.0434,-3.0403,-3.063,-3.0429,-3.0052,-2.9538,-2.966,-2.9636,-2.9429,-2.9722,-2.9662,-2.9157,-2.8952,-2.8642,-2.8361,-2.7981,-2.7767,-2.7761,-2.8147,-2.8404,-2.8496,-2.9188,-2.9554,-2.9554,-2.924,-2.8835,-2.8339,-2.7982,-2.7833,-2.7953,-2.8723,-2.9292,-2.9375,-2.9758,-3.001,-3.0242,-3.1207,-3.1763,-3.1593,-3.1885,-3.2133,-3.211,-3.2106,-3.2346,-3.2919,-3.2941,-3.3024,-3.3324,-3.3314,-3.3213,-3.3163,-3.2762,-3.236,-3.2008,-3.1365,-3.0354,-2.8982,-2.6837,-2.5398,-2.5141,-2.3945,-2.2794,-2.2224,-2.1895,-2.1465,-2.0441,-2.0229,-2.0186,-2.011,-2.0024,-1.999,-1.9981,-1.9949,-1.9776,-1.9688,-1.9582,-1.9435,-1.9297,-1.9009,-1.8556,-1.8118,-1.7566,-1.697,-1.6374,-1.6474,-1.6765,-3.307,-3.3359,-3.3553,-3.3728,-3.3769,-3.3696,-3.3346,-3.2806,-3.2486,-3.2164,-3.1816,-3.094,-3.0576,-3.0536,-3.0267,-2.9927,-2.9689,-2.9293,-2.9285,-2.9414,-2.91,-2.9159,-2.9537,-3.0054,-3.0221,-3.0221,-3.0624,-3.0685,-3.0448,-3.0111,-2.9817,-2.96,-2.9232,-2.9256,-2.9422,-2.9203,-2.9178,-2.9505,-3.0107,-3.0178,-2.9665,-2.9202,-2.8908,-2.874,-2.8697,-2.8622,-2.8438,-2.8382,-2.8439,-2.8713,-2.8642,-2.8655,-2.8655,-2.861,-2.8339,-2.7842,-2.7962,-2.8116,-2.816,-2.8451,-2.8896,-2.9328,-2.9436,-2.9727,-3.0303,-3.0825,-3.1066,-3.1094,-3.1695,-3.2087,-3.2115,-3.2132,-3.2386,-3.2901,-3.2815,-3.2836,-3.32,-3.2963,-3.2662,-3.2662,-3.2159,-3.1504,-3.0746,-3.0341,-2.9631,-2.8269,-2.6529,-2.5295,-2.5192,-2.4284,-2.3418,-2.2971,-2.2447,-2.202,-2.1665,-2.1354,-2.1026,-2.0982,-2.0575,-2.0283,-2.019,-2.0109,-1.9979,-1.98,-1.963,-1.9484,-1.9337,-1.9207,-1.9009,-1.8454,-1.7901,-1.729,-1.6431,-1.6196,-1.6402,-3.267,-3.2832,-3.2886,-3.292,-3.2966,-3.2999,-3.2817,-3.2427,-3.1513,-3.1215,-3.1112,-2.9998,-2.9795,-3.0314,-2.9604,-2.918,-2.9048,-2.8543,-2.841,-2.8492,-2.8665,-2.8782,-2.8824,-2.9747,-3.0095,-2.9872,-3.0499,-3.0656,-3.0346,-2.9862,-2.9458,-2.9178,-2.8964,-2.8964,-2.9134,-2.9212,-2.9418,-2.9822,-3.0587,-3.0901,-3.0784,-3.0325,-2.9816,-2.9188,-2.8684,-2.8359,-2.8294,-2.8145,-2.7996,-2.7921,-2.8377,-2.8546,-2.8278,-2.8103,-2.7995,-2.7942,-2.8189,-2.8344,-2.8378,-2.8648,-2.8833,-2.8932,-2.9055,-2.9189,-2.9153,-2.9836,-3.0218,-3.0203,-3.1045,-3.1731,-3.1734,-3.2001,-3.2359,-3.2715,-3.2947,-3.3013,-3.2912,-3.2712,-3.2511,-3.2109,-3.1403,-3.0746,-3.0189,-2.9377,-2.8563,-2.7707,-2.6375,-2.5357,-2.5244,-2.4475,-2.3861,-2.3684,-2.345,-2.3066,-2.2512,-2.1802,-2.1436,-2.1253,-2.0751,-2.032,-2.0312,-2.0279,-2.0158,-2.003,-1.98,-1.9613,-1.9451,-1.9329,-1.9132,-1.865,-1.7961,-1.7257,-1.6492,-1.6273,-1.6275,-3.2009,-3.2257,-3.2348,-3.2441,-3.2611,-3.2425,-3.2364,-3.2193,-3.1057,-3.0706,-3.0722,-2.9555,-2.9366,-2.9782,-2.8992,-2.8593,-2.8406,-2.8082,-2.7865,-2.7859,-2.837,-2.8487,-2.8361,-2.9286,-2.9621,-2.9467,-2.9981,-3.0151,-2.9787,-2.9345,-2.8962,-2.8759,-2.8847,-2.8886,-2.8925,-2.929,-2.9682,-3.0079,-3.0952,-3.1465,-3.1437,-3.1272,-3.0749,-2.99,-2.923,-2.8768,-2.8473,-2.846,-2.8231,-2.7762,-2.8403,-2.8537,-2.8048,-2.7808,-2.7818,-2.8102,-2.8437,-2.8728,-2.8822,-2.8976,-2.8974,-2.8848,-2.8862,-2.875,-2.8685,-2.919,-2.9581,-2.9782,-3.0503,-3.1102,-3.1462,-3.1662,-3.2003,-3.2334,-3.2662,-3.2611,-3.241,-3.2259,-3.1907,-3.1403,-3.0544,-2.9834,-2.9428,-2.8422,-2.7553,-2.7349,-2.6325,-2.5346,-2.5201,-2.4644,-2.405,-2.4112,-2.422,-2.3977,-2.3142,-2.2275,-2.1827,-2.1504,-2.1019,-2.032,-2.0268,-2.032,-2.0263,-2.0095,-1.993,-1.9768,-1.954,-1.9353,-1.9213,-1.8698,-1.8095,-1.7421,-1.6814,-1.6513,-1.6091,-3.064,-3.1692,-3.2146,-3.245,-3.2882,-3.2282,-3.2118,-3.2208,-3.1684,-3.1262,-3.0783,-2.9937,-2.935,-2.8848,-2.8353,-2.7946,-2.771,-2.7806,-2.7705,-2.7539,-2.8037,-2.8234,-2.8234,-2.8655,-2.8866,-2.8922,-2.9174,-2.8986,-2.8354,-2.8332,-2.8343,-2.8368,-2.8705,-2.8886,-2.8964,-2.9329,-2.9694,-3.0173,-3.118,-3.1591,-3.1299,-3.1797,-3.1636,-3.0805,-3.0651,-3.0192,-2.9593,-2.9691,-2.9499,-2.8948,-2.8833,-2.8456,-2.7845,-2.7727,-2.7876,-2.8136,-2.8691,-2.9165,-2.9507,-2.9485,-2.9386,-2.9269,-2.8777,-2.8577,-2.9098,-2.921,-2.946,-3.0091,-3.018,-3.0623,-3.1152,-3.1227,-3.1365,-3.1756,-3.1466,-3.1466,-3.1819,-3.1466,-3.086,-3.0341,-2.9745,-2.9033,-2.8116,-2.7349,-2.7063,-2.6901,-2.6203,-2.559,-2.5302,-2.4747,-2.4432,-2.4349,-2.4453,-2.4495,-2.4146,-2.2972,-2.2328,-2.1951,-2.1235,-2.032,-2.0268,-2.0304,-2.0214,-2.0185,-2.0104,-1.989,-1.963,-1.9366,-1.9173,-1.8815,-1.8432,-1.7814,-1.6963,-1.657,-1.6142,-2.9761,-3.0252,-3.0955,-3.1222,-3.1052,-3.1542,-3.1669,-3.1498,-3.1153,-3.0723,-3.0165,-2.9338,-2.8768,-2.8434,-2.7466,-2.7034,-2.6952,-2.7118,-2.714,-2.7135,-2.7854,-2.8192,-2.8221,-2.8613,-2.8824,-2.8825,-2.9007,-2.8752,-2.8123,-2.7945,-2.8001,-2.8275,-2.8431,-2.8627,-2.8964,-2.9547,-2.9935,-3.0244,-3.1472,-3.1974,-3.1613,-3.1987,-3.1975,-3.1571,-3.1059,-3.0665,-3.0373,-3.0432,-3.0127,-2.9364,-2.9603,-2.9262,-2.8276,-2.8359,-2.8554,-2.8847,-2.9333,-2.97,-2.9865,-3.0016,-2.9867,-2.9436,-2.9457,-2.9235,-2.9057,-2.9403,-2.9751,-2.9784,-3.0011,-3.0356,-3.0572,-3.081,-3.1062,-3.1264,-3.1416,-3.1365,-3.1315,-3.1113,-3.0657,-2.9796,-2.8931,-2.8065,-2.7462,-2.7052,-2.6963,-2.704,-2.6566,-2.6109,-2.5761,-2.5305,-2.4894,-2.4602,-2.4636,-2.475,-2.4693,-2.3402,-2.2442,-2.2046,-2.146,-2.0647,-2.032,-2.032,-2.0247,-2.0223,-2.0158,-2.0104,-1.9808,-1.9691,-1.9421,-1.8663,-1.8333,-1.7865,-1.703,-1.6558,-1.6094,-2.9429,-2.9466,-3.0167,-3.0318,-3.0169,-3.1005,-3.128,-3.1095,-3.0908,-3.0552,-3.0014,-2.9194,-2.8676,-2.8273,-2.7289,-2.6745,-2.6677,-2.6744,-2.6783,-2.6868,-2.7757,-2.8192,-2.8234,-2.8487,-2.8475,-2.8242,-2.818,-2.7879,-2.7426,-2.739,-2.7569,-2.7858,-2.8118,-2.8503,-2.8954,-2.979,-3.0343,-3.0698,-3.1849,-3.2387,-3.2024,-3.2114,-3.2119,-3.1942,-3.1473,-3.1187,-3.1187,-3.1312,-3.112,-3.0578,-3.0823,-3.0446,-2.9264,-2.9067,-2.917,-2.9358,-2.9827,-3.0246,-3.0365,-3.0554,-3.0389,-2.9949,-2.9942,-2.9702,-2.9231,-2.9727,-2.9879,-2.9823,-3.0151,-3.0416,-3.0366,-3.0657,-3.091,-3.0809,-3.1062,-3.1163,-3.0771,-3.0556,-2.9948,-2.8982,-2.8065,-2.74,-2.7001,-2.6899,-2.7006,-2.7262,-2.689,-2.6493,-2.6058,-2.5735,-2.5292,-2.4779,-2.475,-2.4844,-2.4705,-2.3716,-2.3027,-2.261,-2.1689,-2.0908,-2.0476,-2.0424,-2.0312,-2.0296,-2.0239,-2.015,-2.0093,-1.9914,-1.9328,-1.8517,-1.8093,-1.7739,-1.7044,-1.6473,-1.5962,-2.9611,-2.9382,-2.981,-3.0018,-3.0122,-3.0621,-3.0947,-3.1009,-3.112,-3.0834,-3.0368,-2.9733,-2.9059,-2.8513,-2.7689,-2.7177,-2.6906,-2.6897,-2.6897,-2.6965,-2.7799,-2.8221,-2.8192,-2.8192,-2.7808,-2.7168,-2.6551,-2.6186,-2.603,-2.6637,-2.6978,-2.7189,-2.7925,-2.8461,-2.8827,-2.9977,-3.0816,-3.121,-3.2192,-3.2638,-3.2336,-3.2155,-3.2077,-3.1987,-3.1933,-3.1906,-3.199,-3.2353,-3.239,-3.2278,-3.2282,-3.183,-3.0582,-2.9986,-2.9645,-2.971,-3.018,-3.0668,-3.1049,-3.0991,-3.0925,-3.0682,-3.0179,-3.0019,-3.0107,-3.0006,-3.0022,-3.0267,-3.0607,-3.0771,-3.0416,-3.072,-3.0822,-3.0315,-3.0366,-3.0366,-3.0214,-2.9745,-2.9033,-2.8167,-2.7502,-2.7001,-2.695,-2.7104,-2.7263,-2.7357,-2.7185,-2.6818,-2.6339,-2.6045,-2.5517,-2.4963,-2.4813,-2.4873,-2.4568,-2.4121,-2.3741,-2.3247,-2.21,-2.1145,-2.0893,-2.0789,-2.0476,-2.0356,-2.0095,-2.0015,-1.9767,-1.9589,-1.9145,-1.8475,-1.8078,-1.7467,-1.6762,-1.611,-1.5688,-2.8714,-2.837,-2.8989,-2.9015,-2.8878,-2.9677,-3.0161,-3.0283,-3.0493,-3.0448,-3.0209,-2.9563,-2.9049,-2.8543,-2.7654,-2.7207,-2.7279,-2.7362,-2.7362,-2.7435,-2.8179,-2.8418,-2.8165,-2.7841,-2.7226,-2.644,-2.5972,-2.5799,-2.5845,-2.607,-2.6426,-2.7059,-2.7778,-2.8369,-2.8856,-2.9962,-3.0635,-3.0781,-3.1568,-3.1818,-3.1497,-3.1621,-3.1813,-3.196,-3.1902,-3.2106,-3.2686,-3.2856,-3.2959,-3.2953,-3.2822,-3.2222,-3.1287,-3.0813,-3.0464,-3.0225,-3.067,-3.1049,-3.1169,-3.1348,-3.1297,-3.1042,-3.096,-3.095,-3.0772,-3.0665,-3.0636,-3.0759,-3.091,-3.0923,-3.0809,-3.086,-3.0783,-3.0264,-3.0214,-3.0214,-3.0061,-2.9401,-2.8982,-2.8829,-2.8116,-2.7758,-2.7974,-2.8036,-2.7976,-2.803,-2.7974,-2.7672,-2.7097,-2.6606,-2.6132,-2.5575,-2.5317,-2.4936,-2.466,-2.4364,-2.4024,-2.3582,-2.2581,-2.1726,-2.1457,-2.0997,-2.0737,-2.0372,-2.0059,-1.9803,-1.9565,-1.9133,-1.8764,-1.8203,-1.7653,-1.6997,-1.6256,-1.5738,-1.5289,-2.821,-2.7881,-2.8482,-2.8429,-2.8162,-2.9132,-2.9499,-2.955,-2.9704,-2.9728,-2.9489,-2.8949,-2.8662,-2.8467,-2.7724,-2.7539,-2.7788,-2.8068,-2.8082,-2.7881,-2.819,-2.8329,-2.7982,-2.7286,-2.6671,-2.6023,-2.5526,-2.541,-2.5527,-2.5753,-2.6149,-2.6796,-2.7518,-2.8179,-2.8802,-2.9972,-3.0725,-3.1063,-3.1684,-3.1857,-3.1625,-3.152,-3.1714,-3.2071,-3.1845,-3.2109,-3.2903,-3.2905,-3.2963,-3.3254,-3.3299,-3.2852,-3.2092,-3.1881,-3.156,-3.1188,-3.1274,-3.1497,-3.143,-3.157,-3.1635,-3.1447,-3.1495,-3.1565,-3.1379,-3.1164,-3.0875,-3.0999,-3.1214,-3.1264,-3.1199,-3.1363,-3.1211,-3.0766,-3.0376,-3.0124,-2.9858,-2.935,-2.9001,-2.9024,-2.8541,-2.8439,-2.8587,-2.8632,-2.8598,-2.8525,-2.8501,-2.8245,-2.7652,-2.7205,-2.663,-2.6088,-2.5599,-2.5199,-2.4908,-2.4617,-2.4306,-2.3791,-2.3114,-2.2481,-2.2029,-2.1414,-2.0945,-2.0476,-2.0111,-1.9851,-1.9584,-1.8989,-1.8499,-1.7835,-1.7281,-1.6564,-1.5918,-1.534,-1.4844,-2.8005,-2.7832,-2.8223,-2.8239,-2.8086,-2.8901,-2.9068,-2.8867,-2.898,-2.8934,-2.8615,-2.8219,-2.814,-2.8263,-2.7948,-2.7879,-2.8271,-2.8727,-2.871,-2.8304,-2.8167,-2.7948,-2.7607,-2.6648,-2.6115,-2.5808,-2.5188,-2.5032,-2.5322,-2.5566,-2.6017,-2.6573,-2.7308,-2.7863,-2.8723,-3.0015,-3.0932,-3.1502,-3.2011,-3.2194,-3.2266,-3.1718,-3.1786,-3.238,-3.1796,-3.1822,-3.2536,-3.2411,-3.2658,-3.3444,-3.3678,-3.3531,-3.3215,-3.3055,-3.2637,-3.2027,-3.2063,-3.196,-3.1833,-3.1792,-3.1784,-3.1845,-3.1579,-3.1533,-3.178,-3.1214,-3.0876,-3.1151,-3.1554,-3.1756,-3.1755,-3.2034,-3.1983,-3.1486,-3.0715,-3.0023,-2.9542,-2.944,-2.933,-2.9186,-2.8911,-2.878,-2.9038,-2.89,-2.8728,-2.8458,-2.8468,-2.8183,-2.777,-2.738,-2.6935,-2.6457,-2.6023,-2.5531,-2.5221,-2.4864,-2.4514,-2.3955,-2.341,-2.2959,-2.2392,-2.1717,-2.1206,-2.0685,-2.0216,-1.9947,-1.9506,-1.8887,-1.8307,-1.7775,-1.7067,-1.6323,-1.569,-1.5126,-1.46,-2.7594,-2.7554,-2.7948,-2.796,-2.7812,-2.8492,-2.8678,-2.8523,-2.8538,-2.8523,-2.845,-2.789,-2.788,-2.829,-2.7839,-2.7839,-2.8277,-2.8677,-2.877,-2.8573,-2.8318,-2.7672,-2.6997,-2.6326,-2.5833,-2.5466,-2.4927,-2.4881,-2.5661,-2.5506,-2.5947,-2.7068,-2.75,-2.8003,-2.8579,-2.9438,-3.0014,-3.041,-3.058,-3.1007,-3.1422,-3.1104,-3.1311,-3.2017,-3.1789,-3.1739,-3.1959,-3.1712,-3.2129,-3.3191,-3.3695,-3.3619,-3.3174,-3.3263,-3.3155,-3.2729,-3.2738,-3.2703,-3.2347,-3.2246,-3.2049,-3.1548,-3.1604,-3.1607,-3.156,-3.119,-3.1126,-3.1504,-3.1934,-3.2303,-3.2609,-3.293,-3.2648,-3.1625,-3.0866,-3.0238,-2.996,-2.9655,-2.9546,-3.0015,-2.9758,-2.9564,-2.9484,-2.9421,-2.9089,-2.8472,-2.8349,-2.8338,-2.7899,-2.7693,-2.7324,-2.7107,-2.6708,-2.6023,-2.5517,-2.5122,-2.4687,-2.4118,-2.3634,-2.3286,-2.2608,-2.1882,-2.1414,-2.0997,-2.0372,-2.0007,-1.9326,-1.8648,-1.8159,-1.7745,-1.7109,-1.6459,-1.5722,-1.5107,-1.4542,-2.7425,-2.7411,-2.7487,-2.7435,-2.7309,-2.7603,-2.7669,-2.7603,-2.7511,-2.7663,-2.7792,-2.7493,-2.7633,-2.814,-2.7941,-2.7985,-2.8331,-2.865,-2.8766,-2.8665,-2.8407,-2.7836,-2.7041,-2.6403,-2.5965,-2.5808,-2.5218,-2.5489,-2.6085,-2.5897,-2.6326,-2.7133,-2.7634,-2.8057,-2.8619,-2.9255,-2.9857,-3.0236,-3.0335,-3.0563,-3.0964,-3.0694,-3.1023,-3.1577,-3.1496,-3.1224,-3.1324,-3.1328,-3.1737,-3.2545,-3.3138,-3.3401,-3.3309,-3.3732,-3.3844,-3.3565,-3.3534,-3.3394,-3.3189,-3.2898,-3.2421,-3.201,-3.1868,-3.1582,-3.1527,-3.124,-3.1226,-3.1908,-3.2353,-3.2852,-3.3342,-3.3576,-3.3149,-3.2337,-3.1523,-3.0855,-3.0339,-2.9897,-3.0088,-3.0458,-3.0415,-3.0082,-3.001,-2.9847,-2.921,-2.852,-2.8357,-2.8274,-2.8048,-2.7931,-2.7756,-2.7486,-2.6971,-2.6213,-2.5473,-2.5025,-2.4649,-2.4089,-2.3909,-2.3531,-2.2983,-2.2237,-2.1786,-2.1318,-2.0633,-1.9999,-1.9483,-1.8916,-1.8403,-1.7967,-1.7284,-1.6629,-1.5953,-1.5354,-1.4728,-2.7389,-2.7268,-2.7021,-2.6853,-2.6798,-2.655,-2.6568,-2.652,-2.6421,-2.6627,-2.7009,-2.7045,-2.7388,-2.792,-2.8145,-2.8257,-2.8277,-2.8585,-2.8612,-2.8439,-2.8196,-2.775,-2.7281,-2.6639,-2.6339,-2.6333,-2.6136,-2.6187,-2.6352,-2.6449,-2.6721,-2.7112,-2.7422,-2.7926,-2.8389,-2.9059,-2.9838,-3.0191,-3.0159,-3.0285,-3.0444,-3.0354,-3.0591,-3.1153,-3.0807,-3.0657,-3.0865,-3.1023,-3.127,-3.1697,-3.2464,-3.3036,-3.3425,-3.419,-3.4464,-3.4464,-3.4103,-3.4092,-3.4174,-3.3501,-3.3009,-3.2786,-3.2043,-3.1577,-3.168,-3.1453,-3.1579,-3.2366,-3.289,-3.3433,-3.3954,-3.4046,-3.3654,-3.3056,-3.2608,-3.1729,-3.078,-3.0339,-3.0458,-3.0917,-3.0784,-3.0546,-3.0179,-2.9821,-2.9336,-2.8083,-2.8063,-2.8061,-2.8036,-2.8059,-2.7919,-2.7756,-2.7091,-2.6283,-2.5515,-2.4832,-2.4433,-2.408,-2.4008,-2.3766,-2.3425,-2.2805,-2.2298,-2.1743,-2.1162,-2.0581,-2.0051,-1.9483,-1.8856,-1.8359,-1.7826,-1.7055,-1.6283,-1.5795,-1.5265,-2.7126,-2.6773,-2.6874,-2.6673,-2.6338,-2.6373,-2.6331,-2.6274,-2.6236,-2.648,-2.6915,-2.7032,-2.7374,-2.792,-2.8168,-2.8199,-2.8015,-2.8262,-2.8214,-2.7822,-2.7428,-2.7242,-2.7063,-2.6747,-2.6532,-2.638,-2.6113,-2.6195,-2.638,-2.6398,-2.6393,-2.6877,-2.6913,-2.7061,-2.7809,-2.7994,-2.8095,-2.8719,-2.878,-2.9104,-2.9624,-2.9716,-2.9964,-3.0491,-3.0332,-3.0351,-3.0475,-3.0191,-3.0303,-3.1034,-3.1858,-3.2615,-3.322,-3.3746,-3.4085,-3.4273,-3.4443,-3.4479,-3.4378,-3.4235,-3.376,-3.3152,-3.2904,-3.2411,-3.1844,-3.2035,-3.2303,-3.2878,-3.3407,-3.4032,-3.4662,-3.4255,-3.3967,-3.3667,-3.3149,-3.2506,-3.1882,-3.1249,-3.1069,-3.1177,-3.1076,-3.0562,-2.9671,-2.9596,-2.8949,-2.7849,-2.7676,-2.7808,-2.7982,-2.8166,-2.8048,-2.7875,-2.7199,-2.6454,-2.5899,-2.5242,-2.4798,-2.4457,-2.4289,-2.4141,-2.3787,-2.3413,-2.2921,-2.2291,-2.1674,-2.1154,-2.0529,-1.9871,-1.9243,-1.8835,-1.8343,-1.7635,-1.6955,-1.64,-1.5718,-2.7111,-2.6629,-2.6604,-2.6264,-2.5793,-2.5598,-2.5684,-2.5873,-2.5946,-2.6493,-2.7203,-2.749,-2.7769,-2.801,-2.8177,-2.8086,-2.7805,-2.7885,-2.7844,-2.7608,-2.7372,-2.7175,-2.7006,-2.6904,-2.672,-2.6465,-2.6407,-2.6503,-2.6597,-2.6565,-2.6752,-2.7054,-2.6757,-2.7266,-2.781,-2.7556,-2.7908,-2.8411,-2.8328,-2.8469,-2.8816,-2.9285,-2.9739,-3.0146,-3.0287,-3.0332,-3.0227,-3.0002,-3.0185,-3.0707,-3.1302,-3.2024,-3.2844,-3.3303,-3.3634,-3.4255,-3.4544,-3.5021,-3.5162,-3.4967,-3.4575,-3.3976,-3.3842,-3.3454,-3.3035,-3.3081,-3.3405,-3.3819,-3.4148,-3.4556,-3.5098,-3.4887,-3.4544,-3.4439,-3.4019,-3.3576,-3.3135,-3.229,-3.1654,-3.1664,-3.1429,-3.0738,-3.0082,-2.9567,-2.8704,-2.7715,-2.7787,-2.7897,-2.7895,-2.8027,-2.8038,-2.7789,-2.7199,-2.6625,-2.6249,-2.5725,-2.5298,-2.4971,-2.4818,-2.459,-2.4309,-2.3937,-2.3505,-2.2834,-2.2108,-2.157,-2.0989,-2.0331,-1.9636,-1.9158,-1.8632,-1.8122,-1.7572,-1.6881,-1.6235,-2.696,-2.6512,-2.6234,-2.5832,-2.5246,-2.4818,-2.4948,-2.542,-2.5538,-2.6281,-2.7398,-2.8001,-2.7962,-2.8037,-2.8235,-2.7948,-2.7556,-2.7341,-2.728,-2.728,-2.724,-2.7057,-2.6913,-2.6889,-2.6851,-2.6787,-2.684,-2.6888,-2.6809,-2.6931,-2.6894,-2.7184,-2.6783,-2.7059,-2.7912,-2.7774,-2.7642,-2.83,-2.8156,-2.8138,-2.844,-2.9047,-2.9716,-3.0279,-3.0501,-3.041,-3.0196,-3.0079,-3.0234,-3.078,-3.0716,-3.1329,-3.2231,-3.2858,-3.3221,-3.4262,-3.4436,-3.4986,-3.5521,-3.5492,-3.5188,-3.5124,-3.504,-3.4716,-3.4419,-3.4342,-3.4532,-3.4668,-3.4869,-3.4845,-3.5164,-3.5111,-3.5125,-3.5084,-3.495,-3.471,-3.4261,-3.3302,-3.2724,-3.2188,-3.1676,-3.0899,-3.0215,-2.9631,-2.8629,-2.7824,-2.7917,-2.793,-2.7877,-2.7824,-2.7758,-2.7432,-2.6809,-2.6263,-2.5815,-2.6074,-2.5655,-2.542,-2.5297,-2.5113,-2.4776,-2.429,-2.3819,-2.3107,-2.2448,-2.1882,-2.119,-2.0493,-1.9851,-1.9403,-1.8981,-1.8473,-1.7909,-1.7335,-1.6683,-2.6414,-2.6222,-2.6001,-2.5415,-2.4776,-2.462,-2.4796,-2.5124,-2.5235,-2.5911,-2.7097,-2.753,-2.7697,-2.7717,-2.8103,-2.7822,-2.7114,-2.6769,-2.6623,-2.6623,-2.6663,-2.6584,-2.6702,-2.6874,-2.6822,-2.6706,-2.6894,-2.6986,-2.66,-2.663,-2.6835,-2.6529,-2.6016,-2.6433,-2.7251,-2.6983,-2.7046,-2.7833,-2.7643,-2.7557,-2.7842,-2.864,-2.9553,-3.0317,-3.0619,-3.0635,-3.0501,-3.0334,-3.0464,-3.0917,-3.0286,-3.0726,-3.1732,-3.2518,-3.2859,-3.3065,-3.3768,-3.4496,-3.5063,-3.5322,-3.557,-3.5885,-3.6027,-3.5894,-3.5647,-3.5476,-3.5371,-3.5272,-3.5186,-3.5137,-3.5191,-3.5138,-3.5138,-3.5177,-3.5018,-3.4872,-3.4527,-3.4066,-3.3351,-3.2645,-3.192,-3.1199,-3.0606,-2.9822,-2.888,-2.8241,-2.81,-2.7771,-2.744,-2.7385,-2.738,-2.6891,-2.6285,-2.58,-2.532,-2.5842,-2.596,-2.5768,-2.5665,-2.5571,-2.5219,-2.4695,-2.4062,-2.3313,-2.251,-2.1803,-2.1122,-2.0505,-2.0073,-1.9551,-1.9155,-1.8811,-1.8103,-1.7451,-1.6975,-2.6129,-2.5786,-2.5449,-2.4901,-2.4341,-2.4151,-2.4499,-2.5088,-2.5316,-2.599,-2.686,-2.7412,-2.7481,-2.738,-2.7469,-2.7136,-2.6465,-2.5924,-2.5872,-2.603,-2.6109,-2.6386,-2.6623,-2.6913,-2.7018,-2.7141,-2.7442,-2.727,-2.6484,-2.6535,-2.6774,-2.6715,-2.5981,-2.6275,-2.7376,-2.6897,-2.6952,-2.7472,-2.7439,-2.7292,-2.7483,-2.8515,-2.953,-3.0274,-3.0848,-3.1063,-3.1063,-3.1008,-3.1244,-3.1606,-3.1029,-3.1027,-3.1589,-3.2109,-3.2487,-3.2579,-3.3163,-3.3865,-3.4518,-3.508,-3.5791,-3.6256,-3.6673,-3.6831,-3.6672,-3.6387,-3.5995,-3.5489,-3.532,-3.5204,-3.5204,-3.4927,-3.4768,-3.4663,-3.4504,-3.4268,-3.4007,-3.394,-3.3456,-3.286,-3.215,-3.1511,-3.1121,-3.0264,-2.9255,-2.8673,-2.8369,-2.7824,-2.7237,-2.7093,-2.7107,-2.6457,-2.5905,-2.5698,-2.5428,-2.5982,-2.62,-2.6041,-2.5905,-2.5855,-2.5448,-2.486,-2.4165,-2.3423,-2.2651,-2.1881,-2.1028,-2.0405,-2.0053,-1.9695,-1.9346,-1.8872,-1.8205,-1.7587,-1.7106,-2.5811,-2.5466,-2.4914,-2.4439,-2.4004,-2.3692,-2.4134,-2.4929,-2.5395,-2.599,-2.6781,-2.7254,-2.7294,-2.6953,-2.6716,-2.6347,-2.5634,-2.5289,-2.5368,-2.5594,-2.5832,-2.6188,-2.6702,-2.7097,-2.7294,-2.7479,-2.8055,-2.7737,-2.7055,-2.7007,-2.7214,-2.7145,-2.6271,-2.6632,-2.7874,-2.7047,-2.7252,-2.7653,-2.7636,-2.7471,-2.7943,-2.8765,-2.9712,-3.0468,-3.1127,-3.1478,-3.1404,-3.1418,-3.1757,-3.2061,-3.1822,-3.141,-3.1604,-3.1851,-3.2158,-3.2514,-3.2848,-3.3339,-3.408,-3.5104,-3.5899,-3.6407,-3.7099,-3.7286,-3.72,-3.6729,-3.6216,-3.5454,-3.5204,-3.5098,-3.4927,-3.4557,-3.4293,-3.4081,-3.3803,-3.3474,-3.3428,-3.3381,-3.3434,-3.2878,-3.2277,-3.1806,-3.1447,-3.0786,-2.9781,-2.9071,-2.8714,-2.8059,-2.7534,-2.7102,-2.6837,-2.6078,-2.5649,-2.5556,-2.5747,-2.631,-2.6393,-2.6155,-2.6005,-2.591,-2.5468,-2.4961,-2.4221,-2.3513,-2.2886,-2.2079,-2.1217,-2.0349,-1.9938,-1.9565,-1.9428,-1.8908,-1.8118,-1.7627,-1.7235,-2.5185,-2.5442,-2.4726,-2.4286,-2.3951,-2.3692,-2.3972,-2.4584,-2.501,-2.5435,-2.603,-2.6663,-2.6781,-2.6439,-2.6083,-2.566,-2.5316,-2.5131,-2.5184,-2.5395,-2.5673,-2.6109,-2.6623,-2.7294,-2.7569,-2.7883,-2.8475,-2.8239,-2.7785,-2.7866,-2.7879,-2.7739,-2.7347,-2.7534,-2.8353,-2.7322,-2.7338,-2.8277,-2.7843,-2.784,-2.864,-2.9269,-2.9883,-3.0421,-3.1055,-3.1462,-3.149,-3.1549,-3.184,-3.2361,-3.2107,-3.1663,-3.1376,-3.1517,-3.1938,-3.234,-3.2777,-3.3269,-3.3874,-3.4812,-3.5753,-3.6354,-3.6951,-3.7294,-3.7145,-3.6499,-3.5834,-3.5309,-3.5125,-3.4874,-3.4491,-3.4293,-3.4028,-3.371,-3.3392,-3.3339,-3.3265,-3.2934,-3.298,-3.2969,-3.2405,-3.211,-3.177,-3.1062,-3.037,-2.969,-2.9017,-2.8414,-2.7768,-2.7313,-2.6782,-2.6088,-2.5841,-2.5811,-2.5947,-2.6532,-2.6525,-2.6289,-2.6203,-2.6023,-2.5561,-2.5019,-2.4256,-2.3573,-2.2955,-2.2208,-2.1251,-2.0485,-1.9839,-1.9534,-1.9395,-1.8736,-1.7928,-1.758,-1.7446,-2.495,-2.5067,-2.4144,-2.3705,-2.3596,-2.3429,-2.38,-2.4424,-2.4691,-2.501,-2.5408,-2.5726,-2.5872,-2.5728,-2.5348,-2.523,-2.5151,-2.4967,-2.5148,-2.5422,-2.574,-2.6268,-2.7004,-2.7476,-2.7751,-2.8353,-2.8861,-2.911,-2.873,-2.844,-2.829,-2.8111,-2.7733,-2.7809,-2.8662,-2.773,-2.8035,-2.8469,-2.8432,-2.8283,-2.8781,-2.9249,-2.9617,-2.9915,-3.0718,-3.1229,-3.1483,-3.1604,-3.2212,-3.2692,-3.247,-3.2062,-3.2062,-3.2036,-3.1925,-3.2447,-3.2648,-3.2947,-3.3408,-3.4451,-3.5281,-3.5819,-3.6318,-3.673,-3.659,-3.5882,-3.5135,-3.4702,-3.4557,-3.4242,-3.387,-3.3498,-3.3286,-3.302,-3.2807,-3.2701,-3.2704,-3.2691,-3.2585,-3.258,-3.2545,-3.2198,-3.1823,-3.1326,-3.0753,-3.0205,-2.9605,-2.9093,-2.8177,-2.727,-2.6793,-2.625,-2.6166,-2.6205,-2.6404,-2.6727,-2.6673,-2.6518,-2.6394,-2.6156,-2.5654,-2.5058,-2.4328,-2.3563,-2.293,-2.2122,-2.1267,-2.0646,-2.0057,-1.9674,-1.9329,-1.8752,-1.8233,-1.8126,-1.7836,-2.4695,-2.4711,-2.3755,-2.3378,-2.3328,-2.3289,-2.3672,-2.4292,-2.4452,-2.4691,-2.4931,-2.509,-2.52,-2.5165,-2.4957,-2.4879,-2.5088,-2.4854,-2.5047,-2.5399,-2.5832,-2.6333,-2.6925,-2.7372,-2.7883,-2.8744,-2.9017,-2.9251,-2.9365,-2.9316,-2.9186,-2.8702,-2.8583,-2.8634,-2.8734,-2.8393,-2.8316,-2.9034,-2.893,-2.8845,-2.8942,-2.9219,-2.9363,-2.9675,-3.0239,-3.0981,-3.1249,-3.1553,-3.228,-3.2664,-3.2461,-3.2225,-3.2569,-3.228,-3.2082,-3.234,-3.2408,-3.246,-3.308,-3.3976,-3.4714,-3.5219,-3.5634,-3.6079,-3.5644,-3.4986,-3.4436,-3.415,-3.3771,-3.3509,-3.3149,-3.2736,-3.2573,-3.2385,-3.2127,-3.1914,-3.1836,-3.2103,-3.2214,-3.2203,-3.2184,-3.2058,-3.1761,-3.1408,-3.1043,-3.0622,-3.0185,-2.9726,-2.8846,-2.7767,-2.728,-2.6945,-2.6826,-2.6796,-2.6657,-2.6758,-2.6738,-2.6684,-2.6613,-2.6265,-2.5738,-2.5029,-2.4271,-2.3561,-2.2896,-2.2177,-2.1414,-2.0824,-2.0291,-1.9774,-1.9344,-1.9024,-1.8686,-1.8546,-1.8092,-2.4284,-2.4505,-2.3935,-2.3538,-2.3351,-2.3528,-2.3706,-2.3932,-2.4332,-2.4492,-2.4572,-2.4851,-2.4985,-2.5042,-2.4865,-2.4763,-2.4789,-2.4724,-2.4906,-2.5165,-2.5478,-2.6149,-2.6649,-2.7097,-2.753,-2.8328,-2.8959,-2.9349,-2.9742,-3.0629,-3.0309,-2.981,-2.9747,-2.9796,-2.9615,-2.9127,-2.8893,-2.9394,-2.9466,-2.9454,-2.9336,-2.934,-2.9388,-2.951,-3.0032,-3.0468,-3.0261,-3.0837,-3.1425,-3.2022,-3.1948,-3.2043,-3.2185,-3.1982,-3.1912,-3.1904,-3.1854,-3.1943,-3.2508,-3.3644,-3.4803,-3.5147,-3.5338,-3.5349,-3.4948,-3.4108,-3.3667,-3.3447,-3.3007,-3.2706,-3.2426,-3.2223,-3.2107,-3.2054,-3.1914,-3.186,-3.1807,-3.1795,-3.1952,-3.1862,-3.1819,-3.1797,-3.1759,-3.1494,-3.1276,-3.0845,-3.0645,-3.0232,-2.9749,-2.8835,-2.835,-2.7972,-2.7648,-2.7367,-2.6891,-2.6958,-2.7305,-2.6971,-2.6644,-2.6295,-2.5796,-2.5029,-2.4215,-2.3545,-2.2897,-2.2195,-2.1475,-2.0796,-2.0186,-1.9747,-1.9384,-1.9209,-1.8844,-1.8502,-1.8006,-2.4272,-2.445,-2.4106,-2.3856,-2.3743,-2.3897,-2.3891,-2.3836,-2.3972,-2.4052,-2.4092,-2.424,-2.45,-2.4744,-2.48,-2.4894,-2.5152,-2.5216,-2.5282,-2.5491,-2.5844,-2.6265,-2.6621,-2.6978,-2.7451,-2.8293,-2.9061,-2.9822,-3.0345,-3.1505,-3.1783,-3.1461,-3.0892,-3.0652,-3.0345,-3.0109,-2.9931,-2.9759,-2.9955,-2.9955,-2.9457,-2.9388,-2.9318,-2.9213,-2.9298,-2.9747,-2.989,-3.0207,-3.0658,-3.1042,-3.1059,-3.1249,-3.1418,-3.1262,-3.1168,-3.1285,-3.123,-3.1415,-3.1762,-3.2963,-3.3848,-3.4516,-3.4608,-3.4476,-3.4215,-3.3588,-3.2969,-3.2583,-3.2172,-3.1834,-3.1825,-3.1713,-3.1704,-3.1764,-3.1807,-3.1807,-3.1754,-3.1754,-3.1768,-3.1776,-3.169,-3.1601,-3.1629,-3.1564,-3.1385,-3.1121,-3.0965,-3.0767,-3.0339,-2.9964,-2.9426,-2.9104,-2.8835,-2.8738,-2.8306,-2.8199,-2.8037,-2.7486,-2.6891,-2.6467,-2.5994,-2.4952,-2.4133,-2.3483,-2.2819,-2.2152,-2.1397,-2.0679,-2.0196,-1.99,-1.9719,-1.962,-1.9142,-1.8613,-1.8064,-2.4007,-2.4141,-2.4132,-2.4063,-2.4057,-2.4226,-2.4113,-2.3836,-2.38,-2.38,-2.38,-2.392,-2.4313,-2.4732,-2.4906,-2.5166,-2.5539,-2.5615,-2.5616,-2.5749,-2.5948,-2.625,-2.6594,-2.7033,-2.7566,-2.8411,-2.9498,-3.035,-3.0871,-3.2305,-3.2534,-3.2236,-3.1768,-3.1469,-3.1181,-3.1123,-3.0807,-3.0472,-3.0296,-3.0239,-2.9673,-2.9523,-2.932,-2.9153,-2.9189,-2.9274,-2.9542,-2.976,-2.9913,-3.0076,-3.0169,-3.0268,-3.0341,-3.0344,-3.0301,-3.0491,-3.0757,-3.0924,-3.1264,-3.2124,-3.3032,-3.3784,-3.3667,-3.359,-3.3395,-3.2917,-3.2111,-3.1983,-3.1459,-3.1211,-3.1453,-3.1619,-3.1761,-3.1887,-3.1795,-3.1807,-3.1647,-3.1635,-3.1679,-3.1765,-3.1518,-3.1247,-3.1599,-3.1639,-3.1656,-3.15,-3.1396,-3.1314,-3.1154,-3.0833,-3.0565,-3.0297,-3.0071,-3.0082,-3.0029,-2.9491,-2.8953,-2.8404,-2.7756,-2.6955,-2.6249,-2.5181,-2.418,-2.3504,-2.2812,-2.2108,-2.1483,-2.092,-2.0509,-2.012,-1.9938,-1.9784,-1.9522,-1.9041,-1.8549,-2.3424,-2.3484,-2.3935,-2.4075,-2.4092,-2.4418,-2.4282,-2.3916,-2.392,-2.388,-2.396,-2.4292,-2.4652,-2.5028,-2.5165,-2.5413,-2.5734,-2.5837,-2.5629,-2.5422,-2.5829,-2.591,-2.6253,-2.6797,-2.7653,-2.8377,-2.9581,-3.0615,-3.1207,-3.2357,-3.2838,-3.2962,-3.2576,-3.2142,-3.1699,-3.1299,-3.1035,-3.0808,-3.0649,-3.0419,-3.002,-2.9802,-2.9431,-2.9103,-2.9139,-2.9249,-2.9176,-2.9359,-2.931,-2.9005,-2.9261,-2.9431,-2.9516,-2.9836,-3.0007,-3.032,-3.0503,-3.0553,-3.0416,-3.1845,-3.2593,-3.2923,-3.2756,-3.2618,-3.2466,-3.1856,-3.139,-3.1477,-3.1022,-3.1283,-3.158,-3.1892,-3.2032,-3.205,-3.1972,-3.186,-3.1754,-3.1581,-3.1703,-3.1724,-3.1152,-3.0775,-3.1282,-3.1684,-3.1858,-3.1877,-3.1795,-3.1754,-3.1647,-3.1486,-3.1219,-3.11,-3.0886,-3.0833,-3.0672,-3.0297,-2.9814,-2.9265,-2.8511,-2.7604,-2.6677,-2.5766,-2.4778,-2.3773,-2.3024,-2.2441,-2.1812,-2.1206,-2.0758,-2.0305,-2.0047,-1.9873,-1.972,-1.9395,-1.8819,-2.3141,-2.3849,-2.4021,-2.4337,-2.461,-2.4573,-2.4458,-2.4341,-2.4492,-2.4532,-2.4372,-2.4731,-2.4931,-2.512,-2.5257,-2.5464,-2.564,-2.5462,-2.5152,-2.5405,-2.576,-2.5948,-2.6292,-2.6985,-2.7763,-2.841,-2.9635,-3.0879,-3.1543,-3.2445,-3.3025,-3.323,-3.3218,-3.2616,-3.187,-3.1523,-3.1624,-3.1229,-3.1121,-3.0967,-3.0175,-2.9823,-2.9395,-2.8819,-2.9053,-2.9029,-2.8758,-2.8872,-2.8559,-2.8114,-2.8364,-2.8299,-2.8504,-2.8816,-2.9308,-2.9689,-3.0008,-3.0664,-3.0676,-3.1283,-3.1484,-3.1693,-3.181,-3.1615,-3.1275,-3.0878,-3.0846,-3.1176,-3.1087,-3.1589,-3.2158,-3.2387,-3.2508,-3.2446,-3.2328,-3.2074,-3.1914,-3.1754,-3.1747,-3.1788,-3.1461,-3.1638,-3.2046,-3.2246,-3.2398,-3.218,-3.2074,-3.186,-3.1754,-3.1754,-3.1593,-3.1593,-3.1486,-3.1433,-3.1261,-3.0886,-3.035,-2.976,-2.8942,-2.8037,-2.7133,-2.6286,-2.5351,-2.4394,-2.36,-2.2836,-2.2222,-2.156,-2.0945,-2.0474,-2.0255,-2.006,-1.9998,-1.9513,-1.873,-2.2891,-2.386,-2.4021,-2.4353,-2.4783,-2.4925,-2.4919,-2.4919,-2.5021,-2.4931,-2.4811,-2.513,-2.5448,-2.5516,-2.5544,-2.5698,-2.583,-2.5422,-2.5126,-2.5403,-2.5805,-2.5983,-2.6502,-2.744,-2.8277,-2.8835,-2.9926,-3.1127,-3.1634,-3.2422,-3.2943,-3.3297,-3.3613,-3.2943,-3.2261,-3.2039,-3.1922,-3.1506,-3.1296,-3.0957,-3.0255,-2.9773,-2.9357,-2.8969,-2.8846,-2.8847,-2.8503,-2.8201,-2.7879,-2.7565,-2.7361,-2.732,-2.7581,-2.8088,-2.8781,-2.9414,-3.002,-3.0738,-3.1009,-3.0762,-3.0908,-3.079,-3.077,-3.0793,-3.0678,-3.0664,-3.0909,-3.1226,-3.1491,-3.2405,-3.3226,-3.3369,-3.3277,-3.3237,-3.302,-3.2807,-3.2594,-3.2435,-3.234,-3.2287,-3.2222,-3.2488,-3.2754,-3.2901,-3.3073,-3.2701,-3.2275,-3.2074,-3.186,-3.1807,-3.1807,-3.1807,-3.1754,-3.1647,-3.154,-3.1433,-3.0833,-3.019,-2.9384,-2.8522,-2.7627,-2.6789,-2.587,-2.5127,-2.4497,-2.3759,-2.2723,-2.1969,-2.1324,-2.0778,-2.0427,-2.0323,-2.032,-1.9694,-1.8903,-2.2717,-2.3441,-2.3903,-2.4248,-2.4559,-2.5329,-2.5661,-2.5577,-2.531,-2.5195,-2.517,-2.5594,-2.5951,-2.6201,-2.6066,-2.6086,-2.6223,-2.5698,-2.5415,-2.5431,-2.6028,-2.6217,-2.6922,-2.8055,-2.8712,-2.954,-3.0434,-3.117,-3.1591,-3.2359,-3.289,-3.3122,-3.3534,-3.3125,-3.2731,-3.2401,-3.2173,-3.1696,-3.135,-3.0884,-3.022,-2.9675,-2.9224,-2.8922,-2.8896,-2.8676,-2.8322,-2.7961,-2.7462,-2.7112,-2.6893,-2.7126,-2.751,-2.8184,-2.8976,-2.9787,-3.0477,-3.0888,-3.135,-3.1117,-3.0693,-3.066,-3.0712,-3.0651,-3.0606,-3.0741,-3.1276,-3.1934,-3.2555,-3.372,-3.4679,-3.4536,-3.4386,-3.4294,-3.4121,-3.3869,-3.3551,-3.3404,-3.3245,-3.3139,-3.2954,-3.306,-3.3445,-3.3604,-3.3657,-3.3073,-3.2648,-3.2287,-3.202,-3.1807,-3.1807,-3.1807,-3.1754,-3.1754,-3.1647,-3.1421,-3.0779,-2.9921,-2.9814,-2.9104,-2.8231,-2.7357,-2.6563,-2.588,-2.5478,-2.4642,-2.3308,-2.2311,-2.1662,-2.1174,-2.0781,-2.0465,-2.0377,-1.9866,-1.9172,-2.2813,-2.362,-2.4109,-2.454,-2.4984,-2.5826,-2.6141,-2.6047,-2.6199,-2.6081,-2.5634,-2.603,-2.6294,-2.6346,-2.5879,-2.5974,-2.5851,-2.5677,-2.5626,-2.5864,-2.6421,-2.6806,-2.7546,-2.8502,-2.9122,-2.9653,-3.0369,-3.1236,-3.1598,-3.2301,-3.2651,-3.2765,-3.3395,-3.3305,-3.3101,-3.2832,-3.2359,-3.1839,-3.149,-3.0876,-3.0042,-2.9328,-2.8874,-2.8691,-2.8812,-2.853,-2.8084,-2.7876,-2.7407,-2.7003,-2.6798,-2.6782,-2.6876,-2.7981,-2.9155,-3.0963,-3.1201,-3.1237,-3.1958,-3.1731,-3.13,-3.121,-3.1513,-3.1005,-3.0817,-3.1085,-3.1896,-3.281,-3.3678,-3.4789,-3.5524,-3.5579,-3.5485,-3.5333,-3.5177,-3.5019,-3.4768,-3.4676,-3.4517,-3.4028,-3.3843,-3.375,-3.4081,-3.4346,-3.4346,-3.3657,-3.302,-3.2594,-3.218,-3.1914,-3.1647,-3.1647,-3.1593,-3.1528,-3.1261,-3.0993,-3.0339,-2.9749,-2.9641,-2.9319,-2.8457,-2.7691,-2.712,-2.6411,-2.562,-2.4611,-2.3506,-2.2716,-2.2009,-2.154,-2.1135,-2.0706,-2.0313,-1.987,-1.9344,-2.2997,-2.4095,-2.4446,-2.5088,-2.592,-2.6393,-2.6636,-2.678,-2.6919,-2.668,-2.6254,-2.6454,-2.6573,-2.653,-2.6049,-2.5949,-2.6243,-2.5911,-2.5886,-2.6514,-2.6973,-2.7661,-2.8386,-2.9105,-2.9621,-3.0004,-3.0447,-3.1219,-3.1556,-3.2146,-3.2561,-3.2779,-3.3425,-3.344,-3.3292,-3.3065,-3.2629,-3.1997,-3.1416,-3.0864,-2.9949,-2.8908,-2.8439,-2.8508,-2.8714,-2.8293,-2.7912,-2.7775,-2.7334,-2.6805,-2.6501,-2.6548,-2.6887,-2.8071,-2.9682,-3.129,-3.1553,-3.1752,-3.2247,-3.2033,-3.187,-3.1946,-3.2327,-3.2315,-3.2239,-3.2455,-3.3271,-3.413,-3.4891,-3.5595,-3.6154,-3.6612,-3.6506,-3.6359,-3.6268,-3.6163,-3.6088,-3.6011,-3.5654,-3.5085,-3.4861,-3.4663,-3.4834,-3.5098,-3.4821,-3.3869,-3.3179,-3.2754,-3.2287,-3.186,-3.154,-3.1314,-3.1261,-3.1207,-3.0874,-3.05,-3.0017,-2.9534,-2.9426,-2.905,-2.8468,-2.781,-2.7087,-2.6245,-2.5447,-2.4545,-2.3661,-2.3108,-2.2439,-2.1903,-2.1362,-2.0877,-2.0466,-2.0017,-1.9429,-2.3335,-2.4763,-2.4852,-2.5759,-2.7,-2.6893,-2.7133,-2.7666,-2.7482,-2.7148,-2.6867,-2.6827,-2.6867,-2.6836,-2.6274,-2.6254,-2.6405,-2.6279,-2.6507,-2.7229,-2.7833,-2.8511,-2.9169,-2.9955,-3.0109,-3.0498,-3.089,-3.1214,-3.1474,-3.2008,-3.2577,-3.2846,-3.3423,-3.3487,-3.3198,-3.2991,-3.2548,-3.1873,-3.101,-3.0236,-2.9579,-2.8705,-2.7991,-2.863,-2.8504,-2.807,-2.7817,-2.7498,-2.7062,-2.6512,-2.6272,-2.6369,-2.733,-2.8155,-2.9891,-3.1164,-3.1616,-3.2106,-3.2459,-3.241,-3.2261,-3.2401,-3.2721,-3.3413,-3.3735,-3.3722,-3.434,-3.5191,-3.5944,-3.6266,-3.6711,-3.6796,-3.6701,-3.6841,-3.6897,-3.6949,-3.7096,-3.6866,-3.6339,-3.5811,-3.527,-3.5125,-3.4993,-3.5151,-3.494,-3.3975,-3.3392,-3.2967,-3.2447,-3.1914,-3.1474,-3.11,-3.1047,-3.0874,-3.0232,-2.991,-2.9641,-2.9373,-2.9104,-2.8727,-2.8134,-2.754,-2.6945,-2.6156,-2.5378,-2.466,-2.389,-2.326,-2.2676,-2.2014,-2.1508,-2.1008,-2.0583,-2.0131,-1.9492,-2.3718,-2.4655,-2.5327,-2.6154,-2.6941,-2.7056,-2.7363,-2.784,-2.7972,-2.7684,-2.7188,-2.6947,-2.6961,-2.7092,-2.6435,-2.6374,-2.6785,-2.6893,-2.7198,-2.7875,-2.8561,-2.9199,-2.9679,-3.0261,-3.0419,-3.061,-3.0892,-3.1292,-3.1468,-3.1931,-3.2207,-3.2062,-3.2733,-3.302,-3.3021,-3.2742,-3.2079,-3.1584,-3.0445,-2.9544,-2.8849,-2.8522,-2.8164,-2.8342,-2.814,-2.7993,-2.7786,-2.7509,-2.6981,-2.6382,-2.6239,-2.6759,-2.7834,-2.8305,-2.9644,-3.1277,-3.1667,-3.2143,-3.271,-3.2926,-3.2941,-3.3241,-3.3784,-3.4679,-3.5123,-3.5004,-3.5339,-3.6131,-3.6683,-3.6904,-3.6937,-3.6848,-3.6904,-3.7136,-3.7486,-3.7695,-3.7956,-3.7477,-3.6957,-3.6378,-3.5746,-3.5455,-3.5257,-3.5046,-3.4782,-3.4293,-3.371,-3.3179,-3.2541,-3.202,-3.1368,-3.1047,-3.0928,-3.0607,-2.9856,-2.9373,-2.9169,-2.8835,-2.8511,-2.8134,-2.7756,-2.7053,-2.6359,-2.5925,-2.5298,-2.4644,-2.4028,-2.3447,-2.2796,-2.2167,-2.1637,-2.1167,-2.0617,-2.0177,-1.954,-2.4138,-2.506,-2.5869,-2.6544,-2.7038,-2.729,-2.7589,-2.7934,-2.8247,-2.8012,-2.7422,-2.7146,-2.7042,-2.7068,-2.6543,-2.659,-2.7203,-2.7524,-2.8027,-2.8653,-2.9392,-2.9917,-3.0357,-3.063,-3.0603,-3.0765,-3.1149,-3.1469,-3.1525,-3.2062,-3.2339,-3.1879,-3.2273,-3.2688,-3.2772,-3.2184,-3.1618,-3.127,-2.9806,-2.8801,-2.8161,-2.774,-2.7858,-2.7935,-2.7969,-2.7833,-2.7599,-2.7337,-2.6799,-2.6434,-2.6363,-2.7298,-2.8214,-2.8739,-2.9703,-3.0887,-3.1617,-3.2005,-3.276,-3.329,-3.3457,-3.3748,-3.3975,-3.4558,-3.5007,-3.4966,-3.5716,-3.6472,-3.6917,-3.7177,-3.643,-3.6158,-3.6476,-3.6772,-3.7335,-3.7747,-3.7643,-3.7344,-3.681,-3.6246,-3.5705,-3.5323,-3.5204,-3.5204,-3.4834,-3.4028,-3.3551,-3.3086,-3.25,-3.2074,-3.1474,-3.094,-3.0767,-3.0124,-2.9169,-2.8846,-2.8738,-2.836,-2.8026,-2.7648,-2.728,-2.6467,-2.5762,-2.5436,-2.51,-2.4709,-2.411,-2.3464,-2.2909,-2.234,-2.1794,-2.1295,-2.0739,-2.0163,-1.9545,-2.4506,-2.5605,-2.6335,-2.6868,-2.7254,-2.7523,-2.7764,-2.7948,-2.8373,-2.8201,-2.7617,-2.741,-2.6916,-2.6692,-2.6693,-2.6958,-2.7408,-2.8051,-2.8747,-2.9558,-3.0429,-3.0642,-3.0892,-3.1224,-3.1208,-3.1249,-3.1512,-3.1669,-3.1749,-3.2189,-3.2259,-3.1929,-3.2162,-3.2623,-3.2301,-3.184,-3.1141,-3.0427,-2.9269,-2.8222,-2.7536,-2.701,-2.7428,-2.7626,-2.7644,-2.7341,-2.7242,-2.6954,-2.6463,-2.6431,-2.6524,-2.7536,-2.8438,-2.8999,-2.9915,-3.0835,-3.1542,-3.202,-3.2611,-3.3163,-3.3367,-3.3574,-3.3774,-3.4148,-3.4622,-3.5248,-3.6,-3.6271,-3.6663,-3.6631,-3.5953,-3.5565,-3.591,-3.6509,-3.7084,-3.7643,-3.7434,-3.712,-3.6558,-3.6047,-3.5665,-3.5243,-3.5019,-3.5072,-3.4557,-3.3816,-3.3179,-3.2713,-3.2234,-3.1967,-3.1474,-3.0886,-3.0511,-2.9653,-2.863,-2.8468,-2.8522,-2.836,-2.8026,-2.7442,-2.6847,-2.6196,-2.5599,-2.51,-2.4773,-2.4555,-2.401,-2.3355,-2.2863,-2.2206,-2.1587,-2.0968,-2.0427,-1.9858,-1.9454,-2.4528,-2.5651,-2.6559,-2.7,-2.7177,-2.7692,-2.794,-2.8033,-2.8402,-2.8307,-2.784,-2.7671,-2.7327,-2.6833,-2.6669,-2.7068,-2.8063,-2.8688,-2.9401,-3.022,-3.084,-3.1061,-3.1248,-3.1524,-3.1848,-3.1886,-3.1845,-3.1827,-3.1655,-3.192,-3.1742,-3.1046,-3.098,-3.1178,-3.1068,-3.0606,-3.0185,-2.9517,-2.8764,-2.7763,-2.7482,-2.7134,-2.7203,-2.7231,-2.7039,-2.6957,-2.6843,-2.6453,-2.5967,-2.5983,-2.6546,-2.7525,-2.8387,-2.9174,-2.9963,-3.0657,-3.1365,-3.1907,-3.241,-3.2963,-3.3253,-3.3641,-3.3879,-3.4111,-3.4602,-3.5065,-3.5363,-3.5046,-3.5346,-3.5581,-3.5093,-3.4825,-3.4999,-3.5979,-3.6701,-3.7173,-3.733,-3.6754,-3.6138,-3.5743,-3.54,-3.4953,-3.4439,-3.436,-3.4122,-3.3447,-3.3007,-3.2529,-3.2267,-3.1865,-3.1528,-3.0863,-3.0262,-2.9491,-2.863,-2.8468,-2.8414,-2.8253,-2.7972,-2.7378,-2.6793,-2.6088,-2.5544,-2.5208,-2.4828,-2.4501,-2.3956,-2.33,-2.2362,-2.1658,-2.1055,-2.049,-2.002,-1.9558,-1.9199]},{"header":{"parameterUnit":"m.s-1","parameterCategory":1,"la1":31.0,"la2":29.5877,"lo1":-88.7671,"lo2":-86.6584,"dy":0.0162,"dx":0.0185,"nx":115,"ny":88,"refTime":"2026-03-29T12:00:00:Z","depth":0,"parameterNumber":3,"parameterNumberName":"V-component_of_WINDS"},"data":[0.0,0.0,0.0,0.0,0.0,0.0,0.0,0.0,0.0,0.0,0.0,0.0,0.0,0.0,0.0,0.0,0.0,0.0,0.0,0.0,0.0,0.0,0.0,0.0,0.0,0.0,0.0,0.0,0.0,0.0,0.0,0.0,0.0,0.0,0.0,0.0,0.0,0.0,0.0,0.0,0.0,0.0,0.0,0.0,0.0,0.0,0.0,0.0,0.0,0.0,0.0,0.0,0.0,0.0,0.0,0.0,0.0,0.0,0.0,0.0,0.0,0.0,0.0,0.0,0.0,0.0,0.0,0.0,0.0,0.0,0.0,0.0,0.0,0.0,0.0,0.0,0.0,0.0,0.0,0.0,0.0,0.0,0.0,0.0,0.0,0.0,0.0,0.0,0.0,0.0,0.0,0.0,0.0,0.0,0.0,0.0,0.0,0.0,0.0,0.0,0.0,0.0,0.0,0.0,0.0,0.0,0.0,0.0,0.0,0.0,0.0,0.0,0.0,0.0,0.0,0.0,0.0,0.0,0.0,0.0,0.0,0.0,0.0,0.0,0.0,0.0,0.0,0.0,0.0,0.0,0.0,0.0,0.0,0.0,0.0,0.0,0.0,0.0,0.0,0.0,0.0,0.0,0.0,0.0,0.0,0.0,0.0,0.0,0.0,0.0,0.0,0.0,0.0,0.0,0.0,0.0,0.0,0.0,0.0,0.0,0.0,0.0,0.0,0.0,0.0,0.0,0.0,0.0,0.0,0.0,0.0,0.0,0.0,0.0,0.0,0.0,0.0,0.0,0.0,0.0,0.0,0.0,0.0,0.0,0.0,0.0,0.0,0.0,0.0,0.0,0.0,0.0,0.0,0.0,0.0,0.0,0.0,0.0,0.0,0.0,0.0,0.0,0.0,0.0,0.0,0.0,0.0,0.0,0.0,0.0,0.0,0.0,0.0,0.0,0.0,0.0,0.0,0.0,0.0,0.0,0.0,0.0,0.0,0.0,0.0,0.0,0.0,0.0,0.0,0.0,0.0,0.0,0.0,0.0,0.0,0.0,0.0,0.0,0.0,0.0,0.0,0.0,0.0,0.0,0.0,0.0,0.0,0.0,0.0,0.0,0.0,0.0,0.0,0.0,0.0,0.0,0.0,0.0,0.0,0.0,0.0,0.0,0.0,0.0,0.0,0.0,0.0,0.0,0.0,0.0,0.0,0.0,0.0,0.0,0.0,0.0,0.0,0.0,0.0,0.0,0.0,0.0,0.0,0.0,0.0,0.0,0.0,0.0,0.0,0.0,0.0,0.0,0.0,0.0,0.0,0.0,0.0,0.0,0.0,0.0,0.0,0.0,0.0,0.0,0.0,0.0,0.0,0.0,0.0,0.0,0.0,0.0,0.0,0.0,0.0,0.0,0.0,0.0,0.0,0.0,0.0,0.0,0.0,0.0,0.0,0.0,0.0,0.0,0.0,0.0,0.0,0.0,0.0,0.0,0.0,0.0,0.0,0.0,0.0,0.0,0.0,0.0,0.0,0.0,0.0,0.0,0.0,0.0,0.0,0.0,0.0,0.0,0.0,0.0,0.0,0.0,0.0,0.0,0.0,0.0,0.0,0.0,0.0,0.0,0.0,0.0,0.0,0.0,0.0,0.0,0.0,0.0,0.0,0.0,0.0,0.0,0.0,0.0,0.0,0.0,0.0,0.0,0.0,0.0,0.0,0.0,0.0,0.0,0.0,0.0,0.0,0.0,0.0,0.0,0.0,0.0,0.0,0.0,0.0,0.0,0.0,0.0,0.0,0.0,0.0,0.0,0.0,0.0,0.0,0.0,0.0,0.0,0.0,0.0,0.0,0.0,0.0,0.0,0.0,0.0,0.0,0.0,0.0,0.0,0.0,0.0,0.0,0.0,0.0,0.0,0.0,0.0,0.0,0.0,0.0,0.0,0.0,0.0,0.0,0.0,0.0,0.0,0.0,0.0,0.0,0.0,0.0,0.0,0.0,0.0,0.0,0.0,0.0,0.0,0.0,0.0,0.0,0.0,0.0,0.0,0.0,0.0,0.0,0.0,0.0,0.0,0.0,0.0,0.0,0.0,0.0,0.0,0.0,0.0,0.0,0.0,0.0,0.0,0.0,0.0,0.0,0.0,0.0,0.0,0.0,0.0,0.0,0.0,0.0,0.0,0.0,0.0,0.0,0.0,0.0,0.0,0.0,0.0,0.0,0.0,0.0,0.0,0.0,0.0,0.0,0.0,0.0,0.0,0.0,0.0,0.0,0.0,0.0,0.0,0.0,0.0,0.0,0.0,0.0,0.0,0.0,0.0,0.0,0.0,0.0,0.0,0.0,0.0,0.0,0.0,0.0,0.0,0.0,0.0,0.0,0.0,0.0,0.0,0.0,0.0,0.0,0.0,0.0,0.0,0.0,0.0,0.0,0.0,0.0,0.0,0.0,0.0,0.0,0.0,0.0,0.0,0.0,0.0,0.0,0.0,0.0,0.0,0.0,0.0,0.0,0.0,0.0,0.0,0.0,0.0,0.0,0.0,0.0,0.0,0.0,0.0,0.0,0.0,0.0,0.0,0.0,0.0,0.0,0.0,0.0,0.0,0.0,0.0,0.0,0.0,0.0,0.0,0.0,0.0,0.0,0.0,0.0,0.0,0.0,0.0,0.0,0.0,0.0,0.0,0.0,0.0,0.0,0.0,0.0,0.0,0.0,0.0,0.0,0.0,0.0,0.0,0.0,0.0,0.0,0.0,0.0,0.0,0.0,0.0,0.0,0.0,0.0,0.0,0.0,0.0,0.0,0.0,0.0,0.0,0.0,0.0,0.0,0.0,0.0,0.0,0.0,0.0,0.0,0.0,0.0,0.0,0.0,0.0,0.0,0.0,0.0,0.0,0.0,0.0,0.0,0.0,0.0,0.0,0.0,0.0,0.0,0.0,0.0,0.0,0.0,0.0,0.0,0.0,0.0,0.0,0.0,0.0,0.0,0.0,0.0,0.0,0.0,0.0,0.0,0.0,0.0,0.0,0.0,0.0,0.0,0.0,0.0,0.0,0.0,0.0,0.0,0.0,0.0,0.0,0.0,0.0,0.0,0.0,0.0,0.0,0.0,0.0,0.0,0.0,0.0,0.0,0.0,0.0,0.0,0.0,0.0,0.0,0.0,0.0,0.0,0.0,0.0,0.0,0.0,0.0,0.0,0.0,0.0,0.0,0.0,0.0,0.0,0.0,0.0,0.0,0.0,0.0,0.0,0.0,0.0,0.0,0.0,0.0,0.0,0.0,0.0,0.0,0.0,0.0,0.0,0.0,0.0,0.0,0.0,0.0,0.0,0.0,0.0,0.0,0.0,0.0,0.0,0.0,0.0,0.0,0.0,0.0,0.0,0.0,0.0,0.0,0.0,0.0,0.0,0.0,0.0,0.0,0.0,0.0,0.0,0.0,0.0,0.0,0.0,0.0,0.0,0.0,0.0,0.0,0.0,0.0,0.0,0.0,0.0,0.0,0.0,0.0,0.0,0.0,0.0,0.0,0.0,0.0,0.0,0.0,0.0,0.0,0.0,0.0,0.0,0.0,0.0,0.0,0.0,0.0,0.0,0.0,0.0,0.0,0.0,0.0,0.0,0.0,0.0,0.0,0.0,0.0,0.0,0.0,0.0,0.0,0.0,0.0,0.0,0.0,0.0,0.0,0.0,0.0,0.0,0.0,0.0,0.0,0.0,0.0,0.0,0.0,0.0,0.0,0.0,0.0,0.0,0.0,0.0,0.0,0.0,0.0,0.0,0.0,0.0,0.0,0.0,0.0,0.0,0.0,0.0,0.0,0.0,0.0,0.0,0.0,0.0,0.0,0.0,0.0,0.0,0.0,0.0,0.0,0.0,0.0,0.0,0.0,0.0,0.0,0.0,0.0,0.0,0.0,0.0,0.0,0.0,0.0,0.0,0.0,0.0,0.0,0.0,0.0,0.0,0.0,0.0,0.0,0.0,0.0,0.0,0.0,0.0,0.0,0.0,0.0,0.0,0.0,0.0,0.0,0.0,0.0,0.0,0.0,0.0,0.0,0.0,0.0,0.0,0.0,0.0,0.0,0.0,0.0,0.0,0.0,0.0,0.0,0.0,0.0,0.0,0.0,0.0,0.0,0.0,0.0,0.0,0.0,0.0,0.0,0.0,0.0,0.0,0.0,0.0,0.0,0.0,0.0,0.0,0.0,0.0,0.0,0.0,0.0,0.0,0.0,0.0,0.0,0.0,0.0,0.0,0.0,0.0,0.0,0.0,0.0,4.2636,0.0,0.0,0.0,0.0,0.0,0.0,0.0,0.0,0.0,0.0,0.0,0.0,0.0,0.0,0.0,0.0,0.0,0.0,0.0,0.0,0.0,0.0,0.0,0.0,0.0,0.0,0.0,0.0,0.0,0.0,0.0,0.0,0.0,0.0,0.0,0.0,0.0,0.0,0.0,0.0,0.0,0.0,0.0,0.0,0.0,0.0,0.0,0.0,0.0,0.0,0.0,0.0,0.0,0.0,0.0,0.0,0.0,0.0,0.0,0.0,0.0,0.0,0.0,0.0,0.0,0.0,0.0,0.0,0.0,0.0,0.0,0.0,0.0,0.0,0.0,0.0,0.0,0.0,0.0,0.0,0.0,0.0,0.0,0.0,0.0,0.0,0.0,0.0,0.0,0.0,0.0,0.0,0.0,0.0,0.0,0.0,0.0,0.0,0.0,0.0,0.0,0.0,0.0,0.0,0.0,0.0,0.0,0.0,0.0,0.0,4.6074,4.6,4.4369,4.3044,4.2138,0.0,0.0,0.0,0.0,0.0,0.0,0.0,0.0,0.0,0.0,0.0,0.0,0.0,0.0,0.0,0.0,0.0,0.0,0.0,0.0,0.0,0.0,0.0,0.0,0.0,0.0,0.0,0.0,0.0,0.0,0.0,0.0,0.0,0.0,0.0,0.0,0.0,0.0,0.0,0.0,0.0,0.0,0.0,0.0,0.0,0.0,0.0,0.0,0.0,0.0,0.0,0.0,0.0,0.0,0.0,0.0,0.0,0.0,0.0,0.0,0.0,0.0,0.0,0.0,0.0,0.0,0.0,0.0,0.0,0.0,0.0,0.0,0.0,0.0,0.0,0.0,0.0,0.0,0.0,0.0,0.0,0.0,0.0,0.0,0.0,0.0,0.0,0.0,0.0,0.0,0.0,0.0,0.0,0.0,0.0,0.0,0.0,0.0,0.0,0.0,0.0,0.0,0.0,0.0,0.0,0.0,0.0,0.0,0.0,0.0,0.0,0.0,4.481,4.343,4.2151,0.0,0.0,0.0,0.0,0.0,0.0,0.0,0.0,0.0,0.0,0.0,0.0,0.0,0.0,0.0,0.0,0.0,0.0,0.0,0.0,0.0,0.0,0.0,0.0,0.0,0.0,0.0,0.0,0.0,0.0,0.0,0.0,0.0,0.0,0.0,0.0,0.0,0.0,0.0,0.0,0.0,0.0,0.0,0.0,0.0,0.0,0.0,0.0,0.0,0.0,0.0,0.0,0.0,0.0,0.0,0.0,0.0,0.0,0.0,0.0,0.0,0.0,0.0,0.0,0.0,0.0,0.0,0.0,0.0,0.0,0.0,0.0,0.0,0.0,0.0,0.0,0.0,0.0,0.0,0.0,0.0,0.0,0.0,0.0,0.0,0.0,0.0,0.0,0.0,0.0,0.0,0.0,0.0,0.0,0.0,0.0,0.0,0.0,0.0,0.0,0.0,0.0,0.0,0.0,0.0,0.0,0.0,0.0,0.0,0.0,4.6467,4.8909,4.7652,0.0,4.382,0.0,0.0,0.0,0.0,0.0,0.0,0.0,0.0,0.0,0.0,0.0,0.0,0.0,0.0,0.0,0.0,0.0,0.0,0.0,0.0,0.0,0.0,0.0,0.0,0.0,0.0,0.0,0.0,0.0,0.0,0.0,0.0,0.0,0.0,0.0,0.0,0.0,0.0,0.0,0.0,0.0,0.0,0.0,0.0,0.0,0.0,0.0,0.0,0.0,0.0,0.0,0.0,0.0,0.0,0.0,0.0,0.0,0.0,0.0,0.0,0.0,0.0,0.0,0.0,0.0,0.0,0.0,0.0,0.0,0.0,0.0,0.0,0.0,0.0,0.0,0.0,0.0,0.0,0.0,0.0,0.0,0.0,0.0,0.0,0.0,0.0,0.0,0.0,0.0,0.0,0.0,0.0,0.0,0.0,0.0,0.0,0.0,0.0,0.0,0.0,0.0,0.0,0.0,0.0,0.0,0.0,0.0,0.0,0.0,0.0,4.7384,4.8609,4.6506,4.4746,0.0,0.0,0.0,0.0,0.0,0.0,0.0,0.0,0.0,0.0,0.0,0.0,0.0,0.0,0.0,0.0,0.0,0.0,0.0,0.0,0.0,0.0,0.0,0.0,0.0,0.0,0.0,0.0,0.0,0.0,0.0,0.0,0.0,0.0,0.0,0.0,0.0,0.0,0.0,0.0,0.0,0.0,0.0,0.0,0.0,0.0,0.0,0.0,0.0,0.0,0.0,0.0,0.0,0.0,0.0,0.0,0.0,0.0,0.0,0.0,0.0,0.0,0.0,0.0,0.0,0.0,0.0,0.0,0.0,0.0,0.0,0.0,0.0,0.0,0.0,0.0,0.0,0.0,0.0,0.0,0.0,0.0,0.0,0.0,0.0,0.0,0.0,0.0,0.0,0.0,0.0,0.0,0.0,0.0,0.0,0.0,0.0,0.0,0.0,0.0,0.0,0.0,0.0,0.0,0.0,0.0,0.0,0.0,0.0,0.0,4.7691,0.0,4.8341,4.651,4.4481,4.2418,0.0,0.0,0.0,0.0,0.0,0.0,0.0,0.0,0.0,0.0,0.0,0.0,0.0,0.0,0.0,0.0,0.0,0.0,0.0,0.0,0.0,0.0,0.0,0.0,0.0,0.0,0.0,0.0,0.0,0.0,0.0,0.0,0.0,0.0,0.0,0.0,0.0,0.0,0.0,0.0,0.0,0.0,0.0,0.0,0.0,0.0,0.0,0.0,0.0,0.0,0.0,0.0,0.0,0.0,0.0,0.0,0.0,0.0,0.0,0.0,0.0,0.0,0.0,0.0,0.0,0.0,0.0,0.0,0.0,0.0,0.0,0.0,0.0,0.0,0.0,0.0,0.0,0.0,0.0,0.0,0.0,0.0,0.0,0.0,0.0,0.0,0.0,0.0,0.0,0.0,0.0,0.0,0.0,0.0,0.0,0.0,0.0,0.0,0.0,0.0,0.0,0.0,0.0,0.0,0.0,0.0,0.0,0.0,0.0,4.9363,4.8611,4.9361,4.9086,4.6272,0.0,0.0,0.0,0.0,0.0,0.0,0.0,0.0,0.0,0.0,0.0,0.0,0.0,0.0,0.0,0.0,0.0,0.0,0.0,0.0,0.0,0.0,0.0,0.0,0.0,0.0,0.0,0.0,0.0,0.0,0.0,0.0,0.0,0.0,0.0,0.0,0.0,0.0,0.0,0.0,0.0,0.0,0.0,0.0,0.0,0.0,0.0,0.0,0.0,0.0,0.0,0.0,0.0,0.0,0.0,0.0,0.0,0.0,0.0,0.0,0.0,0.0,0.0,0.0,0.0,0.0,0.0,0.0,0.0,0.0,0.0,0.0,0.0,0.0,0.0,0.0,0.0,0.0,0.0,0.0,0.0,0.0,0.0,0.0,0.0,0.0,0.0,0.0,0.0,0.0,0.0,0.0,0.0,0.0,0.0,0.0,0.0,0.0,0.0,0.0,0.0,0.0,0.0,0.0,0.0,0.0,0.0,0.0,0.0,4.6806,4.6693,4.8357,5.1649,4.6578,4.3687,0.0,0.0,0.0,0.0,0.0,0.0,0.0,0.0,0.0,0.0,0.0,0.0,0.0,0.0,0.0,0.0,0.0,0.0,0.0,0.0,0.0,0.0,0.0,0.0,0.0,0.0,0.0,0.0,0.0,0.0,0.0,0.0,0.0,0.0,0.0,0.0,0.0,0.0,0.0,0.0,0.0,0.0,0.0,0.0,0.0,0.0,0.0,0.0,0.0,0.0,0.0,0.0,0.0,0.0,0.0,0.0,0.0,0.0,0.0,0.0,0.0,0.0,0.0,0.0,0.0,0.0,0.0,0.0,0.0,0.0,0.0,0.0,0.0,0.0,0.0,0.0,0.0,0.0,0.0,0.0,0.0,0.0,0.0,0.0,0.0,0.0,0.0,0.0,0.0,0.0,0.0,0.0,0.0,0.0,0.0,0.0,0.0,0.0,0.0,0.0,0.0,0.0,0.0,0.0,0.0,0.0,0.0,0.0,0.0,4.6372,0.0,4.9302,0.0,4.5832,4.2668,0.0,0.0,0.0,0.0,0.0,0.0,0.0,0.0,0.0,0.0,0.0,0.0,0.0,0.0,0.0,0.0,0.0,0.0,0.0,0.0,0.0,0.0,0.0,0.0,0.0,0.0,0.0,0.0,0.0,0.0,0.0,0.0,0.0,0.0,0.0,0.0,0.0,0.0,0.0,0.0,0.0,0.0,0.0,0.0,0.0,0.0,0.0,0.0,0.0,0.0,0.0,0.0,0.0,0.0,0.0,0.0,0.0,0.0,0.0,0.0,0.0,0.0,0.0,0.0,0.0,0.0,0.0,0.0,0.0,0.0,0.0,0.0,0.0,0.0,0.0,0.0,0.0,0.0,0.0,0.0,0.0,0.0,0.0,0.0,0.0,0.0,0.0,0.0,0.0,0.0,0.0,0.0,0.0,0.0,0.0,0.0,0.0,0.0,0.0,0.0,0.0,0.0,0.0,0.0,0.0,0.0,0.0,0.0,4.7312,5.0897,5.2515,5.1292,4.7139,4.7293,4.3572,0.0,0.0,0.0,0.0,0.0,0.0,0.0,0.0,0.0,0.0,0.0,0.0,0.0,0.0,0.0,0.0,0.0,0.0,0.0,0.0,0.0,0.0,0.0,0.0,0.0,0.0,0.0,0.0,0.0,0.0,0.0,0.0,0.0,0.0,0.0,0.0,0.0,0.0,0.0,0.0,0.0,0.0,0.0,0.0,0.0,0.0,0.0,0.0,0.0,0.0,0.0,0.0,0.0,0.0,0.0,0.0,0.0,0.0,0.0,0.0,0.0,0.0,0.0,0.0,0.0,0.0,0.0,0.0,0.0,0.0,0.0,0.0,0.0,0.0,0.0,0.0,0.0,0.0,0.0,0.0,0.0,0.0,0.0,0.0,0.0,0.0,0.0,0.0,0.0,0.0,0.0,0.0,0.0,0.0,0.0,0.0,0.0,0.0,0.0,0.0,0.0,0.0,0.0,0.0,0.0,0.0,0.0,0.0,0.0,4.7376,4.9002,5.0469,5.1308,4.5306,4.2202,0.0,0.0,0.0,0.0,0.0,0.0,0.0,0.0,0.0,0.0,0.0,0.0,0.0,0.0,0.0,0.0,0.0,0.0,0.0,0.0,0.0,0.0,0.0,0.0,0.0,0.0,0.0,0.0,0.0,0.0,0.0,0.0,0.0,0.0,0.0,0.0,0.0,0.0,0.0,0.0,0.0,0.0,0.0,0.0,0.0,0.0,0.0,0.0,0.0,0.0,0.0,0.0,0.0,0.0,0.0,0.0,0.0,0.0,0.0,0.0,0.0,0.0,0.0,0.0,0.0,0.0,0.0,0.0,0.0,0.0,0.0,0.0,0.0,0.0,0.0,0.0,0.0,0.0,0.0,0.0,0.0,0.0,0.0,0.0,0.0,0.0,0.0,0.0,0.0,0.0,0.0,0.0,0.0,0.0,0.0,0.0,0.0,0.0,0.0,0.0,0.0,0.0,0.0,0.0,0.0,0.0,0.0,0.0,0.0,4.9767,5.1532,5.2636,5.2849,4.6502,4.3376,4.3928,0.0,0.0,0.0,0.0,0.0,0.0,0.0,0.0,0.0,0.0,0.0,0.0,0.0,0.0,0.0,0.0,0.0,0.0,0.0,0.0,0.0,0.0,0.0,0.0,0.0,0.0,0.0,0.0,0.0,0.0,0.0,0.0,0.0,0.0,0.0,0.0,0.0,0.0,0.0,0.0,0.0,0.0,0.0,0.0,0.0,0.0,0.0,0.0,0.0,0.0,0.0,0.0,0.0,0.0,0.0,0.0,0.0,0.0,0.0,0.0,0.0,0.0,0.0,0.0,0.0,0.0,0.0,0.0,0.0,0.0,0.0,0.0,0.0,0.0,0.0,0.0,0.0,0.0,0.0,0.0,0.0,0.0,0.0,0.0,0.0,0.0,0.0,0.0,0.0,0.0,0.0,0.0,0.0,0.0,0.0,0.0,0.0,0.0,0.0,0.0,0.0,0.0,0.0,0.0,0.0,0.0,0.0,0.0,5.6542,5.8839,5.7432,5.2163,5.0328,4.6743,0.0,0.0,0.0,0.0,0.0,0.0,0.0,0.0,0.0,0.0,0.0,0.0,0.0,0.0,0.0,0.0,0.0,0.0,0.0,0.0,0.0,0.0,0.0,0.0,0.0,0.0,0.0,0.0,0.0,0.0,0.0,0.0,0.0,0.0,0.0,0.0,0.0,0.0,0.0,0.0,0.0,0.0,0.0,0.0,0.0,0.0,0.0,0.0,0.0,0.0,0.0,0.0,0.0,0.0,0.0,0.0,0.0,0.0,0.0,0.0,0.0,0.0,0.0,0.0,0.0,0.0,0.0,0.0,0.0,0.0,0.0,0.0,0.0,0.0,0.0,0.0,0.0,0.0,0.0,0.0,0.0,0.0,0.0,0.0,0.0,0.0,0.0,0.0,0.0,0.0,0.0,0.0,0.0,0.0,0.0,0.0,0.0,0.0,0.0,0.0,0.0,0.0,0.0,0.0,0.0,0.0,0.0,0.0,0.0,5.9323,6.1067,6.0358,5.6918,5.2205,4.8409,0.0,0.0,0.0,0.0,0.0,0.0,0.0,0.0,0.0,0.0,0.0,0.0,0.0,0.0,0.0,0.0,0.0,0.0,0.0,0.0,0.0,0.0,0.0,0.0,0.0,0.0,0.0,0.0,0.0,0.0,0.0,0.0,0.0,0.0,0.0,0.0,0.0,0.0,0.0,0.0,0.0,0.0,0.0,0.0,0.0,0.0,0.0,0.0,0.0,0.0,0.0,0.0,0.0,0.0,0.0,0.0,0.0,0.0,0.0,0.0,0.0,0.0,0.0,0.0,0.0,0.0,0.0,0.0,0.0,0.0,0.0,0.0,0.0,0.0,0.0,0.0,0.0,0.0,0.0,0.0,0.0,0.0,0.0,0.0,0.0,0.0,0.0,0.0,0.0,0.0,0.0,0.0,0.0,0.0,0.0,0.0,0.0,0.0,0.0,0.0,0.0,0.0,0.0,0.0,0.0,0.0,0.0,0.0,5.9522,6.1084,6.2614,6.2231,5.977,5.5277,5.1213,0.0,0.0,0.0,0.0,0.0,0.0,0.0,0.0,0.0,0.0,0.0,0.0,0.0,0.0,0.0,0.0,0.0,0.0,0.0,0.0,0.0,0.0,0.0,0.0,0.0,0.0,0.0,0.0,0.0,0.0,0.0,0.0,0.0,0.0,0.0,0.0,0.0,0.0,0.0,0.0,0.0,0.0,0.0,0.0,0.0,0.0,0.0,0.0,0.0,0.0,0.0,0.0,0.0,0.0,0.0,0.0,0.0,0.0,0.0,0.0,0.0,0.0,0.0,0.0,0.0,0.0,0.0,0.0,0.0,0.0,0.0,0.0,0.0,0.0,0.0,0.0,0.0,0.0,0.0,0.0,0.0,0.0,0.0,0.0,0.0,0.0,0.0,0.0,0.0,0.0,0.0,0.0,0.0,0.0,0.0,0.0,0.0,0.0,0.0,0.0,0.0,0.0,0.0,0.0,0.0,0.0,0.0,0.0,6.0573,6.2243,6.3711,6.3361,6.1054,5.8618,5.4333,0.0,0.0,0.0,0.0,0.0,0.0,0.0,0.0,0.0,0.0,0.0,0.0,0.0,0.0,0.0,0.0,0.0,0.0,0.0,0.0,0.0,0.0,0.0,0.0,0.0,0.0,0.0,0.0,0.0,0.0,0.0,0.0,0.0,0.0,0.0,0.0,0.0,0.0,0.0,0.0,0.0,0.0,0.0,0.0,0.0,0.0,0.0,0.0,0.0,0.0,0.0,0.0,0.0,0.0,0.0,0.0,0.0,0.0,0.0,0.0,0.0,0.0,0.0,0.0,0.0,0.0,0.0,0.0,0.0,0.0,0.0,0.0,0.0,0.0,0.0,0.0,0.0,0.0,0.0,0.0,0.0,0.0,0.0,0.0,0.0,0.0,0.0,0.0,0.0,0.0,0.0,0.0,0.0,0.0,0.0,0.0,0.0,0.0,0.0,0.0,0.0,0.0,0.0,0.0,0.0,0.0,0.0,0.0,6.1641,6.3251,6.43,6.3651,6.1054,5.8765,5.5079,0.0,0.0,0.0,0.0,0.0,0.0,0.0,0.0,0.0,0.0,0.0,0.0,0.0,0.0,0.0,0.0,0.0,0.0,0.0,0.0,0.0,0.0,0.0,0.0,0.0,0.0,0.0,0.0,0.0,0.0,0.0,0.0,0.0,0.0,0.0,0.0,0.0,0.0,0.0,0.0,0.0,0.0,0.0,0.0,0.0,0.0,0.0,0.0,4.1909,0.0,0.0,0.0,0.0,0.0,0.0,0.0,0.0,0.0,0.0,0.0,0.0,0.0,0.0,0.0,0.0,0.0,0.0,0.0,0.0,0.0,0.0,0.0,0.0,0.0,0.0,0.0,0.0,0.0,0.0,0.0,0.0,0.0,0.0,0.0,0.0,0.0,0.0,0.0,0.0,0.0,0.0,0.0,0.0,0.0,0.0,0.0,0.0,0.0,0.0,0.0,0.0,0.0,0.0,0.0,0.0,0.0,0.0,0.0,6.192,6.3782,6.471,6.4112,6.1993,5.9687,5.6124,0.0,0.0,0.0,0.0,0.0,0.0,0.0,0.0,0.0,0.0,0.0,0.0,0.0,0.0,0.0,0.0,0.0,0.0,0.0,0.0,0.0,0.0,0.0,0.0,0.0,0.0,0.0,0.0,0.0,0.0,0.0,0.0,0.0,0.0,0.0,0.0,0.0,0.0,0.0,0.0,0.0,0.0,0.0,0.0,0.0,0.0,0.0,0.0,0.0,0.0,0.0,0.0,0.0,0.0,0.0,0.0,0.0,0.0,0.0,0.0,0.0,0.0,0.0,0.0,0.0,0.0,0.0,0.0,0.0,0.0,0.0,0.0,0.0,0.0,0.0,0.0,0.0,0.0,0.0,0.0,0.0,0.0,0.0,0.0,0.0,0.0,0.0,0.0,0.0,0.0,0.0,0.0,0.0,0.0,0.0,0.0,0.0,0.0,0.0,0.0,0.0,0.0,0.0,0.0,0.0,0.0,0.0,5.9215,6.159,6.3752,6.4558,6.422,6.2788,6.0503,5.694,5.2072,0.0,0.0,0.0,0.0,0.0,0.0,0.0,0.0,0.0,0.0,0.0,0.0,0.0,0.0,0.0,0.0,0.0,0.0,0.0,0.0,0.0,0.0,0.0,0.0,0.0,0.0,0.0,0.0,0.0,0.0,0.0,0.0,0.0,0.0,0.0,0.0,0.0,0.0,4.1409,4.3644,0.0,0.0,0.0,0.0,0.0,0.0,0.0,0.0,4.1987,0.0,0.0,0.0,0.0,0.0,0.0,0.0,0.0,0.0,0.0,0.0,0.0,0.0,0.0,0.0,0.0,0.0,0.0,0.0,0.0,0.0,0.0,0.0,0.0,0.0,0.0,0.0,0.0,0.0,0.0,0.0,0.0,0.0,0.0,0.0,0.0,0.0,0.0,0.0,0.0,0.0,0.0,0.0,0.0,0.0,0.0,0.0,0.0,0.0,0.0,0.0,0.0,0.0,0.0,0.0,0.0,5.8709,5.9114,6.0369,6.2629,6.3135,6.2862,6.1729,5.9521,5.6629,5.3127,0.0,0.0,0.0,0.0,0.0,0.0,0.0,0.0,0.0,0.0,0.0,0.0,0.0,0.0,0.0,0.0,0.0,0.0,0.0,0.0,0.0,0.0,0.0,0.0,0.0,0.0,0.0,0.0,0.0,0.0,0.0,0.0,0.0,0.0,0.0,0.0,0.0,0.0,0.0,4.8978,4.9695,0.0,0.0,0.0,0.0,0.0,0.0,0.0,0.0,4.1441,0.0,0.0,0.0,0.0,0.0,0.0,0.0,0.0,0.0,0.0,0.0,0.0,0.0,0.0,0.0,0.0,0.0,0.0,0.0,0.0,0.0,0.0,0.0,0.0,0.0,0.0,0.0,0.0,0.0,0.0,0.0,0.0,0.0,0.0,0.0,0.0,0.0,0.0,0.0,0.0,0.0,0.0,0.0,0.0,0.0,0.0,0.0,0.0,0.0,0.0,0.0,0.0,0.0,0.0,0.0,5.7342,5.9074,6.0681,6.2335,6.2687,6.2236,6.0921,5.8335,5.558,0.0,0.0,0.0,0.0,0.0,0.0,0.0,0.0,0.0,0.0,0.0,0.0,0.0,0.0,0.0,0.0,0.0,0.0,0.0,0.0,0.0,0.0,0.0,0.0,0.0,0.0,0.0,0.0,0.0,0.0,0.0,0.0,0.0,0.0,0.0,0.0,0.0,0.0,0.0,0.0,5.0932,5.0865,4.9861,0.0,0.0,0.0,0.0,0.0,0.0,4.3404,4.176,0.0,0.0,0.0,0.0,0.0,0.0,0.0,0.0,0.0,0.0,0.0,0.0,0.0,0.0,0.0,0.0,0.0,0.0,0.0,0.0,0.0,0.0,0.0,0.0,0.0,0.0,0.0,0.0,0.0,0.0,0.0,0.0,0.0,0.0,0.0,0.0,0.0,0.0,0.0,0.0,0.0,0.0,0.0,0.0,0.0,0.0,0.0,0.0,0.0,0.0,0.0,0.0,0.0,0.0,0.0,5.5614,5.8497,6.0557,6.1713,6.1998,6.1479,6.0051,5.7111,5.4437,0.0,0.0,0.0,0.0,0.0,0.0,0.0,0.0,0.0,0.0,0.0,0.0,0.0,0.0,0.0,0.0,0.0,0.0,0.0,0.0,0.0,0.0,0.0,0.0,0.0,0.0,0.0,0.0,0.0,0.0,0.0,0.0,0.0,0.0,0.0,0.0,0.0,0.0,0.0,0.0,0.0,5.2333,5.2383,5.1207,0.0,0.0,0.0,0.0,4.8222,4.6054,0.0,0.0,0.0,0.0,0.0,0.0,0.0,0.0,0.0,0.0,0.0,0.0,0.0,0.0,0.0,0.0,0.0,0.0,0.0,0.0,0.0,0.0,0.0,0.0,0.0,0.0,0.0,0.0,0.0,0.0,0.0,0.0,0.0,0.0,0.0,0.0,0.0,0.0,0.0,0.0,0.0,0.0,0.0,0.0,0.0,0.0,0.0,0.0,0.0,0.0,0.0,0.0,0.0,0.0,0.0,0.0,5.4595,5.6482,5.8155,5.9593,5.9978,5.9739,5.8883,5.5919,5.3639,0.0,0.0,0.0,0.0,0.0,0.0,0.0,0.0,0.0,0.0,0.0,0.0,0.0,0.0,0.0,0.0,0.0,0.0,0.0,0.0,0.0,0.0,0.0,0.0,0.0,0.0,0.0,0.0,0.0,0.0,0.0,0.0,0.0,0.0,0.0,0.0,0.0,0.0,0.0,0.0,0.0,5.6993,5.4841,5.4674,5.4417,0.0,0.0,5.3734,5.4809,5.3435,0.0,0.0,0.0,0.0,0.0,0.0,0.0,0.0,0.0,0.0,0.0,0.0,0.0,0.0,0.0,0.0,0.0,0.0,0.0,0.0,0.0,0.0,0.0,0.0,0.0,0.0,0.0,0.0,0.0,0.0,0.0,0.0,0.0,0.0,0.0,0.0,0.0,0.0,0.0,0.0,0.0,0.0,0.0,0.0,0.0,0.0,0.0,0.0,0.0,0.0,0.0,0.0,0.0,0.0,0.0,5.265,5.5435,5.7519,5.9047,6.0042,6.0026,5.9109,5.7311,5.4909,5.2453,0.0,0.0,0.0,0.0,0.0,0.0,0.0,0.0,0.0,0.0,0.0,0.0,0.0,0.0,0.0,0.0,0.0,0.0,0.0,0.0,0.0,0.0,0.0,0.0,0.0,0.0,0.0,0.0,0.0,0.0,0.0,0.0,0.0,0.0,0.0,0.0,0.0,0.0,0.0,0.0,0.0,0.0,5.8304,5.8093,0.0,0.0,0.0,5.6271,5.6915,0.0,0.0,0.0,0.0,0.0,0.0,0.0,0.0,0.0,0.0,0.0,0.0,0.0,0.0,0.0,0.0,0.0,0.0,0.0,0.0,0.0,0.0,0.0,0.0,0.0,0.0,0.0,0.0,0.0,0.0,0.0,0.0,0.0,0.0,0.0,0.0,0.0,0.0,0.0,0.0,0.0,0.0,0.0,0.0,0.0,0.0,0.0,0.0,0.0,0.0,0.0,0.0,0.0,0.0,0.0,0.0,0.0,5.6469,5.9036,6.0572,6.0977,6.0562,5.9195,5.6896,5.4404,0.0,0.0,0.0,0.0,0.0,0.0,0.0,0.0,0.0,0.0,0.0,0.0,0.0,0.0,0.0,0.0,0.0,0.0,0.0,0.0,0.0,0.0,0.0,0.0,0.0,0.0,0.0,3.8894,0.0,0.0,0.0,0.0,0.0,0.0,0.0,0.0,0.0,0.0,0.0,0.0,0.0,0.0,6.1214,6.2136,6.223,6.1991,0.0,0.0,5.9932,5.9503,5.7248,5.3902,0.0,0.0,0.0,0.0,0.0,0.0,0.0,0.0,0.0,0.0,0.0,0.0,0.0,0.0,0.0,0.0,0.0,0.0,0.0,0.0,0.0,0.0,0.0,0.0,0.0,0.0,0.0,0.0,0.0,0.0,0.0,0.0,0.0,0.0,0.0,0.0,0.0,0.0,0.0,0.0,0.0,0.0,0.0,0.0,0.0,0.0,0.0,0.0,0.0,0.0,0.0,0.0,0.0,0.0,0.0,5.7216,6.0211,6.1778,6.1796,6.125,6.0163,5.8523,5.483,5.157,0.0,0.0,0.0,0.0,0.0,0.0,0.0,0.0,0.0,0.0,0.0,0.0,0.0,0.0,0.0,0.0,0.0,0.0,0.0,0.0,0.0,0.0,0.0,0.0,0.0,0.0,0.0,0.0,0.0,0.0,0.0,0.0,0.0,0.0,0.0,0.0,0.0,0.0,0.0,0.0,0.0,6.523,6.6193,6.7648,6.8611,0.0,0.0,6.6778,6.447,6.3916,6.0558,5.1069,0.0,0.0,0.0,0.0,0.0,0.0,0.0,0.0,0.0,0.0,0.0,0.0,0.0,0.0,0.0,0.0,0.0,0.0,0.0,0.0,0.0,0.0,0.0,0.0,0.0,0.0,0.0,0.0,0.0,0.0,0.0,0.0,0.0,0.0,0.0,0.0,0.0,0.0,0.0,0.0,0.0,0.0,0.0,0.0,0.0,0.0,0.0,0.0,0.0,0.0,0.0,0.0,0.0,5.4602,5.8824,6.0937,6.2508,6.3398,6.245,6.0838,5.8746,5.6409,5.3358,0.0,0.0,0.0,0.0,0.0,0.0,0.0,0.0,0.0,0.0,0.0,0.0,0.0,0.0,0.0,0.0,0.0,0.0,0.0,0.0,0.0,0.0,0.0,0.0,0.0,0.0,0.0,0.0,4.4488,4.4859,4.6534,0.0,0.0,0.0,0.0,0.0,0.0,0.0,0.0,0.0,0.0,6.8301,6.9773,7.0084,0.0,0.0,6.9273,6.8383,6.654,6.4513,6.1226,5.5441,5.3247,0.0,0.0,0.0,0.0,0.0,0.0,0.0,0.0,0.0,0.0,0.0,0.0,0.0,0.0,0.0,0.0,0.0,0.0,0.0,0.0,0.0,0.0,0.0,0.0,0.0,0.0,0.0,0.0,0.0,0.0,0.0,0.0,0.0,0.0,0.0,0.0,0.0,0.0,0.0,0.0,0.0,0.0,0.0,0.0,0.0,0.0,0.0,0.0,0.0,0.0,0.0,0.0,5.5564,6.0261,6.219,6.3729,6.4883,6.3547,6.186,5.9937,5.8097,5.5132,0.0,0.0,0.0,0.0,0.0,0.0,0.0,0.0,0.0,0.0,0.0,0.0,0.0,0.0,0.0,0.0,0.0,0.0,0.0,0.0,0.0,0.0,0.0,0.0,0.0,0.0,0.0,0.0,4.7272,4.7381,4.8216,0.0,0.0,0.0,0.0,0.0,0.0,0.0,0.0,0.0,0.0,7.1107,7.2791,7.2362,7.181,7.1677,7.0673,6.9447,6.8007,6.5986,6.3159,5.9089,0.0,0.0,0.0,0.0,0.0,0.0,0.0,0.0,0.0,0.0,0.0,0.0,0.0,0.0,0.0,0.0,0.0,0.0,0.0,0.0,0.0,0.0,0.0,0.0,0.0,0.0,0.0,4.8045,0.0,0.0,4.7533,0.0,0.0,0.0,0.0,0.0,0.0,0.0,0.0,0.0,0.0,0.0,0.0,0.0,0.0,0.0,0.0,0.0,0.0,0.0,0.0,0.0,0.0,5.7009,6.1249,6.406,6.5601,6.5865,6.4507,6.3428,6.2581,5.9702,5.6611,5.3407,0.0,0.0,0.0,0.0,0.0,0.0,0.0,0.0,0.0,0.0,0.0,0.0,0.0,0.0,0.0,0.0,0.0,0.0,0.0,0.0,0.0,0.0,0.0,0.0,0.0,0.0,4.9458,4.8612,4.8273,0.0,0.0,0.0,0.0,0.0,0.0,0.0,0.0,0.0,0.0,7.141,7.3717,7.5273,7.495,7.4839,7.5843,7.328,7.0646,6.9257,6.9337,6.7586,0.0,0.0,0.0,0.0,0.0,0.0,0.0,0.0,0.0,0.0,0.0,0.0,0.0,0.0,0.0,0.0,0.0,0.0,0.0,0.0,0.0,0.0,0.0,0.0,0.0,0.0,0.0,5.7981,5.5606,0.0,0.0,0.0,0.0,0.0,0.0,0.0,0.0,0.0,0.0,0.0,6.6922,6.8768,0.0,0.0,0.0,0.0,0.0,0.0,0.0,0.0,0.0,0.0,0.0,0.0,5.7441,6.245,6.5093,6.6721,6.7356,6.6444,6.5422,6.4388,6.2885,5.9921,5.5389,0.0,0.0,0.0,0.0,0.0,0.0,0.0,0.0,0.0,0.0,0.0,0.0,0.0,0.0,0.0,0.0,0.0,0.0,0.0,0.0,0.0,0.0,0.0,0.0,0.0,5.1101,0.0,0.0,0.0,0.0,0.0,0.0,0.0,0.0,0.0,0.0,0.0,6.9222,7.2028,7.3679,7.5338,7.714,7.6644,7.6425,0.0,0.0,0.0,0.0,0.0,0.0,0.0,0.0,0.0,0.0,0.0,0.0,0.0,0.0,7.2419,6.4268,6.1485,6.0558,6.1112,0.0,0.0,0.0,0.0,0.0,0.0,0.0,0.0,0.0,0.0,0.0,0.0,0.0,0.0,6.4123,0.0,6.1078,0.0,0.0,0.0,0.0,0.0,0.0,0.0,0.0,7.446,7.5741,7.2831,7.4421,7.242,0.0,6.6233,6.1446,0.0,0.0,0.0,0.0,0.0,0.0,0.0,0.0,5.8738,6.3845,6.618,6.7671,6.8345,6.7605,6.683,6.6028,6.5053,6.2596,5.846,5.5658,5.3087,0.0,0.0,0.0,0.0,0.0,0.0,0.0,0.0,0.0,0.0,0.0,0.0,0.0,0.0,0.0,0.0,0.0,0.0,0.0,0.0,0.0,0.0,0.0,5.2685,0.0,0.0,0.0,0.0,0.0,0.0,0.0,0.0,0.0,6.8983,7.1097,7.3578,7.5953,7.6241,7.6924,7.8809,0.0,0.0,0.0,0.0,0.0,0.0,0.0,7.3307,7.4463,7.3122,7.2195,7.2948,7.7134,7.9904,7.8533,0.0,0.0,7.1806,6.8763,6.7644,6.8115,6.775,6.7414,6.7592,6.7657,6.7684,0.0,0.0,0.0,0.0,0.0,0.0,0.0,0.0,6.9269,6.897,0.0,6.6789,0.0,0.0,0.0,0.0,0.0,7.0099,0.0,0.0,7.9594,8.1146,7.9468,7.7901,7.5711,7.319,7.3619,7.013,6.2975,5.6701,0.0,0.0,0.0,0.0,0.0,0.0,6.0933,6.5249,6.7289,6.8451,6.8823,6.8079,6.7654,6.7601,6.6184,6.447,6.2541,6.0676,5.7994,5.4331,5.1844,0.0,0.0,0.0,0.0,0.0,0.0,0.0,0.0,0.0,0.0,0.0,0.0,0.0,0.0,0.0,0.0,0.0,0.0,0.0,0.0,5.4384,0.0,0.0,0.0,0.0,0.0,0.0,0.0,0.0,0.0,0.0,7.3588,7.5824,7.844,8.0267,0.0,0.0,0.0,0.0,7.974,8.0125,7.9482,7.8799,7.8141,7.9216,7.9729,7.8584,0.0,0.0,7.8312,8.1942,8.3956,8.0027,8.2082,8.3897,8.2059,7.833,7.6171,7.6824,7.5726,7.5052,7.5208,7.5947,7.6686,8.4613,0.0,0.0,0.0,0.0,7.9428,8.1006,8.408,8.1291,7.9319,7.8044,7.6069,0.0,0.0,0.0,0.0,0.0,0.0,7.6137,7.6534,8.037,8.1526,8.0258,8.0329,7.8959,7.6427,7.594,7.3671,6.9741,6.5646,5.9461,5.1374,0.0,0.0,0.0,0.0,6.3467,6.6822,6.8698,6.9619,6.9566,6.923,6.8823,6.8451,6.7597,6.6929,6.6446,6.4994,6.2842,5.9861,5.7193,0.0,0.0,0.0,0.0,0.0,0.0,0.0,0.0,0.0,0.0,0.0,0.0,0.0,0.0,0.0,0.0,0.0,0.0,0.0,5.5036,5.6258,5.773,0.0,0.0,0.0,0.0,0.0,0.0,0.0,0.0,0.0,8.2394,8.1643,8.1286,0.0,0.0,8.0911,8.2238,8.2186,8.2519,8.3978,0.0,0.0,0.0,8.2354,8.1869,8.3787,8.4594,8.469,8.3954,8.4627,8.4885,8.3722,8.4031,8.425,8.3714,8.1951,8.039,8.01,7.9651,7.9394,7.9516,7.997,7.9978,9.1136,8.6309,8.4316,8.4028,8.4881,8.4187,8.5896,8.9046,8.67,8.5598,8.5353,8.2754,7.9392,7.5582,7.3344,0.0,0.0,0.0,7.9107,7.9089,8.1274,8.1689,8.0674,8.0458,7.952,7.7917,7.6659,7.5083,7.3262,7.066,6.5513,5.8038,0.0,0.0,5.9153,6.2364,6.5425,6.8196,6.9683,7.0324,7.0149,6.9849,6.9548,6.9247,6.8892,6.8638,6.857,6.8197,6.6638,6.3785,6.1573,5.7465,0.0,0.0,0.0,0.0,0.0,0.0,0.0,0.0,0.0,0.0,0.0,5.4457,0.0,0.0,0.0,0.0,5.6901,5.8123,5.9686,6.1635,0.0,0.0,0.0,0.0,0.0,0.0,0.0,7.8459,8.1809,8.4736,8.7017,8.623,8.527,8.4901,8.3827,8.3444,8.4488,0.0,8.4949,8.5871,8.6366,8.6598,8.6363,8.4808,8.43,8.6284,8.6543,8.6322,8.6226,8.5719,8.5315,8.5342,8.512,8.4786,8.4471,8.3689,8.2775,8.1768,8.1554,8.1524,8.126,8.1256,8.1165,9.5786,9.3043,8.8284,8.668,8.7265,8.7574,8.8301,8.9187,8.7625,8.8739,9.137,8.72,8.4414,8.2713,7.8898,0.0,7.9881,8.1488,8.2103,8.2013,8.2233,8.1762,8.0785,7.9324,7.8423,7.8099,7.6482,7.5263,7.4349,7.2707,7.0337,6.728,6.415,6.3263,6.4523,6.5462,6.7094,6.9406,7.0289,7.0682,7.0478,7.0061,6.9849,6.9832,6.9796,6.9599,6.9389,7.0251,6.9382,6.657,6.4959,6.214,5.7821,0.0,0.0,0.0,0.0,0.0,0.0,0.0,0.0,0.0,0.0,0.0,0.0,0.0,0.0,0.0,6.3711,0.0,6.6632,6.8966,0.0,0.0,0.0,7.3595,7.4612,7.7634,8.0339,8.2248,0.0,0.0,8.865,8.9629,8.979,8.8557,8.6882,8.6109,8.6991,8.7271,8.7176,8.6636,8.7131,8.7473,8.6988,8.6704,8.6736,8.7197,8.7368,8.7269,8.6574,8.5991,8.562,8.5598,8.5691,8.5695,8.4844,8.491,8.4361,8.2789,8.2378,8.2087,8.1476,8.1455,8.1576,9.4952,9.2854,9.1203,9.0508,9.052,9.0774,9.1054,9.1326,9.1393,9.1485,9.1423,8.9455,8.7283,8.5087,8.4091,8.3568,8.348,8.3879,8.3391,8.2287,8.2287,8.1871,8.1003,8.0461,7.954,7.8332,7.7757,7.6769,7.5422,7.4242,7.3009,7.1597,7.0069,6.8093,6.5728,6.7868,6.9541,7.0577,7.0957,7.0933,7.0478,6.9805,6.9433,6.945,6.8828,6.8889,6.9666,7.0057,6.9837,6.8898,6.6533,6.4527,6.3048,5.6687,0.0,0.0,0.0,0.0,0.0,0.0,0.0,0.0,0.0,6.5135,5.9289,0.0,6.715,0.0,6.9001,7.0412,7.0105,7.2348,0.0,0.0,7.7657,7.8828,8.2116,8.3399,8.4703,8.6503,8.8587,9.0289,9.1363,9.1811,9.1741,9.0807,8.9866,8.939,8.9607,8.9802,8.9696,8.9063,8.9113,8.9189,8.8627,8.8649,8.8705,8.8948,8.8519,8.8212,8.8281,8.7671,8.7171,8.7347,8.7478,8.7424,8.7194,8.7253,8.6842,8.5819,8.4297,8.2975,8.277,8.2897,8.3001,9.4703,9.2544,9.2245,9.1541,9.0627,9.0918,9.1319,9.1671,9.196,9.1966,9.1684,8.983,8.7833,8.5776,8.574,8.5363,8.4678,8.4316,8.3501,8.2269,8.1581,8.1165,8.1038,7.9882,7.9051,7.8491,7.7629,7.6551,7.5326,7.4275,7.3365,7.2577,7.2044,7.0543,6.8268,7.0028,7.1333,7.1941,7.2125,7.1862,7.1132,7.028,6.9269,6.812,6.8095,6.8013,6.7946,6.9237,6.9617,6.8802,6.7342,6.63,6.5765,6.0913,5.8502,0.0,0.0,0.0,0.0,0.0,0.0,0.0,0.0,0.0,0.0,0.0,7.146,7.0902,7.3822,7.5786,7.5996,7.8294,8.0672,8.2785,8.2725,8.3578,8.6117,8.6586,8.7367,8.905,9.013,9.1155,9.2122,9.2444,9.2451,9.2091,9.1841,9.1429,9.0775,9.0742,9.0696,9.0476,9.0226,8.9902,8.9378,8.9475,8.9591,8.9629,8.9096,8.8758,8.8915,8.8346,8.7862,8.7978,8.8041,8.811,8.811,8.811,8.7918,8.7404,8.6364,8.5111,8.4018,8.367,8.3528,9.4518,9.2287,9.2072,9.0968,8.9342,8.9597,9.0216,9.105,9.0947,9.1208,9.1535,8.9124,8.7136,8.5589,8.5425,8.5123,8.4642,8.3755,8.2958,8.2233,8.0621,8.0295,8.0821,7.8702,7.7977,7.8431,7.6937,7.5785,7.4974,7.3967,7.3041,7.2288,7.2094,7.1719,7.111,7.1814,7.2547,7.3183,7.3372,7.2993,7.1998,7.1059,6.9374,6.7005,6.7596,6.7322,6.6009,6.857,6.9477,6.8274,6.844,6.8322,6.7789,6.5604,6.5036,0.0,6.6079,0.0,0.0,0.0,0.0,0.0,0.0,0.0,0.0,7.555,7.5693,7.5425,7.8512,8.1126,8.2518,8.4651,8.6172,8.6676,8.7001,8.7366,8.7866,8.8284,8.905,9.0464,9.0702,9.1087,9.1928,9.225,9.2479,9.2596,9.2856,9.2599,9.1491,9.1261,9.1326,9.1275,9.063,8.9953,8.96,8.9667,8.9839,8.9825,8.9512,8.9177,8.9177,8.8706,8.8248,8.8297,8.8457,8.8492,8.8415,8.8464,8.8474,8.8464,8.8293,8.7377,8.537,8.4437,8.3871,9.3693,9.2201,9.0957,8.9985,8.9235,8.8392,8.8886,9.0258,9.0694,9.0376,8.9417,8.8064,8.6839,8.578,8.5128,8.4785,8.4605,8.3175,8.245,8.2233,8.0621,8.0006,8.0042,7.8992,7.8195,7.7724,7.7364,7.6804,7.6007,7.5524,7.4883,7.4073,7.3116,7.2565,7.244,0.0,0.0,0.0,7.3724,7.3343,7.2421,7.1427,7.0139,6.8498,6.7733,0.0,6.7425,6.9839,7.1431,7.1809,7.2689,0.0,0.0,0.0,0.0,0.0,0.0,0.0,0.0,0.0,0.0,0.0,7.7684,7.7273,7.7056,8.0445,8.2332,8.1596,8.398,8.5696,8.6026,8.6446,8.6831,8.6943,8.7565,8.8005,8.819,8.9326,9.0298,9.0555,9.1143,9.1638,9.1839,9.2162,9.2427,9.2513,9.2864,9.3131,9.299,9.3002,9.2668,9.1586,9.0626,8.9932,8.9742,8.9935,9.0087,9.011,9.0057,8.995,8.9934,8.9936,8.9888,8.986,9.0061,9.0096,9.0096,9.0159,9.0075,9.0107,8.9633,8.8641,8.6774,8.6279,8.6278,9.322,0.0,9.064,8.958,0.0,8.7849,8.812,8.8982,8.9618,8.9253,8.8216,8.7686,8.6663,8.5293,8.4895,8.4243,8.3501,8.2668,8.2088,8.1635,8.0042,7.9535,7.9861,7.8267,7.7507,7.747,7.7108,7.6492,7.5715,7.5462,7.4913,7.4,7.3293,7.2707,7.228,7.2608,7.3324,7.4388,7.4932,7.4751,7.3806,7.2991,7.1621,6.9642,0.0,0.0,0.0,0.0,0.0,0.0,0.0,0.0,0.0,0.0,0.0,7.5551,7.5785,7.6417,7.7723,7.8958,8.0666,8.3044,8.3413,8.2794,8.1096,8.3561,8.5162,8.5077,8.6246,8.7014,8.7014,8.7014,8.7161,8.7528,8.7949,8.85,8.9307,9.0115,9.0776,9.1143,9.1546,9.1803,9.1803,9.2145,9.2444,9.2565,9.3016,9.3417,9.3664,9.3732,9.3295,9.2045,9.1456,9.0774,9.016,9.0171,9.0306,9.0306,9.034,9.0411,9.0422,9.0465,9.0508,9.0508,9.0551,9.0621,9.0593,9.0676,9.0689,9.062,9.0413,8.9783,8.8461,8.7849,8.7571,9.2869,9.0581,9.0292,8.9184,8.7556,8.718,8.7052,8.7239,0.0,0.0,0.0,8.7359,8.632,8.4789,8.4499,8.3629,8.2396,8.2069,8.1616,8.0874,7.9297,7.8881,7.9354,7.7306,7.6637,7.7217,7.6618,7.5949,7.5317,7.5041,7.4439,7.3674,7.3146,7.2436,7.1723,7.2676,7.3716,7.4701,7.5934,7.6076,7.4965,7.4619,7.3259,7.0822,7.1521,7.1231,6.9798,7.2294,7.3453,7.2979,7.4025,7.5275,7.67,7.6966,7.8431,8.1425,8.2373,8.3241,8.4358,8.5163,8.5865,8.6459,8.7,8.6648,8.514,8.5747,8.6481,8.7178,8.7198,8.7215,8.7215,8.7198,8.7472,8.8133,8.8463,8.9197,9.0408,9.0739,9.1106,9.1657,9.1767,9.1822,9.1876,9.2162,9.2496,9.2751,9.3146,9.3618,9.3873,9.3882,9.3553,9.272,9.2379,9.1945,9.1069,9.0873,9.0874,9.1037,9.1064,9.103,9.0982,9.0878,9.0812,9.0846,9.0725,9.0621,9.0593,9.0676,9.0709,9.0709,9.0799,9.0724,8.9947,8.9238,8.8711,9.25,9.0473,8.9096,8.8173,8.7448,8.5575,8.4636,8.4573,8.6775,8.7779,8.7759,8.6369,8.5569,8.5027,8.3679,8.295,8.2659,8.1274,8.0533,8.025,7.8652,7.7877,7.7796,7.6782,7.6348,7.6437,7.6364,7.6239,7.6041,7.5222,7.4723,7.4403,7.291,7.1768,7.1253,7.2119,7.2749,7.3072,7.539,7.5871,7.4381,7.4922,7.4492,7.2984,7.2694,7.2595,7.2507,7.4951,7.6615,7.7235,7.9576,8.0727,8.0319,8.0961,8.1813,8.2474,8.2739,8.3616,8.5252,8.5505,8.6088,8.7177,8.7311,8.709,8.6738,8.7399,8.7912,8.8023,8.7986,8.8023,8.8023,8.8023,8.8059,8.8316,8.9454,9.0372,9.0629,9.1216,9.162,9.1767,9.1803,9.1876,9.202,9.225,9.2565,9.2847,9.3306,9.3732,9.4095,9.3925,9.3629,9.3391,9.3079,9.2772,9.242,9.2635,9.2537,9.2711,9.2635,9.2509,9.2433,9.1991,9.1631,9.1544,9.1075,9.0697,9.0621,9.0676,9.0699,9.0719,9.0809,9.08,9.0628,9.0446,9.0206,9.2154,8.97,8.89,8.7853,8.658,8.5218,8.4318,8.3901,8.5207,8.6044,8.6299,8.5204,8.464,8.446,8.3329,8.2563,8.2089,8.0942,8.0361,8.0167,7.8591,7.7794,7.7704,7.6775,7.6362,7.6445,7.6362,7.6292,7.6203,7.5395,7.4897,7.4687,7.2957,7.1756,7.1271,7.2037,7.2564,7.2746,7.4845,7.5645,7.4977,7.5853,7.6053,7.5477,7.5394,7.5409,7.5522,7.7489,7.8746,7.9134,8.1089,8.2039,8.1672,8.2127,8.2487,8.2696,8.2828,8.3699,8.5483,8.6357,8.7063,8.7623,8.7518,8.7385,8.7265,8.785,8.8023,8.7619,8.7912,8.8206,8.8206,8.8206,8.8536,8.9417,9.0188,9.0776,9.1179,9.1546,9.1767,9.1822,9.1912,9.2002,9.2074,9.2392,9.2701,9.3028,9.3587,9.4094,9.4376,9.4373,9.4212,9.3881,9.3607,9.3378,9.3082,9.3033,9.3104,9.3115,9.3115,9.3093,9.3,9.2673,9.2318,9.1828,9.144,9.1079,9.0746,9.0676,9.0719,9.0799,9.0877,9.0963,9.1048,9.1038,9.08,9.1728,8.8946,8.8708,8.7338,8.5348,8.479,8.4065,8.3265,8.3711,8.42,8.455,8.4092,8.3872,8.3799,8.3012,8.2209,8.1442,8.0639,8.0131,7.9752,7.8324,7.7668,7.7628,7.6766,7.6445,7.6581,7.6395,7.622,7.5949,7.5208,7.4546,7.3946,7.2676,7.1775,7.1312,7.1938,7.2328,7.2497,7.4147,7.518,7.5587,7.6543,7.7118,7.7264,7.7402,7.7604,7.7855,7.921,8.0072,8.033,8.1576,8.2316,8.2316,8.2428,8.2571,8.2742,8.3028,8.3943,8.5713,8.7105,8.7863,8.7794,8.7665,8.762,8.783,8.8279,8.8164,8.7394,8.8202,8.8736,8.837,8.8663,8.9324,9.0445,9.0812,9.1197,9.1711,9.184,9.1876,9.1894,9.2038,9.218,9.2303,9.2565,9.2901,9.3338,9.3977,9.4376,9.4445,9.4715,9.4717,9.4612,9.4368,9.4146,9.3654,9.366,9.371,9.3606,9.3704,9.3792,9.3754,9.3601,9.3038,9.2378,9.1881,9.1434,9.0784,9.0645,9.0699,9.0827,9.0896,9.1009,9.1118,9.11,9.1008,9.1014,8.9075,8.8125,8.6174,8.3845,8.3664,8.2795,8.1581,8.2339,8.2842,8.3018,8.3307,8.3441,8.3331,8.2598,8.1807,8.102,8.0209,7.938,7.854,7.7573,7.7091,7.6947,7.6663,7.6597,7.6597,7.6395,7.5949,7.5244,7.4412,7.3224,7.1793,7.1564,7.1512,7.136,7.1492,7.1544,7.1452,7.3021,7.4343,7.5431,7.6448,7.7061,7.7124,7.7139,7.7584,7.84,7.9458,8.0308,8.1082,8.2018,8.2633,8.2633,8.2649,8.2742,8.2911,8.3571,8.4796,8.6508,8.7564,8.7953,8.781,8.7815,8.8046,8.8635,8.9364,8.9115,8.8112,8.9349,8.9832,8.8535,8.965,9.0513,9.0701,9.1397,9.1929,9.1839,9.1966,9.2074,9.2074,9.225,9.2476,9.2731,9.2864,9.3093,9.3557,9.4065,9.4404,9.4431,9.475,9.5249,9.5679,9.5563,9.5141,9.5022,9.5093,9.5086,9.5135,9.5264,9.5167,9.4987,9.4605,9.3994,9.3153,9.2351,9.1663,9.0975,9.0604,9.0645,9.0959,9.103,9.1068,9.1148,9.1269,9.1272,9.0992,8.9146,8.7667,8.5481,8.3157,8.2976,8.1997,8.0512,8.1167,8.145,8.1447,8.1864,8.2561,8.3287,8.2173,8.1413,8.1045,7.9774,7.8992,7.8547,7.7568,7.7108,7.7092,7.6741,7.6647,7.6692,7.6445,7.5877,7.4991,7.3796,7.2569,7.1544,7.1463,7.1463,7.1436,7.1404,7.1573,7.1997,7.2609,7.3579,7.4897,7.601,7.6672,7.6913,7.7103,7.7389,7.787,7.8796,7.9471,7.9952,8.1117,8.1886,8.1979,8.2493,8.3065,8.366,8.4401,8.5173,8.5902,8.6718,8.7439,8.79,8.8435,8.8843,8.9225,9.0316,9.0477,8.9617,9.0321,9.0704,9.0081,9.0526,9.1062,9.1433,9.1764,9.1948,9.1984,9.2056,9.2127,9.2268,9.251,9.2731,9.2914,9.3173,9.3426,9.3725,9.4108,9.4428,9.4418,9.5064,9.5703,9.6109,9.6287,9.654,9.6551,9.6353,9.6195,9.6116,9.5826,9.5598,9.556,9.5407,9.4834,9.3983,9.3153,9.2274,9.151,9.0937,9.0739,9.1158,9.2133,9.2545,9.2645,9.2287,9.2009,9.102,8.9231,8.6951,8.4787,8.2919,8.2447,8.1379,8.0058,8.0381,8.0515,8.0426,8.0654,8.1512,8.2525,8.1729,8.1165,8.0776,7.944,7.8688,7.84,7.7552,7.7217,7.7264,7.6918,7.679,7.6765,7.6356,7.5574,7.4542,7.3205,7.2137,7.163,7.151,7.1494,7.1479,7.1372,7.1548,7.206,7.2369,7.3127,7.4286,7.5498,7.6345,7.6639,7.6897,7.7071,7.7181,7.806,7.8765,7.9221,8.0487,8.1433,8.1892,8.251,8.329,8.4142,8.5142,8.5704,8.5672,8.6444,8.7227,8.7968,8.8827,8.9479,8.9951,9.102,9.155,9.1321,9.1494,9.1623,9.121,9.1306,9.1643,9.2106,9.2074,9.2091,9.2162,9.2215,9.2338,9.251,9.2798,9.3028,9.3157,9.351,9.377,9.383,9.4325,9.4593,9.4672,9.5504,9.6461,9.6486,9.7143,9.7525,9.7566,9.6966,9.6708,9.65,9.6047,9.5598,9.5609,9.5598,9.5331,9.4288,9.3764,9.3,9.193,9.1291,9.1121,9.1906,9.2823,9.3428,9.2984,9.276,9.2438,9.0913,8.9185,8.5692,8.3988,8.361,8.2083,8.0888,7.9842,8.0051,8.0259,8.0193,7.9804,8.023,8.1324,8.1332,8.1018,8.0191,7.9206,7.8372,7.7768,7.7424,7.731,7.731,7.7155,7.7077,7.6972,7.6124,7.4899,7.3385,7.2387,7.1837,7.1786,7.1609,7.1494,7.1463,7.1356,7.1247,7.13,7.2357,7.32,7.3623,7.5024,7.6024,7.6364,7.6342,7.6525,7.6842,7.76,7.8508,7.9669,8.0583,8.1627,8.2621,8.2867,8.3312,8.4089,8.5593,8.6381,8.6306,8.7015,8.7667,8.7953,8.8896,8.978,9.0393,9.1423,9.2205,9.2781,9.2711,9.236,9.1606,9.1993,9.2399,9.239,9.253,9.253,9.2409,9.253,9.2734,9.2864,9.3098,9.3322,9.3603,9.383,9.3994,9.4203,9.4886,9.5296,9.5049,9.6123,9.709,9.7433,9.785,9.8242,9.7524,9.7085,9.6714,9.652,9.628,9.5598,9.5609,9.5522,9.5102,9.4709,9.4327,9.3573,9.2351,9.1848,9.1928,9.248,9.3195,9.3553,9.3513,9.279,9.2429,8.9271,8.6627,8.5049,8.3786,8.264,8.124,8.0141,7.9327,7.8833,7.875,7.884,7.886,7.9444,8.0434,8.0192,7.9927,7.9542,7.8618,7.7991,7.7703,7.7448,7.7326,7.7273,7.7171,7.7092,7.6967,7.6063,7.478,7.3264,7.2328,7.1888,7.178,7.1718,7.164,7.1463,7.1223,7.1061,7.1143,7.2273,7.2991,7.3361,7.4901,7.6136,7.6812,7.6514,7.6378,7.6495,7.6766,7.7222,7.7891,7.9178,8.0262,8.1111,8.2653,8.337,8.3187,8.4589,8.5496,8.5521,8.6254,8.705,8.7815,8.9166,9.0143,9.0775,9.1854,9.2768,9.3044,9.3054,9.2736,9.2542,9.2586,9.2667,9.2599,9.2547,9.2565,9.2582,9.265,9.2801,9.3082,9.3354,9.3618,9.3837,9.3956,9.4226,9.4691,9.519,9.556,9.614,9.7189,9.8021,9.8215,9.8811,9.9266,9.9038,9.7946,9.7208,9.6939,9.655,9.5848,9.5598,9.5598,9.5255,9.514,9.4834,9.4327,9.3191,9.3136,9.3113,9.3029,9.3771,9.41,9.4176,9.3308,9.2754,8.8435,8.6031,8.5042,8.3868,8.2467,8.0903,7.9791,7.894,7.809,7.781,7.7936,7.7955,7.8521,7.929,7.8973,7.8787,7.8728,7.8086,7.7783,7.7754,7.7441,7.7326,7.731,7.7217,7.7055,7.6683,7.5623,7.4318,7.3111,7.2415,7.2054,7.1985,7.1842,7.19,7.1888,7.1588,7.1483,7.1883,7.2705,7.3279,7.3651,7.4974,7.6245,7.6996,7.681,7.6589,7.6589,7.6538,7.6785,7.738,7.8375,7.9444,8.0677,8.2655,8.353,8.3049,8.4375,8.5263,8.5303,8.5983,8.6869,8.76,8.9004,9.0073,9.0637,9.1832,9.2645,9.2991,9.2967,9.2922,9.2938,9.2801,9.2717,9.2751,9.2667,9.2633,9.2805,9.2835,9.3033,9.3338,9.3618,9.3815,9.3971,9.4,9.4376,9.5075,9.5546,9.6143,9.6828,9.7965,9.8685,9.8695,9.9266,9.9645,9.9317,9.8312,9.7553,9.721,9.6339,9.5791,9.5565,9.5576,9.556,9.5484,9.5216,9.4796,9.4529,9.4447,9.4209,9.3894,9.4176,9.4561,9.4252,9.3719,9.2896,8.8498,8.7338,8.5664,8.4183,8.29,8.109,7.9837,7.8848,7.7879,7.7531,7.7589,7.7081,7.7463,7.8206,7.7922,7.7688,7.7865,7.7703,7.7703,7.7762,7.7426,7.7273,7.7326,7.7326,7.6925,7.6324,7.4719,7.3564,7.2749,7.2446,7.2277,7.224,7.2043,7.2253,7.2948,7.2483,7.2597,7.3194,7.3706,7.4065,7.4368,7.5296,7.6263,7.7105,7.7212,7.7265,7.723,7.7036,7.736,7.8168,7.842,7.9531,8.1523,8.2949,8.3569,8.3754,8.5079,8.5859,8.5888,8.6614,8.7177,8.7553,8.8429,8.9556,9.0309,9.133,9.2228,9.2806,9.2818,9.2805,9.2922,9.2822,9.2788,9.2955,9.2938,9.2938,9.2988,9.3098,9.3322,9.3587,9.3785,9.3971,9.3986,9.3941,9.4302,9.521,9.599,9.6702,9.7238,9.8489,9.9112,9.897,9.929,9.9758,9.923,9.8576,9.7945,9.73,9.6205,9.5379,9.5475,9.5498,9.5565,9.5511,9.5566,9.5184,9.4517,9.4435,9.4366,9.4221,9.4656,9.4532,9.3866,9.3148,9.2507,8.756,8.6193,8.4791,8.3377,8.1976,8.0442,7.9218,7.8251,7.7288,7.6928,7.6812,7.6267,7.6548,7.7238,7.7022,7.7098,7.757,7.7002,7.7002,7.7473,7.7289,7.716,7.7252,7.7411,7.6884,7.5711,7.4633,7.3618,7.2856,7.261,7.2481,7.2372,7.2601,7.2834,7.3021,7.3123,7.3394,7.3629,7.4145,7.4506,7.4769,7.5522,7.6331,7.7158,7.7858,7.8112,7.7829,7.7757,7.7883,7.8225,7.8873,8.0005,8.1506,8.2687,8.3274,8.361,8.4986,8.5888,8.5928,8.6569,8.7169,8.7509,8.8656,8.9569,9.0167,9.1481,9.2397,9.2768,9.2717,9.2754,9.2751,9.2734,9.2842,9.2971,9.2988,9.2988,9.3037,9.3248,9.3338,9.3385,9.3603,9.3709,9.3686,9.3708,9.4256,9.5584,9.617,9.6704,9.8124,9.8865,9.9476,9.9339,9.9687,9.9783,9.9368,9.8637,9.7715,9.7059,9.6133,9.5289,9.531,9.5452,9.5509,9.5587,9.5653,9.5468,9.4839,9.4568,9.4602,9.4195,9.41,9.3705,9.3083,9.2499,9.198,8.6821,8.549,8.4055,8.2711,8.1357,7.9769,7.8508,7.7612,7.6632,7.6077,7.5709,7.5416,7.5776,7.6392,7.6041,7.644,7.7264,7.6081,7.5993,7.6732,7.6411,7.6276,7.6362,7.6655,7.6375,7.5442,7.4663,7.3795,7.2844,7.2723,7.2582,7.2512,7.2993,7.341,7.3588,7.43,7.4752,7.4993,7.5326,7.5508,7.5648,7.5861,7.633,7.707,7.7839,7.8364,7.8585,7.8711,7.8729,7.8819,7.9774,8.093,8.1864,8.2784,8.3575,8.4256,8.5058,8.5808,8.6207,8.6738,8.7213,8.7738,8.8633,8.9603,9.033,9.1643,9.2276,9.2647,9.2616,9.2764,9.3074,9.306,9.3111,9.33,9.3141,9.3058,9.3103,9.3264,9.3578,9.3652,9.3719,9.375,9.3868,9.365,9.4273,9.5723,9.6219,9.6905,9.8456,9.9148,9.9384,9.9528,9.9655,9.9676,9.9669,9.8735,9.7484,9.6767,9.6047,9.5475,9.5179,9.5359,9.5463,9.5565,9.5643,9.5697,9.5194,9.5195,9.5172,9.4503,9.3812,9.3346,9.2943,9.2288,9.1776,8.6189,8.5342,8.3442,8.2157,8.1136,7.9271,7.7877,7.6951,7.6115,7.5254,7.4665,7.4607,7.5138,7.5592,7.5126,7.5568,7.6631,7.5082,7.4671,7.5201,7.4961,7.4626,7.5085,7.5514,7.5576,7.5351,7.4737,7.4006,7.3411,7.2954,7.2712,7.2885,7.3405,7.3907,7.4582,7.5713,7.6439,7.6882,7.6925,7.6891,7.6946,7.6455,7.6385,7.6983,7.7479,7.827,7.916,7.9718,7.9828,7.9756,8.1055,8.1961,8.2469,8.3248,8.4335,8.5236,8.5473,8.6053,8.6725,8.6906,8.7325,8.8092,8.8562,8.92,9.0686,9.1461,9.2111,9.2596,9.2624,9.2885,9.3546,9.3698,9.3716,9.3761,9.3317,9.3091,9.3163,9.3195,9.3557,9.4175,9.4014,9.3768,9.4425,9.3977,9.4519,9.5498,9.6106,9.7086,9.826,9.8937,9.9221,9.939,9.9505,9.939,9.9308,9.8351,9.719,9.6525,9.5895,9.5401,9.5094,9.5251,9.5406,9.552,9.5621,9.5637,9.5608,9.5494,9.5288,9.4753,9.4089,9.3468,9.2824,9.2244,9.1855,8.4926,8.4488,8.2628,8.1344,8.0486,7.9086,7.7605,7.6287,7.5948,7.516,7.4478,7.398,7.4568,7.5665,7.4458,7.4708,7.5504,7.4223,7.339,7.3593,7.2938,7.3644,7.4809,7.5254,7.5425,7.5426,7.4906,7.4633,7.4658,7.3554,7.34,7.4243,7.4292,7.4772,7.5557,7.6316,7.7056,7.7698,7.7757,7.7967,7.8263,7.7717,7.7255,7.7177,7.7946,7.8557,7.91,8.0376,8.1304,8.1509,8.1725,8.2431,8.3284,8.4174,8.4846,8.5262,8.5844,8.6317,8.666,8.6822,8.7311,8.8324,8.9092,8.9878,9.1011,9.1882,9.2357,9.2641,9.2907,9.3317,9.3541,9.3967,9.4148,9.3837,9.3432,9.3062,9.307,9.3167,9.353,9.4119,9.42,9.4302,9.4409,9.4388,9.4409,9.5168,9.5897,9.6634,9.7899,9.881,9.9156,9.9215,9.9242,9.9061,9.8668,9.7801,9.6985,9.6283,9.5679,9.5161,9.5083,9.5253,9.5359,9.5452,9.5587,9.5664,9.5525,9.5381,9.5078,9.4878,9.432,9.3642,9.3016,9.2445,9.2141,8.4406,8.4205,8.2,8.0822,8.0163,7.8491,7.6933,7.5711,7.5204,7.4482,7.3599,7.3169,7.3909,7.5138,7.3626,7.3986,7.54,7.3437,7.2678,7.2886,7.2232,7.2872,7.4169,7.4689,7.5008,7.5351,7.5097,7.5088,7.509,7.4287,7.4343,7.4801,7.5159,7.5669,7.6418,7.7473,7.8289,7.8897,7.9026,7.9231,7.9495,7.8803,7.8255,7.8033,7.8571,7.9015,7.9521,8.082,8.1876,8.2357,8.2668,8.3193,8.4155,8.4954,8.5372,8.5482,8.5956,8.6429,8.6884,8.712,8.7882,8.9154,8.9993,9.0755,9.156,9.236,9.2653,9.2998,9.3299,9.3746,9.4319,9.4816,9.4925,9.4751,9.3872,9.323,9.3029,9.3049,9.3644,9.4264,9.4483,9.4507,9.4817,9.4664,9.4617,9.495,9.5732,9.6612,9.7613,9.8418,9.9035,9.9111,9.8928,9.8687,9.8276,9.7423,9.6834,9.6169,9.5892,9.5262,9.5275,9.5371,9.5315,9.5421,9.5531,9.5626,9.5494,9.5368,9.523,9.4916,9.4407,9.4009,9.3453,9.2999,9.2665,8.4295,8.3923,8.1496,8.04,7.98,7.7657,7.608,7.5021,7.4351,7.3406,7.26,7.2336,7.3375,7.4552,7.2963,7.3254,7.5504,7.2917,7.2403,7.2429,7.2273,7.2529,7.3332,7.3941,7.438,7.488,7.5238,7.5386,7.5328,7.5211,7.5198,7.5514,7.5984,7.6466,7.7212,7.8505,7.9674,8.0084,8.0263,8.0466,8.0489,7.9855,7.9304,7.9085,7.922,7.9865,8.0538,8.1481,8.2265,8.298,8.348,8.4137,8.4991,8.5697,8.584,8.584,8.6026,8.6408,8.7173,8.756,8.8581,9.0078,9.0801,9.1543,9.2168,9.2658,9.3028,9.3336,9.3526,9.4411,9.5387,9.581,9.57,9.5495,9.4534,9.3637,9.3172,9.3029,9.3566,9.4977,9.4569,9.4892,9.5173,9.5122,9.466,9.4998,9.5696,9.647,9.7372,9.8259,9.8787,9.9035,9.8733,9.8305,9.778,9.711,9.6647,9.6131,9.6069,9.5767,9.573,9.5679,9.5397,9.5365,9.5456,9.5543,9.5615,9.5494,9.534,9.5278,9.5022,9.4608,9.4149,9.3757,9.3409,8.3641,8.24,8.1051,7.9718,7.843,7.7139,7.5666,7.4196,7.3961,7.3251,7.2468,7.2299,7.3214,7.4552,7.2786,7.2984,7.4559,7.2792,7.1972,7.2125,7.2275,7.2262,7.2746,7.3362,7.3897,7.4366,7.5039,7.5672,7.5939,7.5726,7.5976,7.6965,7.6663,7.6818,7.7588,7.8643,7.9477,8.0126,8.0851,8.1481,8.1668,8.1094,8.0544,8.0346,8.0323,8.0775,8.1646,8.2667,8.3541,8.398,8.4089,8.4552,8.5701,8.6082,8.6117,8.6042,8.6059,8.6423,8.7135,8.7611,8.8381,9.0318,9.0866,9.1209,9.2318,9.3037,9.3317,9.3654,9.4503,9.5442,9.6212,9.6067,9.5921,9.5737,9.5091,9.4238,9.3585,9.3057,9.3364,9.4028,9.4761,9.5297,9.5742,9.5683,9.5432,9.5352,9.5728,9.6381,9.7184,9.8026,9.8628,9.9043,9.8704,9.8299,9.772,9.7165,9.6755,9.652,9.6522,9.6599,9.6526,9.6135,9.5932,9.5599,9.5301,9.5417,9.5554,9.5533,9.5383,9.5504,9.548,9.4859,9.4348,9.4208,9.3928,8.344,8.1954,8.0976,7.9648,7.8076,7.6783,7.5393,7.4089,7.3525,7.2914,7.2277,7.2084,7.2814,7.3809,7.2573,7.2692,7.3511,7.2644,7.1948,7.2039,7.2129,7.2204,7.2351,7.2805,7.3289,7.3838,7.4315,7.5234,7.6029,7.6205,7.6471,7.7607,7.7297,7.7533,7.8127,7.9045,7.9915,8.065,8.1548,8.2243,8.2371,8.2412,8.2125,8.1851,8.1549,8.1533,8.2071,8.257,8.35,8.4225,8.4423,8.4945,8.6264,8.6757,8.6629,8.6134,8.6859,8.7089,8.758,8.8204,8.9197,9.0721,9.1272,9.1913,9.2646,9.3417,9.4007,9.4356,9.511,9.5918,9.6594,9.6505,9.6213,9.6085,9.5571,9.4816,9.4061,9.3445,9.325,9.3783,9.4274,9.4953,9.5409,9.5774,9.5751,9.5473,9.6509,9.7087,9.6884,9.7741,9.8591,9.8945,9.8704,9.8293,9.7748,9.7281,9.6949,9.6993,9.7274,9.7493,9.7725,9.7133,9.6515,9.6033,9.5522,9.5324,9.5414,9.5396,9.5183,9.4961,9.4748,9.4608,9.4235,9.3647,9.3563,8.3284,8.1746,8.0891,7.9502,7.7844,7.6382,7.5105,7.3956,7.313,7.2575,7.2078,7.1888,7.2489,7.2921,7.2257,7.2453,7.2853,7.2642,7.2122,7.2122,7.2137,7.2248,7.2343,7.2519,7.2783,7.3472,7.3993,7.4889,7.5706,7.645,7.6877,7.7437,7.7783,7.7895,7.8547,7.9672,8.0421,8.0896,8.2062,8.2893,8.3038,8.3324,8.3337,8.3051,8.2262,8.1879,8.2125,8.25,8.3067,8.4282,8.4679,8.5495,8.6494,8.7302,8.7541,8.6425,8.77,8.8113,8.8193,8.8962,9.0049,9.1204,9.2031,9.2697,9.314,9.3876,9.4555,9.5088,9.5639,9.6063,9.6612,9.6631,9.6668,9.6558,9.6025,9.5364,9.4613,9.4043,9.3708,9.3315,9.382,9.4572,9.5285,9.5795,9.5692,9.5848,9.6959,9.7606,9.7418,9.7636,9.8629,9.9126,9.8972,9.8229,9.7621,9.7309,9.7016,9.7199,9.7595,9.8207,9.8454,9.7649,9.688,9.6249,9.5803,9.5494,9.5089,9.4882,9.4659,9.4314,9.4081,9.3943,9.3495,9.2968,9.3127,8.2516,8.0854,8.0022,7.8364,7.6395,7.5912,7.4785,7.3356,7.3028,7.2667,7.2233,7.2069,7.2507,7.2917,7.2267,7.2125,7.2519,7.2439,7.2409,7.2409,7.2394,7.2423,7.238,7.2358,7.2461,7.3003,7.3766,7.4522,7.5117,7.639,7.698,7.7045,7.7755,7.815,7.8448,7.949,8.0541,8.0975,8.2318,8.3417,8.3817,8.3919,8.3892,8.3577,8.2718,8.2212,8.2262,8.2781,8.3274,8.3524,8.5083,8.617,8.6887,8.7555,8.7886,8.8143,8.8545,8.8851,8.8587,8.924,9.0444,9.1538,9.2195,9.275,9.3472,9.4414,9.5079,9.5449,9.6021,9.6539,9.6685,9.6705,9.6705,9.6649,9.654,9.6136,9.5347,9.4558,9.3694,9.2991,9.3531,9.4268,9.5078,9.5859,9.6147,9.6499,9.7394,9.7854,9.7704,9.8125,9.8937,9.9274,9.9396,9.8432,9.7468,9.729,9.7097,9.7229,9.7701,9.8654,9.8623,9.791,9.7183,9.6642,9.5829,9.5151,9.4784,9.444,9.3934,9.3485,9.3368,9.3238,9.2861,9.2469,9.2716,8.2402,8.0707,7.9503,7.7791,7.6043,7.5447,7.4431,7.312,7.2876,7.2638,7.2321,7.2114,7.2297,7.2627,7.2385,7.2218,7.2467,7.2704,7.2681,7.2624,7.2596,7.2496,7.2409,7.2343,7.2263,7.2592,7.3397,7.4294,7.466,7.5719,7.667,7.7311,7.7932,7.8245,7.8529,7.9808,8.0696,8.1222,8.2757,8.3997,8.4428,8.4457,8.4562,8.4465,8.3758,8.322,8.322,8.349,8.3986,8.4393,8.5397,8.627,8.6939,8.7622,8.8357,8.8906,8.944,8.9386,8.9052,8.9629,9.0861,9.1895,9.236,9.3054,9.3998,9.4946,9.5638,9.6035,9.6222,9.6722,9.6722,9.6781,9.6838,9.6876,9.6932,9.6602,9.5866,9.5019,9.3988,9.2956,9.3039,9.3835,9.5075,9.5802,9.6441,9.7187,9.7926,9.8042,9.8004,9.853,9.9215,9.939,9.9495,9.8701,9.7884,9.7819,9.7356,9.7399,9.7961,9.8862,9.8847,9.811,9.76,9.7097,9.6197,9.5013,9.4365,9.3982,9.3339,9.2656,9.2251,9.199,9.2045,9.2085,9.2295,8.2174,8.0768,7.9017,7.7364,7.5986,7.5142,7.4139,7.3175,7.2849,7.2638,7.2351,7.2174,7.2159,7.2329,7.2416,7.251,7.2765,7.2927,7.2899,7.2779,7.2695,7.2567,7.238,7.2233,7.2159,7.2172,7.2495,7.3453,7.4206,7.522,7.6059,7.6788,7.7669,7.8454,7.8851,8.0252,8.1007,8.1903,8.335,8.4391,8.4894,8.5197,8.5533,8.5889,8.4945,8.4191,8.4135,8.4171,8.4378,8.4764,8.5396,8.6006,8.6684,8.7509,8.8353,8.9179,9.0097,8.9916,8.9805,9.0416,9.1574,9.2424,9.299,9.3756,9.4588,9.5526,9.6223,9.6589,9.6722,9.676,9.6781,9.6914,9.7007,9.7082,9.7138,9.7045,9.64,9.5589,9.4742,9.382,9.3078,9.3529,9.4844,9.5636,9.628,9.7557,9.8314,9.8462,9.8449,9.8771,9.9288,9.949,9.94,9.8819,9.8447,9.8621,9.8073,9.7611,9.8338,9.9292,9.8922,9.8286,9.7827,9.7236,9.6021,9.4927,9.4243,9.3475,9.2804,9.2045,9.1156,9.0906,9.1345,9.1481,9.1596,8.1265,8.0693,7.8421,7.688,7.5962,7.5142,7.4192,7.3209,7.3023,7.2835,7.2624,7.2394,7.2351,7.2393,7.2522,7.2714,7.2876,7.2858,7.2881,7.2849,7.2751,7.2596,7.2409,7.2159,7.2054,7.1933,7.1827,7.192,7.2975,7.4656,7.5443,7.5827,7.7628,7.8846,7.897,8.0489,8.1556,8.1689,8.3364,8.5051,8.6063,8.6222,8.6176,8.5905,8.5179,8.4571,8.4645,8.4664,8.4597,8.4441,8.5164,8.5539,8.5769,8.6591,8.7601,8.8702,8.9749,9.0484,9.0301,9.1282,9.2385,9.3032,9.3805,9.4677,9.5365,9.5865,9.6324,9.6684,9.6668,9.68,9.6896,9.7007,9.7101,9.7211,9.7321,9.7339,9.6952,9.6157,9.5273,9.4409,9.3612,9.392,9.4778,9.5423,9.6137,9.7493,9.8551,9.8686,9.887,9.9118,9.9303,9.9528,9.9472,9.8914,9.8555,9.8804,9.8563,9.7899,9.865,9.9505,9.906,9.8513,9.7738,9.7021,9.5844,9.4776,9.3915,9.3125,9.2346,9.1652,9.1003,9.0822,9.0905,9.0973,9.1078,8.1133,8.0729,7.7907,7.6489,7.5991,7.4734,7.3796,7.3262,7.3131,7.3023,7.2886,7.2774,7.2432,7.2152,7.2079,7.212,7.2148,7.2253,7.2521,7.2798,7.2686,7.2539,7.2226,7.2048,7.1942,7.1749,7.1546,7.1488,7.2356,7.3728,7.504,7.569,7.7242,7.8667,7.915,8.0391,8.1277,8.2243,8.3907,8.577,8.6962,8.7259,8.7094,8.7033,8.6297,8.5947,8.5771,8.581,8.5584,8.5444,8.5987,8.6182,8.6182,8.6692,8.7565,8.8996,8.9546,9.0061,9.0557,9.1837,9.2817,9.3616,9.4303,9.5065,9.5788,9.5972,9.6207,9.682,9.6416,9.6528,9.699,9.7285,9.7358,9.7448,9.752,9.7556,9.739,9.6652,9.5822,9.4957,9.4184,9.4344,9.4595,9.5172,9.5892,9.7089,9.8172,9.861,9.8876,9.917,9.9341,9.9485,9.9386,9.9093,9.8757,9.8671,9.8685,9.8322,9.872,9.9349,9.9197,9.8664,9.7801,9.6983,9.597,9.4877,9.3751,9.3129,9.2619,9.1822,9.0937,9.0898,9.0884,9.0866,9.0963,8.1089,8.0512,7.77,7.6467,7.6155,7.4573,7.3673,7.3265,7.3212,7.3131,7.305,7.2996,7.2544,7.1936,7.1843,7.1746,7.1591,7.1672,7.1977,7.2351,7.2571,7.2473,7.2255,7.2129,7.1933,7.1593,7.1483,7.1388,7.189,7.3132,7.457,7.551,7.7348,7.8537,7.9622,8.0739,8.18,8.3287,8.4769,8.6365,8.7609,8.7805,8.7757,8.7734,8.7665,8.7489,8.7186,8.7284,8.706,8.6499,8.6533,8.6622,8.6535,8.6768,8.7549,8.8702,8.9343,8.9947,9.0886,9.2096,9.3156,9.3885,9.4521,9.523,9.5811,9.5637,9.5421,9.6105,9.5866,9.6123,9.6785,9.7132,9.7351,9.7496,9.7787,9.7857,9.78,9.7178,9.6277,9.5209,9.4473,9.4103,9.441,9.4898,9.5717,9.6754,9.7587,9.838,9.8764,9.9073,9.9208,9.9259,9.9251,9.9138,9.9054,9.8784,9.8708,9.8723,9.9106,9.932,9.9297,9.8551,9.7573,9.6742,9.6059,9.5345,9.4398,9.369,9.2967,9.204,9.1253,9.0961,9.0832,9.0901,9.0952,8.0846,7.984,7.8135,7.699,7.623,7.5194,7.4195,7.3383,7.3252,7.3199,7.3172,7.3077,7.2949,7.2599,7.1958,7.1662,7.1612,7.1676,7.1696,7.1936,7.2323,7.2457,7.2358,7.2233,7.2069,7.1801,7.1675,7.1516,7.1693,7.2931,7.374,7.4365,7.6992,7.8646,8.0007,8.1266,8.2882,8.432,8.5577,8.6613,8.7519,8.7847,8.7831,8.8037,8.8314,8.833,8.7575,8.7995,8.7828,8.6947,8.6891,8.6856,8.6803,8.6837,8.7528,8.8404,8.9334,9.0049,9.1009,9.2593,9.3707,9.4162,9.4674,9.5337,9.5693,9.5,9.4743,9.4945,9.5016,9.5492,9.6041,9.648,9.7012,9.7564,9.7857,9.7874,9.7892,9.7855,9.6899,9.5571,9.4926,9.4686,9.4575,9.5158,9.5723,9.6724,9.7566,9.8308,9.8455,9.8727,9.8867,9.8975,9.9066,9.9103,9.9274,9.9094,9.8877,9.8928,9.9219,9.9433,9.9523,9.8551,9.7346,9.6907,9.6299,9.5662,9.5145,9.4536,9.371,9.2406,9.1684,9.1601,9.1597,9.1707,9.1566,8.0808,7.9816,7.8695,7.7424,7.6027,7.5077,7.4218,7.3497,7.337,7.3344,7.3331,7.3241,7.2825,7.2247,7.1897,7.1286,7.0781,7.0717,7.1025,7.1365,7.1736,7.2041,7.216,7.2277,7.2099,7.1941,7.1929,7.1997,7.2033,7.311,7.3756,7.4912,7.6582,7.7939,7.944,8.1615,8.3509,8.4772,8.5779,8.6689,8.7561,8.7831,8.8101,8.8753,8.8849,8.8905,8.8528,8.8668,8.8099,8.7509,8.7254,8.7186,8.7208,8.7223,8.7713,8.85,8.943,9.0276,9.1272,9.3086,9.4761,9.5642,9.5733,9.5532,9.546,9.4522,9.4409,9.446,9.4436,9.4797,9.6159,9.6525,9.6857,9.7577,9.7892,9.7892,9.7909,9.7909,9.7411,9.6011,9.5751,9.5657,9.5566,9.5546,9.6057,9.6677,9.7465,9.8142,9.8275,9.839,9.8552,9.8648,9.8727,9.8796,9.892,9.8951,9.8997,9.9111,9.9274,9.9428,9.9391,9.8248,9.7245,9.6882,9.6438,9.5712,9.5283,9.5242,9.4507,9.3371,9.2771,9.2552,9.2533,9.2521,9.2391,8.0724,7.9583,7.8932,7.7646,7.601,7.5259,7.4351,7.3497,7.3385,7.3385,7.3385,7.3346,7.2929,7.221,7.1696,7.1315,7.0767,7.0615,7.0739,7.1106,7.1533,7.1755,7.2087,7.2424,7.264,7.2356,7.2553,7.2709,7.2617,7.3528,7.394,7.4581,7.5757,7.7402,7.9158,8.161,8.3648,8.4726,8.5701,8.659,8.757,8.8074,8.843,8.9225,8.9501,8.9432,8.9097,8.8942,8.8437,8.7969,8.7772,8.7903,8.7961,8.8125,8.847,8.9025,8.9801,9.061,9.1444,9.3296,9.5255,9.6068,9.5737,9.5516,9.5129,9.4096,9.3589,9.3881,9.3852,9.4305,9.5912,9.6063,9.6674,9.7414,9.7855,9.7892,9.7944,9.7906,9.7317,9.6508,9.6466,9.6348,9.6357,9.6303,9.6708,9.7129,9.7532,9.8009,9.8061,9.8162,9.8246,9.8329,9.8357,9.8395,9.8411,9.8573,9.8733,9.8852,9.9035,9.9297,9.9041,9.8028,9.7435,9.7198,9.6641,9.5762,9.5424,9.5349,9.4959,9.4403,9.3803,9.3077,9.3092,9.3072,9.3251,8.0529,7.8965,7.8747,7.7683,7.6122,7.5854,7.4872,7.3471,7.3346,7.3359,7.3333,7.3265,7.3145,7.2687,7.1936,7.1269,7.0945,7.0866,7.0776,7.0684,7.1327,7.1796,7.2253,7.2636,7.3109,7.3208,7.3446,7.3571,7.3407,7.3975,7.419,7.4691,7.6051,7.7717,7.8952,8.1669,8.3563,8.4646,8.5658,8.6651,8.7493,8.8269,8.8763,8.957,8.9846,8.9687,8.9628,8.9199,8.8721,8.8122,8.8573,8.8763,8.8859,8.9493,8.9519,8.9,9.0506,9.0983,9.0741,9.3309,9.4994,9.5954,9.564,9.5067,9.4624,9.3677,9.2804,9.3228,9.3051,9.3664,9.4553,9.5314,9.6255,9.7196,9.7674,9.7874,9.7909,9.7924,9.7391,9.7097,9.6954,9.6869,9.6994,9.7151,9.7505,9.7746,9.7855,9.7909,9.7944,9.7995,9.8081,9.8078,9.8145,9.8162,9.8212,9.8329,9.8476,9.86,9.8821,9.9118,9.9129,9.8522,9.801,9.7615,9.6831,9.6006,9.567,9.5406,9.5105,9.4763,9.4059,9.3497,9.3529,9.3757,9.4073,8.0042,7.8774,7.8721,7.7929,7.6736,7.605,7.4856,7.3413,7.3199,7.3185,7.3239,7.3118,7.305,7.2696,7.1945,7.1167,7.0564,6.9839,6.9577,7.0275,7.0895,7.1533,7.2114,7.29,7.3401,7.353,7.393,7.4435,7.4198,7.4618,7.4833,7.5298,7.6625,7.862,8.065,8.2795,8.4302,8.5365,8.6236,8.6996,8.7481,8.8014,8.8817,9.0031,8.9915,8.9841,9.0009,8.9522,8.8884,8.8493,8.911,8.9582,8.9721,9.036,9.0202,8.9707,9.0671,9.1646,9.2013,9.3664,9.4955,9.5586,9.5588,9.483,9.4325,9.3469,9.2862,9.267,9.2741,9.3561,9.4564,9.4899,9.5765,9.7147,9.768,9.7805,9.7857,9.7909,9.7706,9.7652,9.7552,9.7372,9.7361,9.7254,9.7533,9.777,9.7805,9.7874,9.7909,9.7909,9.7961,9.7961,9.7995,9.8012,9.8027,9.8145,9.8312,9.8492,9.8695,9.8997,9.8884,9.8748,9.8468,9.8066,9.7135,9.6274,9.6016,9.5767,9.5463,9.5046,9.4534,9.4376,9.4589,9.4849,9.5246,7.983,7.8811,7.8721,7.8128,7.7132,7.6429,7.5156,7.3673,7.3185,7.305,7.3091,7.2982,7.2872,7.2558,7.1885,7.1208,7.037,6.9729,6.9504,7.0151,7.0421,7.1146,7.2079,7.3147,7.3665,7.391,7.4655,7.5262,7.5093,7.5352,7.5765,7.6463,7.7305,7.9288,8.1378,8.3058,8.3981,8.4972,8.584,8.6668,8.7247,8.7866,8.8541,8.949,8.9776,8.9612,8.9886,8.9612,8.9099,8.9115,8.9668,9.0416,9.0745,9.1161,9.1109,9.0865,9.0873,9.2034,9.3014,9.3631,9.4775,9.547,9.523,9.4771,9.4069,9.3334,9.2882,9.2653,9.2769,9.3447,9.4318,9.4558,9.5625,9.7044,9.7448,9.752,9.7591,9.7644,9.7717,9.7734,9.7715,9.7627,9.7538,9.7447,9.743,9.7556,9.7697,9.7805,9.7874,9.7892,9.7892,9.7892,9.7909,9.7944,9.7978,9.8012,9.8162,9.8362,9.8605,9.8858,9.899,9.8897,9.8697,9.8486,9.7799,9.7096,9.6501,9.6115,9.594,9.57,9.5336,9.5358,9.5598,9.5729,9.5849,7.9879,7.8977,7.8798,7.8243,7.7449,7.6954,7.5731,7.415,7.3375,7.3042,7.2968,7.2779,7.2653,7.2355,7.1615,7.1067,7.0724,7.0127,7.0064,7.0349,7.0672,7.1185,7.2007,7.3206,7.3832,7.4514,7.5208,7.5836,7.5916,7.5889,7.6554,7.7559,7.7935,7.9847,8.1653,8.2917,8.3676,8.4776,8.5696,8.6611,8.73,8.7734,8.8462,8.9177,8.9432,8.9585,8.9656,8.936,8.9474,8.9907,9.0788,9.1575,9.2316,9.3093,9.2604,9.2017,9.1585,9.2148,9.3188,9.3678,9.3941,9.4362,9.4346,9.416,9.3846,9.3226,9.2801,9.2742,9.2898,9.3437,9.4002,9.4887,9.5772,9.651,9.7027,9.7156,9.7266,9.7358,9.7413,9.7449,9.7429,9.7393,9.7303,9.7248,9.723,9.743,9.7573,9.7734,9.7822,9.7892,9.7892,9.7892,9.7909,9.7909,9.7944,9.7975,9.8179,9.8444,9.8476,9.8648,9.886,9.9065,9.8917,9.8735,9.8516,9.7923,9.7085,9.6637,9.6465,9.6253,9.6219,9.5767,9.5866,9.5774,9.5835,8.0218,7.9739,7.9633,7.9338,7.879,7.7325,7.565,7.4069,7.3601,7.327,7.2765,7.2624,7.2612,7.2386,7.1101,7.0525,7.0071,6.9719,6.9696,7.0108,7.0901,7.1341,7.223,7.3411,7.4049,7.468,7.5403,7.6231,7.6167,7.6211,7.7038,7.8135,7.8674,8.0406,8.1799,8.3084,8.4023,8.5015,8.5935,8.6739,8.7403,8.781,8.8535,8.9128,8.9336,8.9631,9.0099,9.0123,9.0348,9.0796,9.1752,9.2449,9.2584,9.3154,9.2998,9.2205,9.1424,9.104,9.232,9.2811,9.304,9.3276,9.3504,9.3509,9.3284,9.3071,9.2796,9.2974,9.3162,9.367,9.4229,9.5001,9.5703,9.6259,9.6649,9.6706,9.6838,9.7079,9.7135,9.7101,9.7082,9.7156,9.7082,9.6989,9.6989,9.723,9.7448,9.7591,9.777,9.7857,9.7944,9.7944,9.7961,9.7941,9.8027,9.8111,9.8275,9.8455,9.8487,9.8584,9.8836,9.9013,9.9049,9.8998,9.8843,9.8253,9.7439,9.7185,9.7267,9.7412,9.7341,9.6635,9.6079,9.6052,9.588,8.0531,8.0535,8.0429,8.0027,7.9186,7.7752,7.6139,7.4845,7.4338,7.3802,7.3125,7.3053,7.276,7.2277,7.1205,7.0576,7.0425,6.9882,6.9933,7.1033,7.1194,7.2061,7.2995,7.3888,7.4482,7.5086,7.5835,7.6787,7.6775,7.725,7.8008,7.8891,7.9467,8.0731,8.2142,8.3538,8.4589,8.5581,8.6461,8.7157,8.76,8.799,8.8676,8.9228,8.9367,9.0075,9.0766,9.0849,9.0819,9.1221,9.2042,9.2394,9.2621,9.3086,9.3077,9.2343,9.1799,9.1565,9.2178,9.2377,9.2392,9.2614,9.306,9.3189,9.3298,9.3264,9.3308,9.3455,9.3632,9.3952,9.4491,9.5068,9.5569,9.6127,9.6203,9.6242,9.6521,9.68,9.6807,9.6724,9.6763,9.6876,9.6856,9.676,9.6819,9.7156,9.7394,9.7538,9.7734,9.7874,9.7978,9.8009,9.8027,9.8044,9.8108,9.8225,9.8374,9.852,9.8552,9.8664,9.8874,9.902,9.914,9.9245,9.9291,9.8673,9.8085,9.8136,9.8171,9.8292,9.8131,9.7437,9.6805,9.65,9.6302,8.088,8.1313,8.1286,8.047,7.9113,7.8241,7.729,7.627,7.5506,7.4588,7.3942,7.3707,7.3193,7.2497,7.158,7.1046,7.074,7.0287,7.066,7.2225,7.2036,7.2611,7.3695,7.4727,7.4876,7.5604,7.6456,7.7379,7.7779,7.8237,7.889,7.9666,8.0442,8.1472,8.2686,8.4155,8.5206,8.5961,8.6815,8.7501,8.7767,8.818,8.8777,8.9271,8.9721,9.0226,9.0632,9.0647,9.0452,9.1144,9.162,9.1958,9.2451,9.2816,9.2682,9.2468,9.1983,9.1938,9.198,9.2162,9.238,9.2621,9.3047,9.3382,9.3639,9.3603,9.3711,9.3812,9.3944,9.4323,9.4863,9.5081,9.5453,9.5818,9.5963,9.5943,9.6012,9.6352,9.6552,9.6582,9.674,9.6834,9.6799,9.6741,9.6818,9.7119,9.7321,9.7466,9.7681,9.7857,9.7958,9.8078,9.8095,9.8108,9.8308,9.8406,9.8487,9.8568,9.8648,9.8758,9.8929,9.9096,9.9259,9.9349,9.947,9.9368,9.9034,9.9023,9.8958,9.8788,9.8539,9.8048,9.7619,9.7314,9.6887,8.1705,8.2243,8.2039,8.1246,8.0082,7.9135,7.8492,7.8075,7.7115,7.5931,7.4698,7.4037,7.3575,7.3069,7.1896,7.1252,7.0931,7.1099,7.1318,7.2146,7.2507,7.3305,7.4038,7.4899,7.5172,7.5643,7.6582,7.8063,7.875,7.928,7.9716,8.0237,8.1273,8.2505,8.3429,8.488,8.58,8.6483,8.7181,8.782,8.8133,8.8937,8.9665,9.006,9.045,9.1027,9.1417,9.1583,9.1454,9.1629,9.1507,9.1805,9.23,9.2402,9.2433,9.2306,9.1966,9.1883,9.1891,9.2021,9.2223,9.2904,9.3456,9.4002,9.4254,9.409,9.4048,9.4124,9.4329,9.4746,9.4984,9.5061,9.5207,9.5494,9.5777,9.5695,9.5592,9.5906,9.6275,9.6495,9.6731,9.6755,9.6703,9.678,9.6875,9.7007,9.7211,9.7394,9.7609,9.7822,9.7992,9.8095,9.8091,9.8192,9.8423,9.8568,9.8669,9.8727,9.8821,9.8929,9.9035,9.923,9.9457,9.9571,9.9611,9.9533,9.9604,9.9822,9.9732,9.9474,9.9391,9.9052,9.8849,9.8621,9.7953,8.2478,8.2937,8.2361,8.1694,8.0955,7.9963,7.9282,7.8747,7.8137,7.7225,7.5984,7.4838,7.4045,7.3619,7.2313,7.1713,7.1566,7.182,7.2422,7.2974,7.3438,7.428,7.4902,7.5339,7.5983,7.6507,7.7952,7.9254,7.9904,8.0237,8.0674,8.1318,8.259,8.3518,8.4408,8.5511,8.6429,8.7095,8.7649,8.8148,8.8642,8.9511,9.0415,9.0841,9.1484,9.1934,9.1882,9.1919,9.1386,9.1248,9.1187,9.1605,9.2103,9.2555,9.2619,9.2478,9.2149,9.1808,9.1873,9.1931,9.2079,9.2721,9.3345,9.3672,9.363,9.3521,9.4115,9.4243,9.4322,9.4681,9.4595,9.4657,9.487,9.5174,9.5542,9.5674,9.5715,9.5874,9.6206,9.6462,9.6621,9.672,9.6722,9.6722,9.6856,9.7101,9.7266,9.7467,9.7664,9.7805,9.7958,9.8128,9.8142,9.8341,9.8669,9.8764,9.8796,9.8905,9.8959,9.9066,9.9208,9.9428,9.9613,9.9697,9.9742,9.9799,9.9945,10.0139,10.0227,9.9996,10.0116,10.0183,9.9981,9.966,9.9107,8.3062,8.3424,8.2582,8.2081,8.1748,8.0792,7.9924,7.9198,7.8756,7.8278,7.745,7.5823,7.4838,7.4088,7.3215,7.2827,7.27,7.2957,7.3567,7.4087,7.4494,7.525,7.5865,7.6321,7.7002,7.7954,7.9237,8.0267,8.1117,8.1196,8.1504,8.264,8.3513,8.4298,8.5258,8.6306,8.7183,8.7435,8.7953,8.8664,8.9369,9.0101,9.0954,9.1792,9.2398,9.2488,9.2151,9.1544,9.0792,9.0679,9.0815,9.1493,9.2116,9.2678,9.2756,9.266,9.2422,9.2175,9.2091,9.1894,9.1987,9.2244,9.2794,9.3032,9.3065,9.3498,9.409,9.4028,9.4127,9.4349,9.4275,9.4339,9.4626,9.5108,9.5514,9.5715,9.5797,9.5919,9.6177,9.6411,9.6511,9.6666,9.6706,9.6687,9.6914,9.7175,9.7394,9.7593,9.7752,9.784,9.7958,9.8145,9.8262,9.8525,9.8827,9.8874,9.8858,9.8905,9.8959,9.9163,9.9326,9.95,9.9655,9.9742,9.9823,9.9877,10.001,10.0165,10.0278,10.0425,10.0481,10.0532,10.0404,10.012,10.008,8.3137,8.3574,8.3126,8.2942,8.272,8.1725,8.1145,8.0699,7.9243,7.8572,7.8075,7.6808,7.5852,7.5904,7.5051,7.4368,7.3705,7.4009,7.4401,7.4915,7.4916,7.5923,7.6859,7.7295,7.8091,7.9045,7.9946,8.0541,8.1531,8.1554,8.1623,8.235,8.3834,8.451,8.4925,8.613,8.7354,8.7581,8.8037,8.8726,8.9713,9.0512,9.147,9.2114,9.2577,9.2113,9.1536,9.0755,9.0001,8.9874,9.0524,9.1455,9.2132,9.2705,9.2905,9.2801,9.2565,9.2338,9.2162,9.1966,9.1986,9.2427,9.2923,9.3087,9.3323,9.3942,9.3956,9.3115,9.3294,9.3915,9.4015,9.424,9.455,9.5435,9.608,9.5899,9.5838,9.606,9.6335,9.6399,9.6442,9.6522,9.6582,9.6694,9.6861,9.7137,9.7411,9.7572,9.7494,9.7708,9.7941,9.8071,9.8217,9.8573,9.8827,9.8874,9.8889,9.8935,9.8975,9.9141,9.9341,9.9528,9.9669,9.9714,9.981,9.989,10.0023,10.0177,10.0351,10.0545,10.0673,10.071,10.0645,10.0617,10.0527]}]]